[[[{"header":{"parameterUnit":"kt","parameterCategory":2,"dx":1,"dy":1,"la1":29.285339999999998,"la2":30.599998999999997,"lo1":-89.70041500000002,"lo2":-87.6738589999976,"nx":112,"ny":82,"refTime":"2022-10-06T12:00:00:Z","depth":0,"parameterNumber":1,"parameterNumberName":"U-component_of_WINDS"},"data":[7.3572,7.3679,0.0,7.2575,7.3287,0.0,7.229,0.0,7.0689,0.0,0.0,0.0,0.0,0.0,0.0,0.0,0.0,0.0,0.0,6.3809,0.0,0.0,0.0,0.0,0.0,0.0,0.0,0.0,0.0,0.0,0.0,0.0,8.6534,8.6534,8.7978,8.8549,8.8049,8.8549,8.9226,9.0046,9.0794,9.1828,9.3147,9.3611,9.3054,9.1375,8.7117,8.2751,7.838,7.2576,6.8396,6.5365,6.3064,6.1578,6.077,6.0349,6.0011,5.9617,5.8928,5.8731,5.8731,5.8731,5.8731,5.8731,5.8731,5.8731,5.8731,5.8731,5.8731,5.8731,5.8731,5.8731,5.8731,5.8731,5.8731,5.8684,5.8472,5.8449,5.8379,5.8214,5.8167,5.8167,5.8167,5.8167,5.8308,5.8684,5.8731,5.8731,5.8731,5.8731,5.8731,5.8731,5.8731,5.8731,5.8731,5.8731,5.8731,5.8731,5.8731,5.8637,5.8449,5.8449,5.8355,5.8191,5.7839,5.7651,5.7651,5.6619,5.5868,5.5328,5.4601,5.4014,0.0,0.0,7.2682,7.1115,0.0,0.0,0.0,0.0,0.0,0.0,0.0,0.0,0.0,0.0,0.0,0.0,0.0,0.0,0.0,0.0,0.0,0.0,0.0,0.0,0.0,0.0,0.0,0.0,0.0,0.0,0.0,8.6213,8.7034,8.723,8.8513,8.8976,8.8442,8.919,8.9725,9.001,9.1329,9.2363,9.3111,9.3611,9.386,9.3571,8.7803,8.3613,8.0236,7.2933,6.8174,6.5419,6.321,6.2074,6.1501,6.1361,6.0871,6.0183,5.9519,5.9026,5.8731,5.8731,5.8731,5.8731,5.8731,5.8731,5.8731,5.8731,5.8731,5.8731,5.8731,5.8731,5.8731,5.8731,5.8731,5.8731,5.8731,5.8731,5.8731,5.8731,5.8731,5.8731,5.8731,5.8731,5.8731,5.8731,5.8731,5.8731,5.8731,5.8731,5.8731,5.8731,5.8731,5.8731,5.8731,5.8731,5.8731,5.8731,5.8731,5.8731,5.8731,5.8731,5.8731,5.8731,5.8379,5.8191,5.8191,5.6994,5.622,5.5891,5.5516,5.507,0.0,0.0,0.0,6.9441,0.0,0.0,0.0,0.0,6.634,0.0,0.0,0.0,0.0,0.0,0.0,0.0,0.0,0.0,0.0,0.0,0.0,0.0,0.0,0.0,0.0,0.0,0.0,0.0,0.0,0.0,8.5732,8.6445,8.723,8.8049,8.8798,8.919,8.9155,8.9974,9.0759,9.1543,9.2363,9.3147,9.386,9.386,9.386,9.3439,8.5088,8.1058,7.9819,7.0738,6.6365,6.5188,6.392,6.3132,6.2742,6.3202,6.2145,6.038,6.0282,5.9617,5.8731,5.8731,5.8731,5.8731,5.8731,5.8731,5.8731,5.8731,5.8731,5.8731,5.8731,5.8731,5.8731,5.8731,5.8731,5.8731,5.8731,5.8731,5.8731,5.8731,5.8731,5.8731,5.8731,5.8731,5.8731,5.8731,5.8731,5.8731,5.8731,5.8731,5.8731,5.8731,5.8731,5.8731,5.8731,5.8731,5.8731,5.8731,5.8731,5.8731,5.8731,5.8731,5.8731,5.8731,5.8731,5.8731,5.8731,5.7205,5.6431,5.6431,5.6431,5.6149,6.8408,0.0,0.0,0.0,0.0,0.0,0.0,0.0,0.0,0.0,0.0,0.0,0.0,0.0,0.0,0.0,0.0,6.7445,0.0,6.9228,0.0,0.0,0.0,0.0,0.0,0.0,0.0,0.0,0.0,8.5946,8.657,8.7301,8.7836,8.8049,8.8798,8.8941,8.837,9.026,9.1044,9.0687,9.2612,9.3646,9.386,9.386,9.386,9.3728,9.0785,8.7708,8.4181,7.7813,7.3126,6.9651,6.5992,6.447,6.4181,6.3637,6.3001,6.2341,6.0773,6.0085,5.9715,5.8928,5.8731,5.8731,5.8731,5.8731,5.8731,5.8731,5.8731,5.8731,5.8731,5.8731,5.8731,5.8731,5.8731,5.8731,5.8731,5.8731,5.8731,5.8731,5.8731,5.8731,5.8731,5.8731,5.8731,5.8731,5.8731,5.8731,5.8731,5.8731,5.8731,5.8731,5.8731,5.8731,5.8731,5.8731,5.8731,5.8731,5.8731,5.8731,5.8731,5.8731,5.8731,5.8731,5.8731,5.8731,5.8731,5.7909,5.7299,5.6947,5.6947,5.6689,6.6625,6.6483,6.6735,0.0,0.0,0.0,6.5133,0.0,6.3453,0.0,0.0,0.0,0.0,0.0,0.0,0.0,6.8658,0.0,0.0,0.0,7.429,0.0,0.0,0.0,0.0,0.0,0.0,0.0,8.5732,8.6517,8.7301,8.78,8.8192,8.8513,8.8976,8.8976,8.8549,9.0545,9.1329,9.0901,9.2898,9.386,9.386,9.386,9.3682,9.3265,9.1047,8.8319,8.5063,8.0171,7.5557,7.1276,6.8524,6.7421,6.7131,6.4854,6.3782,6.3098,6.1459,6.0576,6.0085,5.9026,5.8731,5.8731,5.8731,5.8731,5.8731,5.8731,5.8731,5.8731,5.8731,5.8731,5.8731,5.8731,5.8731,5.8731,5.8731,5.8731,5.8731,5.8731,5.8731,5.8731,5.8731,5.8731,5.8731,5.8731,5.8731,5.8731,5.8731,5.8731,5.8731,5.8731,5.8731,5.8731,5.8731,5.8731,5.8731,5.8731,5.8731,5.8731,5.8731,5.8731,5.8731,5.8731,5.8731,5.8731,5.8731,5.8191,5.7768,5.7487,5.7252,5.6877,6.4919,6.4736,6.5128,0.0,6.4242,0.0,0.0,0.0,6.4023,6.4848,0.0,6.6304,6.6483,0.0,0.0,0.0,0.0,0.0,7.1756,7.3323,7.5359,0.0,0.0,0.0,0.0,8.3415,8.4984,8.5768,8.6552,8.7301,8.8014,8.8156,8.8513,8.919,8.919,8.919,8.919,9.0794,9.1579,9.1579,9.3111,9.386,9.386,9.386,9.3468,9.2636,8.8626,8.6248,8.4818,8.0363,7.6118,7.227,7.1821,7.1342,7.0478,6.6382,6.4269,6.3196,6.2218,6.1165,6.0085,5.9026,5.8731,5.8731,5.8731,5.8731,5.8731,5.8731,5.8731,5.8731,5.8731,5.8731,5.8731,5.8731,5.8731,5.8731,5.8731,5.8731,5.8731,5.8731,5.8731,5.8731,5.8731,5.8731,5.8731,5.8731,5.8731,5.8731,5.8731,5.8731,5.8731,5.8731,5.8731,5.8731,5.8731,5.8731,5.8731,5.8731,5.8731,5.8731,5.8731,5.8731,5.8731,5.8731,5.8731,5.8731,5.8731,5.8238,5.798,5.7909,5.7393,5.6877,6.2383,6.2276,6.2704,0.0,0.0,6.3809,0.0,0.0,0.0,6.8051,6.8942,6.9869,7.1153,0.0,0.0,0.0,0.0,0.0,0.0,7.6357,0.0,0.0,0.0,0.0,0.0,8.4841,8.5768,8.6641,8.7372,8.7907,8.8049,8.8655,8.9048,8.919,8.919,8.919,8.919,9.0794,9.1579,9.1579,9.3111,9.386,9.386,9.386,9.3789,9.3575,9.1438,9.0449,8.978,8.441,8.1662,8.0503,7.7212,7.3892,7.0478,6.6382,6.4269,6.3196,6.2218,6.1165,6.0085,5.9026,5.8731,5.8731,5.8731,5.8731,5.8731,5.8731,5.8731,5.8731,5.8731,5.8731,5.8731,5.8731,5.8731,5.8731,5.8731,5.8731,5.8731,5.8731,5.8731,5.8731,5.8731,5.8731,5.8731,5.8731,5.8731,5.8731,5.8731,5.8731,5.8731,5.8731,5.8731,5.8731,5.8731,5.8731,5.8731,5.8731,5.8731,5.8731,5.8731,5.8731,5.8731,5.8731,5.8731,5.8731,5.8731,5.8637,5.8355,5.7909,5.7393,5.6877,6.1528,6.1599,0.0,6.2169,0.0,0.0,0.0,6.6877,6.7944,6.9477,7.044,7.1293,7.2468,7.3644,7.4676,7.5495,7.6599,7.7605,7.8033,7.9102,0.0,0.0,0.0,0.0,8.5019,8.5804,8.641,8.6891,8.7586,8.8228,8.862,8.8976,8.919,8.919,8.919,8.919,8.919,9.0794,9.1579,9.1579,9.3111,9.386,9.386,9.386,9.3646,9.3218,9.2078,9.1329,9.0679,8.7497,8.618,8.5592,7.9566,7.5887,7.3321,6.7131,6.4269,6.3196,6.2218,6.1165,6.0085,5.9026,5.8731,5.8684,5.8402,5.8519,5.8731,5.8731,5.8731,5.8731,5.8731,5.8731,5.8731,5.8731,5.8731,5.8731,5.8731,5.8731,5.8731,5.8731,5.8731,5.8731,5.8731,5.8731,5.8731,5.8731,5.8731,5.8731,5.8731,5.8731,5.8731,5.8731,5.8731,5.8731,5.8731,5.8731,5.8731,5.8731,5.8731,5.8731,5.8731,5.8731,5.8731,5.8731,5.8731,5.8731,5.8731,5.8449,5.805,5.7534,5.7018,5.6642,0.0,0.0,0.0,0.0,6.4094,0.0,6.7732,6.8587,6.937,7.0974,7.1863,7.2646,7.3252,7.4325,7.5466,7.6749,7.7106,7.8139,8.0884,8.1241,0.0,0.0,0.0,0.0,8.6053,8.6731,8.7212,8.739,8.7907,8.8549,8.9155,8.919,8.919,8.919,8.919,8.9262,8.944,9.0866,9.165,9.1792,9.3183,9.386,9.386,9.386,9.3504,9.2898,9.1971,9.1186,9.0509,8.9582,8.919,8.8549,8.1191,7.7872,7.6266,6.8842,6.4925,6.3196,6.2218,6.1165,6.0085,5.8908,5.8566,5.8496,5.805,5.8214,5.859,5.8707,5.8731,5.8731,5.8731,5.8731,5.8731,5.8731,5.8731,5.8731,5.8731,5.8731,5.8731,5.8731,5.8731,5.8731,5.8731,5.8731,5.8731,5.8731,5.8731,5.8731,5.8731,5.8731,5.8731,5.8731,5.8731,5.8731,5.8731,5.8731,5.8731,5.8731,5.8731,5.8731,5.8731,5.8731,5.8731,5.8731,5.8731,5.8684,5.8566,5.8144,5.7604,5.6994,5.6478,5.6243,0.0,0.0,0.0,0.0,6.4486,0.0,6.8658,7.0652,7.2611,7.4178,7.5139,7.5709,7.578,7.7676,7.929,7.9469,8.0029,8.0884,8.1918,8.2061,8.293,0.0,0.0,0.0,8.7657,8.7871,8.8192,8.8905,8.9012,8.9119,8.919,8.919,8.919,8.919,8.919,8.9511,9.0224,9.1115,9.1899,9.2612,9.3468,9.386,9.386,9.386,9.3824,9.3646,9.2185,9.1507,9.1329,8.9832,8.919,8.8824,8.4296,8.0316,7.6645,7.2012,6.7324,6.3196,6.2218,6.1165,6.0013,5.8558,5.8003,5.8003,5.7933,5.7956,5.812,5.859,5.8731,5.8731,5.8731,5.8731,5.8731,5.8731,5.8731,5.8731,5.8731,5.8731,5.8731,5.8731,5.8731,5.8731,5.8731,5.8731,5.8731,5.8731,5.8731,5.8731,5.8731,5.8731,5.8731,5.8731,5.8731,5.8731,5.8731,5.8731,5.8731,5.8731,5.8731,5.8731,5.8731,5.8731,5.8731,5.8731,5.8731,5.8496,5.8003,5.7956,5.7417,5.6478,5.5962,5.5634,0.0,0.0,6.3203,6.4593,0.0,0.0,7.0082,7.2005,7.3537,7.4178,7.6143,7.7533,7.7034,7.8612,7.9897,7.9897,8.0967,8.1989,8.2823,8.3237,8.4093,0.0,0.0,0.0,0.0,8.8477,8.8869,8.919,8.919,8.919,8.919,8.919,8.919,8.919,8.919,8.9368,8.9689,9.0937,9.1721,9.2042,9.329,9.386,9.386,9.386,9.3611,9.3111,9.2042,9.1293,9.0759,8.9654,8.919,8.8824,8.476,8.2218,8.0096,7.562,7.0742,6.6348,6.5426,6.2595,5.9245,5.8619,5.7969,5.7487,5.7487,5.7675,5.7956,5.8191,5.8496,5.8731,5.8731,5.8731,5.8731,5.8731,5.8731,5.8731,5.8731,5.8731,5.8731,5.8731,5.8731,5.8731,5.8731,5.8731,5.8731,5.8731,5.8731,5.8731,5.8731,5.8731,5.8731,5.8731,5.8731,5.8731,5.8731,5.8731,5.8731,5.8731,5.8731,5.8731,5.8731,5.8731,5.8731,5.8731,5.8731,5.8472,5.7909,5.7628,5.7111,5.6384,5.5868,5.5633,6.0209,0.0,0.0,0.0,0.0,0.0,7.1044,7.2718,7.4004,7.4468,7.6571,7.8291,7.7934,7.9147,8.0147,7.9932,8.1217,8.2537,8.3287,8.4464,8.5483,8.6267,0.0,0.0,0.0,0.0,0.0,0.0,8.919,8.919,8.919,8.919,8.919,8.919,8.919,8.9404,8.9868,9.1008,9.1792,9.222,9.3325,9.3753,9.3539,9.3539,9.3111,9.2363,9.1579,9.0759,8.9974,8.919,8.9012,8.888,8.5514,8.3698,8.2379,7.8728,7.3711,6.8614,6.7725,6.3753,5.9074,5.8642,5.7902,5.7158,5.7158,5.751,5.7956,5.8097,5.8425,5.8731,5.8731,5.8731,5.8731,5.8731,5.8731,5.8731,5.8731,5.8731,5.8731,5.8731,5.8731,5.8731,5.8731,5.8731,5.8731,5.8731,5.8731,5.8731,5.8731,5.8731,5.8731,5.8731,5.8731,5.8731,5.8731,5.8731,5.8731,5.8731,5.8731,5.8731,5.8731,5.859,5.8566,5.8731,5.859,5.8308,5.7909,5.7276,5.6689,5.6173,5.5821,5.5633,0.0,0.0,0.0,6.4171,6.6877,6.9548,7.1151,7.2718,7.4325,7.578,7.6971,7.7791,7.8576,8.0004,8.0742,8.0039,8.1217,8.2537,8.3287,8.5392,8.7051,8.7907,0.0,0.0,0.0,0.0,0.0,0.0,8.919,8.919,8.919,8.919,8.919,8.919,8.919,8.9939,9.1472,9.1543,9.2327,9.3789,9.3824,9.3468,9.2755,9.2755,9.2327,9.1579,9.0723,8.9939,8.919,8.8406,8.8513,8.9048,8.7425,8.4874,8.1925,8.107,7.5722,6.8803,6.7746,6.432,5.9955,5.8468,5.7593,5.7158,5.7158,5.751,5.8027,5.8566,5.8731,5.8731,5.8731,5.8731,5.8731,5.8731,5.8731,5.8731,5.8731,5.8731,5.8731,5.8731,5.8731,5.8731,5.8731,5.8731,5.8731,5.8731,5.8731,5.8731,5.8731,5.8731,5.8731,5.8731,5.8731,5.8731,5.8731,5.8731,5.8731,5.8731,5.8731,5.8731,5.8731,5.8214,5.8191,5.8731,5.8214,5.7933,5.7909,5.69,5.6149,5.5657,5.554,5.5633,6.1243,6.2775,6.4415,6.6949,6.8835,7.0404,7.1934,7.4285,7.6393,7.7006,7.9005,8.0432,7.9647,7.9932,8.0396,8.0646,8.2002,8.3465,8.4699,8.6481,8.7943,8.8727,8.9048,0.0,0.0,0.0,0.0,0.0,0.0,0.0,8.919,8.919,8.919,8.919,8.919,8.9689,9.0759,9.0759,9.1293,9.2327,9.2327,9.2185,9.1971,9.1971,9.1507,9.0759,9.0474,8.9389,8.7622,8.7426,8.7408,8.7676,8.7141,8.6265,8.5115,8.4349,7.9141,7.2391,7.1514,6.5875,5.9063,5.8884,5.7828,5.6783,5.7463,5.7792,5.8027,5.8566,5.8731,5.8731,5.8731,5.8731,5.8731,5.8731,5.8731,5.8731,5.8731,5.8731,5.8519,5.7815,5.8261,5.8519,5.7815,5.8261,5.8613,5.8238,5.8496,5.8731,5.8731,5.8731,5.8731,5.8731,5.8731,5.8731,5.8731,5.8731,5.8731,5.8731,5.8402,5.8191,5.8191,5.7698,5.751,5.7675,5.751,5.7252,5.69,5.6572,5.6149,5.5633,5.5633,5.5633,6.2241,6.3952,6.5663,6.8444,7.0226,7.158,7.2789,7.5608,7.7854,7.797,7.979,8.1181,8.0468,8.0325,8.0503,8.0956,8.2894,8.4607,8.5554,8.7301,8.8655,8.9155,8.919,0.0,0.0,0.0,0.0,0.0,0.0,8.919,8.919,8.919,8.919,8.919,8.919,8.9297,8.9511,8.9511,8.9939,9.0723,9.1008,9.0973,9.0723,9.0723,9.0295,8.9511,8.9226,8.8318,8.6891,8.6605,8.6677,8.6855,8.6231,8.6284,8.6427,8.5554,8.0463,7.3808,7.3285,6.7049,5.9401,5.9305,5.8446,5.7543,5.7818,5.805,5.8285,5.8637,5.8731,5.8731,5.8731,5.8731,5.8731,5.8731,5.8731,5.8637,5.8238,5.8167,5.798,5.7299,5.7698,5.7956,5.7276,5.7722,5.805,5.7698,5.7956,5.8167,5.8167,5.8167,5.8167,5.8167,5.8167,5.8167,5.8167,5.8167,5.8167,5.8167,5.7839,5.7651,5.7651,5.7158,5.6971,5.7158,5.6971,5.6642,5.6126,5.6126,5.5962,5.5633,5.5633,5.5633,6.1849,6.4059,6.6411,6.8658,7.0973,7.286,7.3648,7.6357,7.8755,7.8755,7.9397,8.0218,8.0884,8.1027,8.1063,8.1098,8.3629,8.5661,8.5732,8.7693,8.9155,8.919,8.919,8.919,0.0,0.0,0.0,0.0,8.9155,8.9155,8.9155,8.9155,8.9155,8.9155,8.919,8.8834,8.8049,8.8085,8.8477,8.9155,8.9832,8.9796,8.9083,8.9083,8.8655,8.7907,8.7051,8.6819,8.6748,8.5946,8.6053,8.6677,8.5126,8.4984,8.5554,8.4806,7.9702,7.3072,7.3102,6.7726,6.0651,5.9667,5.9432,5.9316,5.8248,5.8332,5.8731,5.8731,5.8731,5.8731,5.8731,5.8707,5.8684,5.8684,5.8684,5.8379,5.737,5.7135,5.7111,5.7088,5.7111,5.7135,5.7088,5.7111,5.7158,5.7111,5.7135,5.7158,5.7158,5.7158,5.7158,5.7158,5.7158,5.7158,5.7158,5.7158,5.7158,5.7158,5.7135,5.7111,5.7111,5.6642,5.6595,5.7065,5.6619,5.6126,5.5633,5.5633,5.5633,5.5633,5.5633,5.5633,6.2918,6.5631,6.7839,6.9655,7.1438,7.2718,7.2931,7.5965,7.8755,7.8755,7.9861,8.0777,8.0991,8.1027,8.1241,8.1811,8.3558,8.5233,8.6374,8.7586,8.8549,8.9119,8.919,8.8976,0.0,0.0,0.0,0.0,8.8335,8.8335,8.8335,8.8335,8.8335,8.8335,8.8905,8.8834,8.8049,8.862,8.8727,8.8335,8.7907,8.7622,8.7443,8.7443,8.7105,8.6231,8.5483,8.5126,8.5126,8.4913,8.4948,8.5091,8.4699,8.4663,8.4806,8.4627,7.9702,7.3133,7.3537,6.8004,6.0871,6.0655,6.0042,5.9389,5.8696,5.8613,5.8731,5.8731,5.8731,5.8731,5.8731,5.8425,5.812,5.812,5.7839,5.7487,5.7205,5.6853,5.6478,5.6103,5.6642,5.6924,5.6149,5.6666,5.7041,5.6642,5.6924,5.7158,5.7158,5.7158,5.7158,5.7158,5.7158,5.7158,5.7158,5.7158,5.7158,5.7158,5.6806,5.6595,5.6595,5.6103,5.5891,5.6032,5.5891,5.5774,5.5633,5.5633,5.5633,5.5633,5.5633,5.5633,6.3132,6.645,6.9406,7.1046,7.2329,7.3287,7.3644,7.6571,7.9147,7.8826,7.9469,8.0182,8.0503,8.0777,8.117,8.1597,8.2988,8.4536,8.5661,8.6517,8.7301,8.8049,8.8156,8.7978,8.755,0.0,0.0,0.0,8.7515,8.7515,8.7515,8.7871,8.8049,8.8049,8.8798,8.8834,8.8049,8.8121,8.7764,8.7016,8.6552,8.6427,8.6427,8.6427,8.5999,8.5162,8.4734,8.4556,8.4556,8.4556,8.4556,8.4556,8.4556,8.4556,8.4556,8.4556,7.9702,7.3164,7.3722,6.8686,6.1887,6.1245,6.0821,6.0286,5.903,5.8731,5.8731,5.8731,5.8731,5.8684,5.8449,5.8144,5.7862,5.7628,5.737,5.7041,5.6595,5.6267,5.5985,5.5704,5.6103,5.6314,5.5657,5.6103,5.6384,5.6103,5.6314,5.6478,5.6478,5.6478,5.6478,5.6478,5.6478,5.6478,5.6478,5.6478,5.6478,5.6478,5.622,5.6056,5.6056,5.5798,5.5633,5.5633,5.5633,5.5633,5.5633,5.5633,5.5633,5.5633,5.5633,5.5633,6.3274,6.6804,7.0333,7.2008,7.3003,7.3857,7.4569,7.7141,7.9254,7.8719,7.8683,7.9005,7.9754,8.0575,8.1027,8.1027,8.2239,8.3572,8.4413,8.5126,8.5875,8.6819,8.6927,8.6891,8.6784,0.0,0.0,0.0,8.6784,8.6784,8.6784,8.7443,8.7907,8.7907,8.8727,8.8834,8.8049,8.723,8.6534,8.5697,8.559,8.5519,8.5519,8.5519,8.5162,8.4556,8.4556,8.4556,8.4556,8.4556,8.4556,8.4556,8.4556,8.4556,8.4556,8.4556,8.0053,7.397,7.457,7.0082,6.391,6.255,6.204,6.1459,5.9519,5.8782,5.8637,5.8637,5.8566,5.8402,5.7933,5.7768,5.7604,5.7158,5.7018,5.6713,5.5821,5.5633,5.5633,5.5633,5.5633,5.5633,5.5633,5.5633,5.5633,5.5633,5.5633,5.5633,5.5633,5.5633,5.5633,5.5633,5.5633,5.5633,5.5633,5.5633,5.5633,5.5633,5.5633,5.5633,5.5633,5.5633,5.5633,5.5633,5.5633,5.5633,5.5633,5.5633,5.5633,5.5633,5.5633,5.5633,6.5128,6.6875,6.8016,7.0226,7.1865,7.2896,7.3038,7.4997,7.7034,7.7649,7.8291,7.9005,7.9754,8.0575,8.1027,8.1027,8.1811,8.2881,8.4342,8.4663,8.5269,8.6748,8.6927,8.6677,8.5946,8.6445,0.0,0.0,0.0,8.5875,8.5875,8.6712,8.7051,8.7051,8.8442,8.8834,8.8049,8.723,8.6534,8.5697,8.5055,8.4734,8.4734,8.4734,8.4663,8.4556,8.4556,8.4556,8.4556,8.4556,8.4556,8.4556,8.4556,8.4556,8.4556,8.4556,8.1664,7.7893,7.9207,7.4588,6.8063,6.8004,6.5183,6.1557,6.038,5.9088,5.805,5.805,5.7745,5.7417,5.7323,5.6971,5.6642,5.6548,5.622,5.5844,5.568,5.5633,5.5633,5.5633,5.5633,5.5633,5.5633,5.5633,5.5633,5.5633,5.5633,5.5633,5.5633,5.5633,5.5633,5.5633,5.5633,5.5633,5.5633,5.5633,5.5633,5.5633,5.5633,5.5633,5.5633,5.5633,5.5633,5.5633,5.5633,5.5633,5.5633,5.5633,5.5633,5.5633,5.5633,5.5633,6.4308,6.6554,6.8265,6.8943,7.0617,7.229,7.3074,7.4783,7.6279,7.6749,7.682,7.732,7.9005,7.9611,7.9922,8.0396,8.0789,8.1431,8.256,8.3059,8.3736,8.4964,8.5463,8.5483,8.5126,8.5447,8.5483,0.0,0.0,8.5091,8.5091,8.6284,8.6927,8.6927,8.837,8.9012,8.8655,8.7871,8.7087,8.6356,8.5519,8.4948,8.4556,8.4556,8.4556,8.4556,8.4556,8.4556,8.4556,8.4556,8.4556,8.4556,8.4556,8.4556,8.4556,8.4556,8.2101,7.8988,8.0362,7.7065,7.221,7.2566,6.9334,6.5107,6.3465,6.0818,5.8209,5.7727,5.7346,5.7088,5.683,5.6572,5.6337,5.6056,5.5821,5.5633,5.5633,5.5633,5.5633,5.5633,5.5633,5.5633,5.5633,5.5633,5.5633,5.5633,5.5633,5.5633,5.5633,5.5633,5.5633,5.5633,5.5633,5.5633,5.5633,5.5633,5.5633,5.5633,5.5633,5.5633,5.5633,5.5633,5.5633,5.5633,5.5633,5.5633,5.5633,5.5633,5.5633,5.5633,5.5633,5.5633,6.3987,6.6625,6.8872,6.8587,6.9798,7.1471,7.3256,7.4534,7.5531,7.5887,7.546,7.5709,7.8077,7.8612,7.8933,7.954,7.979,8.0182,8.092,8.1788,8.2537,8.3322,8.4057,8.4556,8.4556,8.4556,8.4556,8.4556,0.0,0.0,8.4556,8.6018,8.6927,8.6927,8.837,8.919,8.919,8.8442,8.7657,0.0,8.6053,8.5305,8.4556,8.4556,8.4556,8.4556,8.4556,8.4556,8.4556,8.4556,8.4556,8.4556,8.4556,8.4556,8.4556,8.4556,8.2659,8.0168,8.162,7.946,7.615,7.6812,7.3653,6.917,6.7211,6.3799,6.0497,5.9261,5.8331,5.7664,5.7258,5.6692,5.6126,5.5727,5.5633,5.5633,5.5633,5.5633,5.5633,5.5633,5.5633,5.5633,5.5633,5.5633,5.5633,5.5633,5.5633,5.5633,5.5633,5.5633,5.5633,5.5633,5.5633,5.5633,5.5633,5.5633,5.5633,5.5633,5.5633,5.5633,5.5633,5.5633,5.5633,5.5633,5.5633,5.5633,5.5633,5.5633,5.5633,5.5633,5.5633,5.5633,6.6593,6.7875,6.8444,6.9834,6.9798,6.9976,7.2255,7.2896,7.3394,7.4854,7.5104,7.5608,7.7327,7.8255,7.8755,7.8862,7.9433,8.0182,8.092,8.1788,8.2537,8.3322,8.4057,8.4556,8.4556,8.4556,8.4556,8.4556,8.4556,0.0,8.4556,8.6018,8.6927,8.6927,8.837,8.919,8.919,8.8442,8.7657,8.6927,8.6053,8.5305,8.4556,8.4556,8.4556,8.4556,8.4556,8.4556,8.4556,8.4556,8.4556,8.4556,8.4556,8.4556,8.4556,8.4556,8.4347,8.4212,8.5824,8.3278,7.9501,8.0952,7.7455,7.234,7.0511,6.8686,6.6789,6.4924,6.2161,5.9801,5.9751,5.7732,5.5704,5.5657,5.5633,5.5633,5.5633,5.5633,5.5633,5.5633,5.5633,5.5633,5.5633,5.5633,5.5633,5.5633,5.5633,5.5633,5.5633,5.5633,5.5633,5.5633,5.5633,5.5633,5.5633,5.5633,5.5633,5.5633,5.5633,5.5633,5.5633,5.5633,5.5633,5.5633,5.5633,5.5633,5.5633,5.5633,5.5633,5.5633,5.5633,5.5633,6.4558,6.6557,6.8053,6.8229,6.8408,6.8836,7.0225,7.0974,7.1827,7.3893,7.3928,7.4249,7.6357,7.747,7.8184,7.8683,7.9397,8.0004,8.0325,8.1467,8.2395,8.268,8.3772,8.4556,8.4556,8.4556,8.4556,8.4556,8.4556,8.4556,0.0,8.6018,8.6927,8.6927,8.837,8.919,8.919,8.8905,8.837,8.755,8.6766,8.5982,8.5233,8.477,8.4556,8.4556,8.4556,8.4556,8.4556,8.4556,8.4556,8.4556,8.4556,8.4556,8.4556,8.4556,8.4235,8.4021,8.5678,8.4658,8.2917,8.4409,8.1427,7.6975,7.5705,7.2151,6.8188,6.6818,6.4572,6.2207,6.0482,5.9212,5.8749,6.0482,6.0851,6.039,5.8656,5.8285,5.7752,5.5913,5.5633,5.5633,5.5633,5.5633,5.5633,5.5633,5.5633,5.5633,5.5633,5.5633,5.5633,5.5633,5.5633,5.5633,5.5633,5.5633,5.5633,5.5633,5.5633,5.5633,5.5633,5.5633,5.5633,5.5633,5.5633,5.5633,5.5633,5.5633,5.5633,5.5633,5.5633,5.5633,6.2811,6.4986,6.6771,6.741,6.7659,6.7875,6.8658,6.8942,6.9727,7.2329,7.2614,7.2967,7.5104,7.6214,7.7185,7.822,7.904,7.9647,7.9861,8.1253,8.2252,8.2252,8.3594,8.4556,8.4556,8.4556,8.4556,8.4556,8.4556,8.4556,8.4556,8.6018,8.6927,8.6927,8.837,8.9083,8.8869,8.8869,8.8477,8.7693,8.6873,8.6196,8.5661,8.4913,8.4556,8.4556,8.4556,8.4556,8.4556,8.4556,8.4556,8.4556,8.4556,8.4556,8.452,8.4271,8.3807,8.3608,8.4877,8.4841,8.4449,8.5982,8.4143,8.1063,7.982,7.5863,7.1547,7.0166,6.7844,6.5232,6.3153,6.2693,6.2969,6.4016,6.4291,6.3768,6.1747,6.0667,5.949,5.7287,5.6193,5.5633,5.5633,5.5633,5.5633,5.5633,5.5633,5.5633,5.5633,5.5633,5.5633,5.5633,5.5633,5.5633,5.5633,5.5633,5.5633,5.5633,5.5633,5.5633,5.5633,5.5633,5.5633,5.5633,5.5633,5.5633,5.5633,5.5633,5.5633,5.5633,5.5633,5.5633,6.2526,6.3381,6.4344,6.8229,6.8051,6.7089,6.7839,6.6806,6.6661,6.9762,7.0973,7.2005,7.3648,7.4498,7.5644,7.7292,7.822,7.904,7.979,8.1253,8.2252,8.2252,8.3594,8.4556,8.4556,8.4556,8.4556,8.4556,8.4556,8.4556,8.4556,8.6018,8.6927,8.6927,8.837,8.8834,8.8085,8.8085,8.7657,8.6927,8.6141,8.5697,8.5661,8.4913,8.4556,8.4556,8.4556,8.4556,8.4556,8.4556,8.4556,8.4556,8.4556,8.4556,8.4449,8.3715,8.3429,8.3537,8.4271,8.4021,8.3679,8.5198,8.5198,8.4122,8.2258,8.0296,7.8447,7.6498,7.2447,6.8747,6.8747,6.8747,6.7992,6.5049,6.4291,6.4291,6.4291,6.2023,6.002,6.002,5.7659,5.5633,5.5633,5.5633,5.5633,5.5633,5.5633,5.5633,5.5633,5.5633,5.5633,5.5633,5.5633,5.5633,5.5633,5.5633,5.5633,5.5633,5.5633,5.5633,5.5633,5.5633,5.5633,5.5633,5.5633,5.5633,5.5633,5.5633,5.5633,5.5633,5.5633,5.5633,6.1171,6.2526,6.4059,6.691,6.6447,6.588,6.8266,6.8017,6.7554,6.8551,7.0225,7.2005,7.3612,7.4498,7.5388,7.6464,7.7783,7.8826,7.9076,8.0932,8.2252,8.2252,8.3594,8.4556,8.4556,8.4556,8.4556,8.4556,8.4556,8.4556,8.4556,8.5519,8.6053,8.6053,8.7051,8.7569,8.723,8.723,8.7176,8.6927,8.5519,8.5198,8.5661,8.4913,8.4556,8.4556,8.4556,8.4556,8.4556,8.4556,8.4556,8.4556,8.4556,8.4556,8.4449,8.3715,8.3073,8.2644,8.2845,8.2859,8.2787,8.3822,8.4271,8.4469,8.3826,8.231,8.0648,8.0033,7.6909,7.3702,7.3702,7.3702,7.3164,7.1007,7.0466,6.9924,6.7811,6.6719,6.4894,6.0851,5.9305,5.8031,5.5913,5.5633,5.5633,5.5633,5.5633,5.5633,5.5633,5.5633,5.5633,5.5633,5.5633,5.5633,5.5633,5.5633,5.5633,5.5633,5.5633,5.5633,5.5633,5.5633,5.5633,5.5633,5.5633,5.5633,5.5633,5.5633,5.5446,5.507,5.507,5.4906,5.971,6.1492,6.3488,6.5841,6.5271,6.4843,6.7695,6.7766,6.7376,6.8266,6.937,7.0688,7.2293,7.3394,7.4498,7.5567,7.7177,7.8398,7.8719,8.0539,8.1847,8.2132,8.3394,8.42,8.452,8.4556,8.4556,8.4556,8.4556,8.4556,8.4556,8.5269,8.5697,8.5697,8.6445,8.6784,8.641,8.6498,8.6356,8.5946,8.5019,8.4806,8.5233,8.477,8.4556,8.4556,8.4556,8.4556,8.452,8.42,8.4093,8.4093,8.4093,8.4271,8.4413,8.3394,8.268,8.2216,8.1931,8.174,8.1918,8.3073,8.3751,8.4128,8.4449,8.3217,8.1611,8.1611,7.9417,7.7296,7.7972,7.7086,7.5697,7.4538,7.3764,7.2777,7.0947,6.9562,6.7748,6.407,6.251,6.0759,5.7845,5.7287,5.6915,5.5727,5.5633,5.5633,5.5633,5.5633,5.5633,5.5633,5.5633,5.5633,5.5633,5.5633,5.5633,5.5633,5.5633,5.5633,5.5633,5.5633,5.5633,5.5633,5.5633,5.5633,5.5633,5.5422,5.5164,5.4812,5.4624,5.4366,5.8141,6.0209,6.2526,6.4879,6.4451,6.4059,6.634,6.6304,6.6447,6.8693,6.8622,6.8622,7.0047,7.1507,7.3109,7.4676,7.6357,7.772,7.8541,0.0,8.1241,8.2096,8.293,8.3751,8.4449,8.4556,8.4556,8.4556,8.4556,8.4556,8.4556,8.5233,8.5625,8.5625,8.6391,8.6338,8.5625,8.5625,8.5269,8.4556,8.4556,8.4556,8.4556,8.4556,8.4556,8.4556,8.4485,8.4449,8.4413,8.3679,8.3322,8.3322,8.3322,8.37,8.42,8.2667,8.2181,8.2073,8.1205,8.0991,8.1276,8.2787,8.3322,8.3537,8.4235,8.3269,8.1874,8.1874,8.0648,7.9681,8.1261,7.9064,7.6409,7.6231,7.4895,7.3674,7.3495,7.1307,6.92,6.8838,6.6509,6.3768,6.0851,6.0205,5.912,5.638,5.5727,5.5633,5.5633,5.5633,5.5633,5.5633,5.5633,5.5633,5.5633,5.5633,5.5633,5.5633,5.5633,5.5633,5.5633,5.5633,5.5633,5.5633,5.5633,5.561,5.5586,5.5117,5.4812,5.4695,5.4296,5.4061,5.6787,5.8177,6.0102,6.2455,6.3667,6.4736,6.6483,6.6732,6.6946,6.8053,6.9156,6.9762,6.9477,7.0723,7.229,7.3857,7.5502,7.682,7.772,7.9183,8.0682,8.2109,8.293,8.3751,8.4449,8.4556,8.4556,8.4556,8.4556,8.4556,8.4556,8.4699,8.4806,8.4806,8.4984,8.4984,8.4806,8.4806,8.4734,8.4556,8.4556,8.4556,8.4556,8.4556,8.4556,8.452,8.3879,8.3679,8.3644,8.2859,8.2537,8.2537,8.2537,8.2644,8.2631,8.1669,8.1312,8.117,8.0468,8.0575,8.1098,8.1455,8.2466,8.3465,8.3644,8.3798,8.3913,8.3913,8.3565,8.2956,8.1874,8.0998,7.9945,7.8535,7.7916,7.7208,7.5697,7.4774,7.3254,6.9562,6.8293,6.681,6.386,6.1471,5.9861,5.912,5.7101,5.5633,5.5633,5.5633,5.5633,5.5633,5.5633,5.5633,5.5633,5.5633,5.5633,5.5633,5.5633,5.5633,5.5633,5.5633,5.5633,5.5633,5.5633,5.5422,5.5023,5.5305,5.4835,5.3686,5.4343,5.4014,5.6809,5.8344,5.9995,6.0886,6.2312,6.3702,6.4558,6.4986,6.5592,6.6699,6.759,6.8443,6.9121,6.9869,7.108,7.2967,7.4926,7.6535,7.7399,7.8576,7.9968,8.1455,0.0,8.318,8.4,8.4306,8.4556,8.4556,8.4556,8.4556,8.4556,8.4556,8.4556,8.4556,8.4556,8.4556,8.4556,8.4556,8.4556,8.4556,8.4556,8.4556,8.4556,8.4556,8.4342,8.395,0.0,8.3215,8.2823,8.1989,8.1633,8.1633,8.1633,8.1633,8.1633,8.1597,8.1348,8.092,8.0182,8.0182,8.0528,8.092,8.1597,8.2502,8.318,8.3715,8.4057,8.4449,8.4556,8.4296,8.3304,8.231,8.1436,8.0384,7.9505,7.8623,7.7562,7.7385,7.6288,7.2806,7.2087,7.0887,6.7055,6.3951,6.2023,6.2023,5.8378,5.61,5.7473,5.6473,5.5633,5.5633,5.5633,5.5633,5.5633,5.5633,5.5633,5.5633,5.5633,5.5633,5.5633,5.5633,5.5633,5.5633,5.5399,5.5117,5.4812,5.4648,5.4041,5.3221,5.3615,5.3334,5.7202,5.9093,6.077,6.0173,6.1029,6.2062,6.2205,6.2811,6.3773,6.5168,6.5734,6.6518,6.8515,6.9085,6.9869,7.197,7.4178,7.6072,7.7185,7.8041,7.9147,8.067,8.1633,8.2573,8.3322,8.4057,8.4556,8.4556,8.4556,8.4556,8.4556,8.4556,8.4556,8.4556,8.4556,8.4556,8.4556,8.4556,8.4556,8.4556,8.4413,8.4378,8.4342,8.4235,8.3807,8.3215,0.0,8.268,8.2038,8.117,8.0849,8.0849,8.0849,8.0849,8.092,8.1597,8.1503,8.0742,8.0147,7.9897,8.0004,8.0717,8.092,8.1276,8.2644,8.3215,8.3537,8.4164,8.4449,8.4556,8.4556,8.3304,8.2048,8.2048,8.0911,7.9681,7.9417,7.9329,7.88,7.6853,7.6498,7.5042,7.0646,6.7419,6.5387,6.5049,6.002,5.7194,5.9768,5.7473,5.5633,5.5633,5.5633,5.5633,5.5633,5.5633,5.5633,5.5633,5.5633,5.5633,5.5633,5.5633,5.5633,5.5633,5.5094,5.4789,5.4695,5.385,5.3334,5.3193,5.2823,5.2612,5.6702,5.8212,6.0137,6.0734,6.1056,6.1349,6.2062,6.2811,6.3631,6.4558,6.5805,6.6804,6.716,6.8336,6.9513,7.0582,7.2112,7.3964,7.6065,7.722,7.8291,7.9897,8.1395,8.2573,8.3322,8.4057,8.4556,8.4556,8.4556,8.4556,8.4556,8.4556,8.4556,8.4556,8.4556,8.4556,8.4556,8.4556,8.4556,8.4556,8.3843,8.3608,8.3572,8.293,8.2537,8.2395,0.0,0.0,8.1134,8.0432,8.0075,8.0075,8.0075,8.0075,8.0111,8.0218,8.0182,8.0075,7.9932,7.9897,7.9932,8.0039,8.0539,8.1063,8.1312,8.2395,8.3429,8.3572,8.4021,8.4556,8.4556,8.4382,8.4087,8.4087,8.3913,8.3217,8.1611,8.1261,8.0648,7.88,7.8447,7.7739,7.5309,7.2506,7.0045,6.8355,6.3153,5.9558,6.002,5.7473,5.5633,5.5633,5.5633,5.5633,5.5633,5.5633,5.5633,5.5633,5.5633,5.5633,5.5633,5.5633,5.5633,5.5633,5.5094,5.4601,5.4178,5.4014,5.3498,5.2588,5.3475,5.3268,5.7606,5.9638,6.1849,6.2169,6.2276,6.2276,6.2241,6.249,6.2847,6.3239,6.3845,6.4736,6.6019,6.7196,6.8622,7.0617,7.1934,7.3359,7.5282,7.6757,7.797,7.9147,8.1039,8.2395,8.2751,8.3807,8.4556,8.4556,8.4556,8.4556,8.4556,8.4556,8.4556,8.4556,8.4556,8.4556,8.4556,8.4556,8.4556,8.4556,8.3786,8.3394,8.3394,8.2609,8.1954,0.0,0.0,0.0,8.0432,8.0039,7.9897,7.9897,7.9897,7.9897,7.9897,7.9897,7.9897,7.9897,7.9897,7.9897,7.9897,7.9897,8.0147,8.0539,8.092,8.1526,8.2252,8.268,8.3358,8.4072,8.4449,8.4556,8.4556,8.4556,8.4556,8.4296,8.3391,8.3217,8.2694,8.0735,8.0384,7.9769,7.7916,7.4296,7.1967,7.2626,6.6782,6.2391,6.2391,5.9835,5.738,5.5727,5.5633,5.5633,5.5633,5.5633,5.5633,5.5633,5.5633,5.5633,5.5633,5.5633,5.5633,5.5633,5.4835,5.4155,5.3639,5.3381,5.2916,5.2471,5.294,5.2982,5.9246,0.0,6.3346,6.3346,6.3346,6.3203,0.0,6.2348,6.2205,6.2205,6.2205,6.2811,6.4807,6.6091,6.773,7.0296,7.1827,7.3109,7.432,7.5894,7.7327,7.8327,8.0539,8.2073,8.2252,8.3451,8.4342,8.452,8.4556,8.4556,8.4556,8.4556,8.4556,8.4556,8.4556,8.4556,8.4556,8.4556,8.4556,8.452,8.3608,8.3144,8.3108,8.2145,8.1395,0.0,0.0,0.0,7.9897,7.9897,7.9897,7.9897,7.9897,7.9897,7.9897,7.9897,7.9897,7.9897,7.9897,7.9897,7.9897,7.9897,7.9897,8.0004,8.0646,8.0884,8.117,8.174,8.268,8.3537,8.4093,8.4413,8.4556,8.4556,8.4556,8.4556,8.4556,8.4556,8.4087,8.2607,8.231,8.1699,7.9857,7.6167,7.4028,7.5754,6.9955,6.5415,6.5415,6.2851,5.9928,5.6915,5.6636,5.638,5.5633,5.6287,5.6636,5.6636,5.6007,5.5633,5.5633,5.5633,5.5586,5.5446,5.4789,5.4061,5.331,5.2705,5.2448,5.2448,5.2448,5.2448,0.0,6.2633,6.3346,6.3346,6.3346,6.3346,6.3274,6.274,0.0,6.2205,6.2205,6.249,6.3381,6.5378,6.7196,6.8124,7.0759,7.2718,7.2824,7.4213,7.5858,7.7435,7.9718,8.1383,8.2096,8.3001,8.3822,8.4485,8.4556,8.4556,8.4556,8.4556,8.4556,8.4556,8.4556,8.4556,8.4556,8.4556,8.4556,8.452,8.2988,8.2275,8.2288,8.0753,8.0039,0.0,0.0,0.0,0.0,7.9897,7.9897,7.9897,7.9897,7.9897,7.9897,7.9897,7.9897,7.9897,7.9897,7.9897,7.9897,7.9897,7.9897,7.9897,7.9968,8.0503,8.1063,8.1098,8.2252,8.3429,8.3465,8.3986,8.4556,8.4556,8.4556,8.4556,8.4556,8.4556,8.4556,8.4382,8.4382,8.3739,8.1786,7.9769,7.7916,7.6231,7.1727,6.8475,6.8475,6.5871,6.2943,6.002,5.9743,5.8656,5.582,5.81,5.9743,5.9743,5.7101,5.5633,5.5633,5.5633,5.5399,5.4882,5.5305,5.4789,5.331,5.2705,5.2448,5.2448,5.2448,5.2448,6.3381,6.4237,6.4843,6.4843,6.4843,6.47,6.4237,6.388,6.356,6.3025,6.2918,6.3167,6.3987,6.5627,6.7303,6.8516,7.0937,7.2824,7.3398,7.4356,7.5602,7.7327,7.9647,8.1348,8.2096,8.2966,8.3751,8.4485,8.4556,8.4556,8.4556,8.4556,8.4556,8.4556,8.4556,8.4556,8.4556,8.4556,8.4556,8.452,8.3501,8.2716,8.2216,8.1146,8.0361,0.0,0.0,0.0,0.0,7.9897,7.9897,7.9897,7.9897,7.9897,7.9897,7.9897,7.9897,7.9897,7.9897,7.9897,7.9897,7.9897,7.9897,7.9897,7.9897,8.0111,8.0468,8.0884,8.1455,8.2025,8.2573,8.293,8.3059,8.3059,8.3451,8.3858,8.3858,8.42,8.4556,8.4556,8.4556,8.4296,8.3565,8.1874,7.9945,7.8093,7.522,7.2267,6.92,6.7811,6.5962,6.3034,6.2759,6.2299,6.1102,6.2115,6.2759,6.2759,6.002,5.8378,5.8378,5.6325,5.5023,5.4835,5.4413,5.3806,5.331,5.2705,5.2448,5.2448,5.2448,5.2448,6.4665,6.5275,6.5734,6.5734,6.5734,6.5592,6.499,6.4705,6.4349,6.3845,6.356,6.3595,6.4349,6.5841,6.7303,6.8587,7.0973,7.286,7.347,7.4391,7.5602,7.7327,7.8969,8.0396,8.1431,8.243,8.3394,8.4093,8.4413,8.4556,8.4556,8.4556,8.4556,8.4556,8.4556,8.4556,8.4556,8.4556,8.4556,8.4556,8.3786,8.3144,8.2609,8.149,8.0742,0.0,0.0,0.0,0.0,7.9897,7.9897,7.9897,7.9897,7.9897,7.9897,7.9897,7.9897,7.9897,7.9897,7.9897,7.9897,7.9897,7.9897,7.9897,7.9897,7.9897,8.0004,8.0492,8.0849,8.117,8.1669,8.1989,8.2252,8.2252,8.2859,8.3394,8.3394,8.4072,8.4556,8.4556,8.4556,8.4556,8.4556,8.2956,8.1158,7.9608,7.729,7.4364,7.0854,6.9931,6.8465,6.5746,6.5474,6.5781,6.646,6.5648,6.5106,6.5106,6.2384,6.0769,6.0769,5.8495,5.7129,5.6957,5.6391,5.6037,5.5667,5.4612,5.4025,5.3857,5.2889,5.2448,6.5306,6.5734,6.5734,6.5734,6.5734,6.5734,6.5734,6.5061,6.4527,6.4527,6.3952,6.3631,6.4385,6.5841,6.716,6.791,7.0652,7.2682,7.2682,7.4035,7.568,7.7327,7.7542,7.8148,7.9754,8.1324,8.2573,8.3358,8.4093,0.0,8.4556,8.4556,8.4556,8.4556,8.4556,8.4556,8.4556,8.4556,8.4556,8.4556,8.3822,8.3429,8.3358,8.174,8.1063,0.0,0.0,0.0,0.0,7.9897,7.9897,7.9897,7.9897,7.9897,7.9897,7.9897,7.9897,7.9897,7.9897,7.9897,7.9897,7.9897,7.9897,7.9897,7.9897,7.9897,7.9897,7.9897,8.0468,8.1027,8.1027,8.1597,8.2252,8.2168,8.2823,8.3394,8.3394,8.4072,8.4556,8.4556,8.4556,8.4556,8.4556,8.2956,8.1423,8.063,7.7408,7.4825,7.3945,7.2288,7.0353,6.8148,6.785,6.8743,7.0926,6.859,6.6891,6.6891,6.4062,6.2462,6.2462,6.2462,6.2191,6.1594,6.2164,6.1865,6.0817,5.864,5.7346,5.6725,5.3857,5.2536,6.5851,6.6774,6.7541,6.6035,6.5734,6.5734,6.5734,6.5556,6.5378,6.5378,6.5199,6.5271,6.6055,6.7053,6.791,6.8694,7.0545,7.2077,7.2611,7.3537,7.5038,7.7256,7.7542,7.8148,7.9754,8.086,8.1918,8.3322,8.4093,8.4556,8.4556,8.4556,8.4556,8.4556,8.4556,8.4556,8.4556,8.4556,8.4556,8.4556,8.4306,8.3879,8.3394,8.293,8.2145,8.1027,8.0777,0.0,0.0,7.9897,7.9897,7.9897,7.9897,7.9897,7.9897,7.9897,7.9897,7.9897,7.9897,7.9897,7.9897,7.9897,7.9897,7.9897,7.9897,7.9897,7.9897,7.9897,8.0075,8.0254,8.0254,8.0432,8.0753,8.1241,8.1954,8.2751,8.3287,8.4072,8.4556,8.4556,8.4556,8.4556,8.4556,8.4087,8.2936,8.0803,7.9577,7.7663,7.4291,7.3416,7.2264,7.0353,6.9726,6.9892,7.1039,7.0341,6.9904,6.9904,6.7155,6.5567,6.5567,6.3204,6.1757,6.1594,6.141,6.1171,6.0817,6.014,5.9792,5.9632,5.8765,5.7372,6.6715,6.6988,6.6908,6.5896,6.5485,6.5275,6.5663,6.5734,6.5805,6.6126,6.6587,6.7033,6.7298,6.8424,6.928,6.9192,7.051,7.1792,7.2575,7.3398,7.4789,7.7256,7.7542,7.8148,7.9754,8.0361,8.1146,8.2395,8.3451,8.4057,8.4057,8.4378,8.4556,8.4556,8.4556,8.4556,8.4556,8.4556,8.4556,8.4556,8.4556,8.4306,8.3807,8.3572,8.2894,8.1918,8.1312,0.0,0.0,8.0039,7.9897,7.9897,7.9897,7.9897,7.9897,7.9897,7.9897,7.9897,7.9897,7.9897,7.9897,7.9897,7.9897,7.9897,7.9897,7.9897,7.9897,7.9897,7.9897,7.9897,7.9897,8.0147,8.0575,8.1312,8.2145,8.2859,8.3322,8.4072,8.4556,8.4556,8.4556,8.4556,8.4556,8.4271,8.3428,8.1502,8.0264,7.8589,7.5553,7.3922,7.2683,7.1904,7.1167,7.0916,7.1324,7.0784,7.0354,7.0354,6.8769,6.7816,6.7816,6.5786,6.4632,6.4632,6.4317,6.4202,6.4202,6.2972,6.2456,6.2456,6.1335,5.9952,6.7698,6.6822,6.52,6.5516,6.5026,6.4705,6.5382,6.5663,6.5948,6.6732,6.7889,6.8726,6.8499,6.9965,7.081,6.983,7.069,7.1792,7.2575,7.347,7.486,7.7256,7.7577,7.822,7.9754,7.9897,8.0218,8.0991,8.2395,8.3215,8.3215,8.395,8.4449,8.4449,8.452,8.4556,8.4556,8.4556,8.4556,8.4556,8.4556,8.4556,8.452,8.3858,8.3465,8.3322,8.1931,0.0,0.0,8.0325,7.9968,7.9897,7.9897,7.9897,7.9897,7.9897,7.9897,7.9897,7.9897,7.9897,7.9897,7.9897,7.9897,7.9897,7.9897,7.9897,7.9897,7.9897,7.9897,7.9897,7.9897,8.0432,8.1098,8.1811,8.268,8.3358,8.3501,8.4021,8.4556,8.4556,8.4556,8.4556,8.4556,8.3965,8.3144,8.2395,8.0115,7.8261,7.7252,7.4294,7.2547,7.3226,7.2339,7.1701,7.1701,7.0133,6.9234,6.9234,6.9234,6.9234,6.9234,6.9234,6.9234,6.9234,6.9234,6.9234,6.9234,6.6625,6.5315,6.5229,6.2856,6.1591,6.6739,6.7879,6.868,6.5568,6.4634,6.4563,6.4741,6.5239,6.5948,6.6732,6.7889,6.9412,7.1346,7.1374,7.155,7.2685,7.21,7.1792,7.2575,7.3893,7.5424,7.7213,7.8077,7.8862,7.979,7.9897,8.0218,8.0991,8.1348,8.1526,8.1526,8.293,8.3679,8.3679,8.42,8.4556,8.4556,8.4556,8.4556,8.4556,8.4556,8.4556,8.4556,8.4378,8.395,8.3394,8.3073,0.0,0.0,8.0849,8.0468,7.9897,7.9897,7.9897,7.9897,7.9897,7.9897,7.9897,7.9897,7.9897,7.9897,7.9897,7.9897,7.9897,7.9897,7.9897,7.9897,7.9897,7.9897,7.9897,7.9897,8.0039,8.0218,8.0361,8.1467,8.2774,8.4021,8.4413,8.4556,8.4556,8.4556,8.4556,8.4556,8.3965,8.3144,8.2395,8.1275,7.9628,7.7417,7.6487,7.6024,7.6228,7.3559,7.1701,7.1701,7.0133,6.9234,6.9234,6.9234,6.9234,6.9234,6.9234,6.9234,6.9234,6.9234,6.9234,6.9234,6.8556,6.8271,6.8301,6.822,6.7054,6.9531,6.9133,6.8277,6.6454,6.5747,6.5565,6.5966,6.7388,6.8897,6.9718,7.093,7.2355,7.3926,7.3421,7.297,7.3759,7.2499,7.1792,7.2575,7.3715,7.5252,7.7213,7.7898,7.8612,7.979,7.9897,8.0075,8.0503,8.0813,8.1027,8.1027,8.1811,8.2644,8.3394,8.3736,8.4164,8.4556,8.4556,8.4556,8.4556,8.4556,8.4342,8.3986,8.4378,8.4093,8.3394,8.3394,0.0,8.2145,8.1348,8.0777,8.0432,8.0039,7.9897,7.9897,7.9897,7.9897,7.9897,7.9897,7.9897,7.9897,7.9897,7.9897,7.9897,7.9897,7.9897,7.9897,7.9897,8.0182,8.0396,8.0004,8.0468,8.0932,8.0575,8.1312,8.2417,8.3237,8.3415,8.3415,8.3415,8.3415,8.3415,8.3415,8.2738,8.2096,8.1704,8.0956,8.0031,7.8619,7.8467,7.8138,7.7231,7.4661,7.2707,7.1785,7.0133,6.9234,6.9234,6.9234,6.9234,6.9234,6.9234,6.9234,6.9234,6.9234,6.9234,6.9234,6.9234,6.9234,6.918,6.952,6.9089,7.2404,7.0398,6.7655,6.8064,6.7659,6.7346,6.7848,6.9994,7.2061,7.2542,7.3879,7.5136,7.5824,7.5327,7.4833,7.4993,7.3949,7.3221,7.3535,7.4431,7.572,7.7192,7.7577,7.8416,8.0191,8.0035,8.006,8.0515,8.1162,8.131,8.0896,8.0813,8.1455,8.2966,8.3001,8.3465,8.4306,8.4342,8.4342,8.4342,8.4342,8.3914,8.3251,8.3843,8.3772,8.3215,8.3358,0.0,8.3108,8.1882,8.1276,8.0956,8.0361,8.0004,7.9897,7.9897,7.9897,7.9897,7.9897,7.9897,7.9897,7.9897,7.9897,7.9897,7.9897,7.9897,7.9897,7.9897,8.0396,8.0789,8.0254,8.1074,8.1811,8.117,8.1633,8.2216,8.2025,8.2096,8.2252,8.2252,8.2252,8.2252,8.2252,8.1562,8.1027,8.1027,8.0432,7.9897,7.9897,7.9897,7.9323,7.7808,7.599,7.4328,7.2791,7.1145,7.008,7.008,6.9826,6.9657,6.9657,6.9319,6.9234,6.9234,6.9234,6.9234,6.9234,6.9234,6.9234,6.918,6.9396,6.9798,7.0531,7.1349,7.1475,7.0536,7.0268,7.0035,6.931,7.0605,7.171,7.0891,7.2392,7.4346,7.6037,7.6214,7.6918,7.9221,7.976,7.9136,7.7211,7.8885,7.933,7.6699,7.764,7.9533,8.1841,8.0768,8.076,8.2959,8.3232,8.2334,8.0121,8.0075,8.0468,8.1312,8.1348,8.2025,8.3572,8.3572,8.3572,8.3572,8.3572,8.318,8.243,8.2453,8.2453,8.2466,8.3108,8.3037,8.2466,8.2894,8.2323,8.1027,8.092,8.0503,7.9897,7.9897,7.9897,7.9897,7.9897,7.9897,7.9897,7.9897,7.9897,7.9897,7.9897,7.9897,7.9897,7.9897,7.9968,8.0218,8.0706,8.1027,8.117,8.1063,8.1633,8.1989,8.1312,8.1704,8.2252,8.2252,8.2252,8.2252,8.2252,8.1562,8.1027,8.1027,8.0432,7.9897,7.9897,7.9897,7.9815,7.9569,7.7891,7.6735,7.6487,7.4827,7.3744,7.3744,7.2289,7.1365,7.1365,6.9964,6.9234,6.9234,6.9234,6.9234,6.9234,6.9234,6.9234,6.918,7.0354,7.091,7.2028,7.2499,7.223,7.1238,7.1836,7.2197,7.0731,7.263,7.4447,7.3461,7.4481,7.6086,7.7899,7.7215,7.7123,7.9352,7.959,7.9183,7.8134,7.9049,7.9905,8.0211,7.8507,7.8493,8.1345,8.141,8.1204,8.0881,8.2131,8.2031,8.0025,8.1248,8.1475,8.0432,8.0777,8.1348,8.2025,8.2966,8.3394,8.3394,8.3394,8.3001,8.2252,8.2252,8.2252,8.2239,0.0,8.3465,8.3487,8.3465,8.3001,8.2359,8.1847,8.1205,8.0575,8.0575,8.0289,7.9897,7.9897,7.9897,7.9897,7.9897,7.9897,7.9897,7.9897,7.9897,7.9897,7.9897,8.0218,8.0575,8.0468,8.111,8.1562,8.1134,8.1633,8.1989,8.1205,8.1312,8.1503,8.1039,8.0932,8.0932,8.0932,8.0646,8.0432,8.0432,8.0111,7.9897,7.9897,7.9897,7.9487,7.8467,7.7644,7.6735,7.5741,7.3994,7.2875,7.2875,7.1313,7.0302,7.0302,6.9573,6.9234,6.9234,6.9234,6.9234,6.9234,6.9234,6.9234,6.9265,6.9767,7.0416,7.3427,7.3471,7.2808,7.2354,7.3323,7.4005,7.2272,7.4347,7.6174,7.4967,7.5537,7.6745,7.8339,7.7485,7.7256,7.9588,8.0035,8.0099,7.9967,8.029,8.0977,8.2046,7.9714,7.877,8.0607,8.1586,8.1443,8.0026,8.2433,8.3201,8.1533,8.3225,8.3139,8.0923,8.1455,8.145,8.0789,8.2061,8.2823,8.2823,8.243,8.2145,8.1882,8.1752,8.1895,8.2239,8.3073,8.3751,8.42,8.3807,8.3608,8.3358,8.2787,8.2073,8.1312,8.1098,8.0635,8.0218,8.0218,8.0075,7.9897,7.9897,7.9897,7.9897,7.9897,7.9897,7.9897,7.9897,8.0325,8.0635,8.0325,8.1217,8.2025,8.1455,8.1918,8.2275,8.149,8.117,8.0849,8.0325,8.0039,7.9897,7.9897,7.9897,7.9897,7.9897,7.9897,7.9897,7.9897,7.9897,7.9405,7.7973,7.7891,7.7148,7.5326,7.3911,7.2875,7.2456,7.0808,6.9826,6.9826,6.9403,6.9234,6.9234,6.9234,6.9234,6.9234,6.9234,6.9242,6.9427,6.9582,7.0292,7.3318,7.4033,7.4167,7.5015,7.5311,7.5099,7.4125,7.4736,7.4967,7.3201,7.3541,7.4518,7.5476,7.6367,7.8085,8.1665,8.3757,8.481,8.4351,8.5048,8.3959,7.9464,8.1362,8.2279,8.0326,8.0726,8.1731,8.3083,0.0,8.7451,8.588,8.5919,8.5165,8.3487,8.3481,8.2305,7.9968,8.0789,8.1134,8.1134,7.9718,7.9672,8.1063,8.0361,8.086,8.2239,8.3073,8.3429,8.3537,8.4164,8.4021,8.3394,8.3358,8.2894,8.2025,8.1312,8.0991,8.0991,8.0991,8.0539,7.9897,7.9897,7.9897,7.9897,7.9897,7.9897,7.9897,7.9897,7.9932,8.0111,8.0777,8.1562,8.2168,8.2132,8.2787,8.3144,8.2359,8.1562,8.1027,8.0991,8.0432,7.9897,7.9897,7.9897,7.9897,7.9897,7.9897,7.9897,7.9897,7.9897,7.9815,7.9733,7.9733,7.8995,7.7148,7.6901,7.6156,7.4411,7.2624,7.1617,7.1617,7.0049,6.9234,6.9234,6.9234,6.9234,6.9234,6.9234,6.9489,7.0138,7.0755,7.1435,7.1656,7.3159,7.4008,7.3753,7.4542,7.5009,7.3541,7.3881,7.422,7.2904,7.3414,7.4288,7.5264,7.6259,7.7765,8.0292,8.2245,8.363,8.4112,8.4081,8.4185,8.4691,8.2992,8.2275,8.3721,8.3488,8.3312,8.3419,8.6043,8.6908,8.5177,8.6723,8.6573,8.4241,8.4896,8.4808,8.3855,8.3114,8.2967,8.3436,8.1245,8.0492,8.0991,8.0254,8.0503,8.1455,8.1824,8.2216,8.2751,8.3537,8.3679,8.3465,8.3914,8.3715,8.2966,8.268,8.1882,8.0956,8.0503,8.0147,7.9897,7.9897,7.9897,8.0004,8.0503,8.0682,8.0789,8.1288,8.1431,8.1467,8.1788,8.243,8.3001,8.3001,8.3522,8.3879,8.318,8.2787,8.243,8.1966,8.161,8.1253,8.0753,8.0682,8.0503,7.9968,7.9897,7.9897,7.9897,7.9897,7.9897,7.9897,7.9897,7.9159,7.7314,7.6073,7.4661,7.2791,7.106,7.0049,7.0049,6.9573,6.9234,6.9234,6.9234,6.9234,6.9234,6.9234,6.9273,6.952,6.9767,7.0446,6.9635,7.1248,7.2607,7.2267,7.3159,7.3779,7.2921,7.3159,7.3414,7.2836,7.3159,7.3881,7.4754,7.5791,7.7085,7.8934,8.0759,8.2415,8.3799,8.3862,8.4411,8.6149,8.43,8.3179,8.4136,8.4832,8.5049,8.4579,8.6345,8.714,8.6274,8.8111,8.817,8.5976,8.6494,8.65,8.5646,8.4849,8.4507,8.4849,8.3753,8.253,8.1122,8.0306,8.0468,8.1419,8.1419,8.1704,8.2239,8.2823,8.3037,8.3073,8.3522,8.3415,8.3001,8.2751,8.1918,8.0956,8.0503,8.0111,7.9897,7.9897,7.9897,8.0004,8.0539,8.0635,8.0742,8.1324,8.1597,8.1811,8.1811,8.2644,8.3394,8.3394,8.4036,8.4413,8.3843,8.3608,8.3251,8.2751,8.243,8.2109,8.149,8.1419,8.1217,8.0432,8.0289,8.0289,8.0289,8.0075,7.9897,7.9897,7.9683,7.877,7.6968,7.5379,7.3844,7.1992,7.0778,7.0195,7.0195,7.0195,6.9945,6.936,6.936,6.9025,6.8439,6.8439,6.8563,6.881,6.881,6.9396,6.7287,6.8403,7.0073,7.0951,7.1206,7.1418,7.2368,7.2581,7.2623,7.2666,7.2708,7.3048,7.3923,7.4797,7.607,7.8062,7.989,8.1651,8.3629,8.4692,8.4641,8.3196,8.5171,8.5151,8.1348,8.4391,8.6661,8.6661,8.751,8.8445,8.9294,9.0155,9.0011,8.8519,8.849,8.7315,8.4785,8.5684,8.5801,8.5096,8.6623,8.5246,8.1328,8.0486,8.0965,8.2349,8.2265,8.2265,8.2265,8.2216,8.2132,8.2132,8.2252,8.2252,8.2096,8.1276,8.0991,8.0991,8.0991,8.0575,7.9897,7.9897,7.9897,7.9897,7.9932,7.9932,7.9932,7.9968,8.0539,8.1063,8.1063,8.2252,8.3394,8.3394,8.3879,8.4485,8.452,8.3965,8.3429,8.3429,8.2859,8.2239,8.2239,8.2288,8.1954,8.117,8.1063,8.1027,8.0991,8.0361,7.9861,7.9825,7.9147,7.7957,7.6092,7.5241,7.4071,7.2216,7.2055,7.2055,7.2055,7.1974,7.1163,6.9536,6.9536,6.8688,6.708,6.708,6.742,6.7985,6.7985,6.847,6.6736,6.696,6.7087,6.8021,6.8276,6.8263,6.8573,6.9677,7.0923,7.1545,7.2777,7.3753,7.4008,7.5409,7.6958,7.8147,7.9273,8.0505,8.1651,8.2628,8.3401,8.3648,8.4873,8.5311,8.4194,8.5075,8.6009,8.6619,8.6916,8.7171,8.7426,8.8317,8.8594,8.8154,8.9456,8.9798,8.9088,8.8187,8.7673,8.7472,8.6029,8.4751,8.3628,8.4155,8.4987,8.5936,8.4071,8.3256,8.313,8.1893,8.1348,8.1419,8.2038,8.2252,8.2109,8.0753,8.0218,8.0218,8.0218,8.0075,7.9897,7.9897,7.9897,8.0004,8.061,8.0706,8.0896,8.1467,8.1788,8.1882,8.1882,8.2252,8.2573,8.2573,8.2751,8.2988,8.3558,8.3572,8.3572,8.4093,8.4021,8.37,8.318,8.3108,8.2823,8.2073,8.1383,8.0635,7.954,7.9219,7.8826,7.8255,7.797,7.7144,7.5344,7.4931,7.4071,7.2216,7.1001,7.0237,7.0237,6.9096,6.8197,6.7737,6.7737,6.7573,6.708,6.708,6.7173,6.7358,6.7358,6.8007,6.4837,6.5219,6.5431,6.6736,6.6736,6.6832,6.8021,6.9181,7.0116,7.0668,7.2182,7.3371,7.2989,7.4772,7.6471,7.7023,7.8594,7.991,8.042,8.1269,8.2203,8.318,8.3434,8.3714,8.4029,8.4071,8.4496,8.5472,8.5924,8.6136,8.6136,8.7001,8.751,8.751,8.8912,8.9603,8.9603,8.9515,8.9394,8.9394,8.8292,8.7239,8.6206,8.6802,8.6231,8.4657,8.2117,8.1078,8.0954,8.0047,7.9611,7.9683,8.0503,8.0789,8.0646,7.9361,7.8898,7.8817,7.8898,7.8898,7.8969,7.929,7.9433,7.9576,8.0361,8.061,8.0717,8.1146,8.1538,8.1704,8.1704,8.1954,8.2252,8.2252,8.2252,8.231,8.2823,8.293,8.3073,8.3451,8.3558,8.3415,8.3001,8.293,8.2787,8.2323,8.1811,8.1063,7.9815,7.9672,7.9433,7.8612,7.8505,7.7996,7.6598,7.5809,7.4809,7.3388,7.2097,7.1207,7.0939,6.996,6.9091,6.8378,6.8378,6.8061,6.7378,6.7378,6.7059,6.6341,6.6703,6.6739,6.1787,6.3019,6.4252,6.5718,6.5601,6.5728,0.0,6.9096,6.9351,6.9479,7.0966,7.197,7.1291,7.3371,7.5136,7.5264,7.7617,7.9401,7.9401,8.025,8.1184,8.1967,8.1396,8.1269,8.2203,8.2221,8.267,8.3587,8.4522,8.5032,8.5032,8.5939,8.6534,8.6534,8.7426,8.7935,8.7935,8.9476,9.0367,9.0452,9.1417,9.0724,8.8548,8.8671,8.6279,8.2,8.004,7.9089,7.8773,7.8457,7.8378,7.8371,7.8808,7.9103,7.92,7.8551,7.8263,7.8104,7.7982,7.7903,7.8046,7.8443,7.8612,7.8755,7.9433,7.9647,7.9647,7.9647,8.0218,8.0777,8.0777,8.1348,8.2002,8.2002,8.2002,8.2038,8.2025,8.2061,8.2145,8.2252,8.2252,8.2252,8.2252,8.2252,8.2216,8.2038,8.2002,8.1633,8.0884,8.0777,8.0421,7.9576,7.9504,7.9183,7.8398,7.6856,7.5602,7.4819,7.3919,7.3132,7.2458,7.2049,7.1115,6.9583,6.9357,6.8569,6.7098,6.7098,6.6338,6.4813,6.5668,6.4831,0.0,0.0,0.0,0.0,0.0,0.0,0.0,6.3784,6.5654,6.6365,6.7979,6.9422,7.0116,7.1901,7.3456,7.422,7.615,7.751,7.751,7.8891,8.0038,8.0207,8.008,8.0335,8.1226,8.1311,8.1396,8.1566,8.2458,8.301,8.301,8.4692,8.5584,8.5584,8.6449,8.6959,8.6959,8.7298,8.785,8.8543,8.8827,8.9005,8.9244,9.0002,8.9821,8.893,8.9342,8.8269,8.6209,8.4092,8.3202,8.3007,8.1324,8.1378,8.255,8.301,8.3202,8.2891,8.0981,8.0354,8.0077,7.832,7.7756,7.7791,7.7934,7.797,7.797,7.797,7.8576,7.9219,7.9219,7.979,8.0361,8.0361,8.0361,8.0539,8.1098,8.1241,8.1455,8.2145,8.2252,8.2252,8.2252,8.2252,8.1824,8.0539,8.0361,8.0075,7.929,7.9219,7.8567,7.7106,7.6963,7.6642,7.578,7.4896,7.3964,7.3181,7.173,7.0838,7.0699,6.8131,6.6349,6.5459,6.4251,6.3165,6.2374,6.2374,6.2149,6.1879,6.2564,6.235,0.0,0.0,0.0,0.0,0.0,0.0,0.0,0.0,0.0,0.0,0.0,6.7639,6.7226,0.0,7.1518,7.1928,7.4025,7.5853,7.685,7.7765,7.836,7.836,7.8721,7.9358,8.0292,8.0377,8.0547,8.1014,8.1481,8.1736,8.1736,8.3095,8.3859,8.3859,8.5287,8.6051,8.6051,8.6449,8.6916,8.7383,8.7383,8.7638,8.8062,8.853,8.8095,8.6898,8.747,8.6247,8.3885,8.2581,8.2292,8.2643,8.2214,8.2253,8.2464,8.2153,8.2019,8.1684,7.9464,7.8631,7.84,7.6779,7.6286,7.6428,7.7292,7.8378,7.9053,7.7903,7.8667,7.9629,7.8432,7.8434,7.8719,7.8719,7.8719,7.8826,7.9219,7.9647,7.9957,8.0432,8.0825,8.1074,8.1074,8.0432,7.9611,7.8826,7.8719,7.8576,7.8184,7.8148,7.7827,7.6927,7.6856,7.6714,7.6321,7.5894,7.5181,7.3928,7.197,7.0714,7.0294,6.8741,6.768,6.7382,6.6201,6.5467,6.5101,6.401,6.3047,6.2246,6.143,6.1288,0.0,0.0,0.0,0.0,0.0,0.0,0.0,0.0,0.0,0.0,0.0,0.0,0.0,0.0,0.0,6.9394,7.1715,7.4136,7.5895,7.598,7.598,7.6363,7.7383,7.8402,7.9103,7.9316,7.974,8.0462,8.0674,8.0802,8.0802,8.1651,8.2094,8.2094,8.3647,8.4522,8.4522,8.5387,8.5939,8.6152,0.0,0.0,8.6661,8.6661,8.5565,8.3756,8.3756,8.2647,8.0927,8.0927,8.1364,8.2026,8.2647,8.2536,8.1957,8.1014,8.0498,8.0093,7.7755,7.7143,7.6973,7.5443,7.5343,7.6086,7.7001,7.861,0.0,7.7867,7.8908,8.0143,7.8302,7.8003,7.822,7.822,7.7903,7.7542,7.7542,7.8041,7.8505,7.8505,7.9005,7.9433,7.9433,7.8362,7.7665,7.814,7.7823,7.7665,7.814,7.7823,7.747,7.7292,7.7292,7.722,7.7078,7.7078,7.6321,7.4676,7.2682,7.1222,7.0653,7.0186,6.9935,6.997,6.8758,6.7875,6.742,6.5519,6.3865,6.2618,6.0914,6.0595,0.0,0.0,0.0,0.0,0.0,0.0,0.0,0.0,0.0,0.0,0.0,0.0,0.0,0.0,0.0,0.0,6.9805,7.197,7.3048,7.2496,7.2565,7.4178,7.6023,7.7128,7.7255,7.802,7.8572,7.8657,7.9401,7.9868,7.9868,0.0,0.0,0.0,0.0,8.1524,8.1524,8.2458,8.3392,8.4309,8.5117,8.5924,8.6661,8.6661,8.6521,8.6311,8.6311,8.617,8.5889,8.5889,8.5931,8.5763,8.34,8.2987,8.3747,8.4428,8.4121,8.3106,8.0682,0.0,0.0,7.6067,7.6633,7.8668,7.691,7.6541,7.6689,7.6392,7.7584,7.893,7.8625,7.9626,8.0667,8.0667,7.9053,7.7542,7.7542,7.7613,7.7684,7.7684,7.772,7.7791,7.7791,7.7649,7.8299,8.0354,7.8895,7.8299,8.0354,7.8852,7.7256,7.6464,0.0,0.0,7.5353,7.5317,7.4641,7.3038,7.2041,7.1507,7.14,6.9378,6.8339,6.8446,6.564,6.3192,6.1099,6.0154,5.9576,5.9432,5.99,5.9505,0.0,0.0,0.0,0.0,0.0,0.0,0.0,0.0,0.0,0.0,0.0,0.0,0.0,0.0,0.0,0.0,6.6917,6.8361,6.9295,7.0059,7.1051,7.231,7.4136,7.53,7.53,7.6089,7.6683,7.6683,7.7532,7.8147,7.8147,7.9443,8.025,8.025,8.0759,8.1057,8.1057,8.1439,8.1863,8.2245,8.2694,8.301,8.3392,8.3392,8.3392,8.3392,8.3392,8.3392,8.3392,8.3392,8.3392,0.0,0.0,0.0,0.0,0.0,8.2118,8.1979,7.9592,7.9053,7.8914,7.6109,7.6492,7.786,7.6829,7.782,7.9069,7.7741,7.8783,7.9952,7.7842,7.7734,7.8257,7.8257,7.7501,7.7122,7.8446,7.9048,7.9537,8.0064,7.9431,0.0,7.6998,7.5635,7.5559,7.7879,7.6209,7.5523,7.7955,7.6209,7.4575,7.4178,7.4142,7.4,7.3679,7.3644,0.0,0.0,0.0,7.1115,7.0189,6.9682,0.0,0.0,0.0,0.0,0.0,0.0,0.0,0.0,5.8582,5.8886,0.0,0.0,0.0,0.0,0.0,0.0,0.0,0.0,0.0,0.0,0.0,0.0,0.0,0.0,0.0,0.0,6.4634,6.5643,6.5506,6.7172,6.8671,6.9351,7.1715,7.3201,7.2947,7.4008,7.467,7.467,7.5579,7.615,7.615,7.766,7.8679,7.8934,7.9635,8.0038,8.0292,8.0547,8.0674,8.0674,8.0929,8.1057,8.1057,8.1057,8.1057,8.1057,8.1057,8.1057,8.1057,8.1057,8.1057,8.0929,7.9783,7.9868,8.0547,7.9655,7.9868,8.0436,7.8548,7.8063,7.7996,7.6365,7.6848,7.7937,7.7286,7.8732,8.0226,7.8554,7.9442,8.0392,7.7742,7.7155,7.7384,7.7614,7.7254,7.7219,7.9083,7.9918,8.0541,8.1239,8.0352,7.911,7.7881,7.5496,7.4728,7.7289,7.5496,0.0,7.7323,7.5096,7.3288,7.3615,7.313,7.2682,7.2682,7.286,7.2468,7.1258,7.1186,7.0403,6.8657,6.9548,6.9691,6.8872,6.7881,6.6617,0.0,0.0,0.0,0.0,0.0,0.0,0.0,0.0,0.0,0.0,0.0,0.0,0.0,0.0,0.0,0.0,0.0,0.0,0.0,0.0,0.0,0.0,0.0,0.0,6.1984,6.3266,6.4507,6.4549,6.8629,7.1093,7.0201,7.1731,7.2793,7.2793,7.3626,7.4178,7.4178,7.5051,7.6046,7.7062,7.7105,7.751,7.8445,7.9273,7.974,7.9783,8.0632,8.1057,8.1057,8.1057,8.1057,8.1057,8.1057,8.1057,8.1057,8.1057,8.1057,8.0844,7.9061,7.8934,7.9613,7.8679,7.8934,7.9613,7.8615,7.8912,7.9288,7.7036,7.8441,8.0508,7.839,7.7831,7.7831,7.7764,7.8442,7.9162,7.9026,7.9581,8.0405,8.1217,7.9767,7.8294,7.9289,7.9523,7.9523,7.9562,7.9192,7.9443,8.1205,7.8771,7.7761,8.1028,7.8701,0.0,8.1087,7.745,7.5015,7.5981,7.406,7.2682,7.2682,7.3434,7.2864,7.0582,7.044,6.937,6.7053,6.8443,6.8836,6.8088,6.6545,6.5014,6.3397,0.0,0.0,0.0,0.0,0.0,0.0,0.0,0.0,0.0,0.0,0.0,0.0,0.0,0.0,0.0,0.0,0.0,0.0,0.0,0.0,0.0,0.0,0.0,0.0,0.0,6.3444,6.3444,6.645,6.8149,6.7269,6.8786,6.9847,6.9847,7.1333,7.2522,7.3116,7.3456,7.4051,7.4985,7.5027,7.5155,7.5494,7.6428,7.7235,7.7893,7.819,7.8657,7.9231,7.9231,7.9231,7.9231,7.9231,7.9231,7.9231,7.9231,7.8127,7.6343,7.5749,7.5707,7.6004,7.6343,7.7023,7.785,7.751,7.7638,7.7682,7.6191,7.6967,7.8106,7.6652,7.7133,7.7971,7.7448,7.837,7.915,7.7724,7.7913,7.8686,7.8971,7.8441,7.8386,8.0168,8.0522,8.0687,8.1305,7.9159,7.7831,7.9651,7.7809,7.7237,8.0405,7.8167,7.7109,7.9662,7.6773,7.4902,7.5856,7.388,7.2524,7.2704,7.1522,7.0189,6.8872,6.88,6.8195,6.691,6.7909,6.7554,6.5738,6.5724,6.5532,6.5144,0.0,0.0,0.0,0.0,0.0,0.0,0.0,0.0,0.0,0.0,0.0,0.0,0.0,0.0,0.0,0.0,0.0,0.0,0.0,0.0,0.0,0.0,0.0,0.0,0.0,0.0,6.2374,6.4327,0.0,6.5219,6.5643,6.6111,6.645,6.7639,6.887,7.0102,7.0484,7.1418,7.3032,7.3074,7.3244,7.3584,7.4178,7.4772,7.5428,7.5768,7.6278,7.6811,7.715,7.7278,7.7278,7.7278,7.7278,7.7278,7.6938,7.5324,7.3074,7.3074,7.2904,7.2692,7.3668,7.439,7.5003,7.5343,7.5428,7.5385,7.507,7.5367,7.581,7.5155,7.5367,7.5834,7.5938,7.6513,7.7092,7.6726,7.6796,7.7145,7.8203,7.8203,7.8513,8.0625,8.0802,8.0462,7.9973,7.8431,7.7458,7.8641,7.7653,7.7511,7.982,7.8442,7.7673,7.9145,7.7162,7.5829,7.6452,7.4439,7.3129,7.3305,7.1257,6.9843,6.987,6.8454,6.7612,6.7535,6.7038,6.6254,6.5085,6.5042,6.5259,0.0,0.0,0.0,0.0,0.0,0.0,0.0,0.0,0.0,0.0,0.0,0.0,0.0,0.0,0.0,0.0,0.0,0.0,0.0,0.0,0.0,0.0,0.0,0.0,0.0,0.0,0.0,6.1008,6.1992,0.0,0.0,0.0,0.0,6.2722,6.2807,6.3657,6.5474,6.6365,6.8051,7.0951,7.1036,7.1503,7.2496,7.2538,7.2581,7.2666,7.3499,7.3966,7.4051,7.4882,7.5306,7.5306,7.5348,7.5306,7.5221,7.4118,7.2692,7.1121,7.1078,7.0484,6.9861,7.0739,7.1078,7.1248,7.2198,7.2496,7.2666,7.3541,7.3881,7.3838,7.3796,7.2649,0.0,0.0,7.3201,7.3261,7.5895,7.5919,7.5985,7.8764,7.8764,7.87,8.0377,8.0122,7.8764,0.0,7.6811,7.8105,7.819,0.0,7.8509,7.9486,7.9613,7.9613,7.9613,7.8548,7.7786,7.7868,7.5888,7.45,7.4607,7.2567,7.1741,7.2877,6.9147,6.7463,6.8554,6.6001,6.4977,6.5872,6.4523,0.0,0.0,0.0,0.0,0.0,0.0,0.0,0.0,0.0,0.0,0.0,0.0,0.0,0.0,0.0,0.0,0.0,0.0,0.0,0.0,0.0,0.0,0.0,0.0,0.0,0.0,5.2056,5.3967,5.7028,5.6939,5.6723,0.0,0.0,0.0,0.0,0.0,0.0,6.3614,6.313,6.42,6.7045,6.713,6.7894,6.9507,7.0286,7.1008,7.1673,7.1928,7.2395,7.3032,7.3286,7.3371,7.3414,7.4136,7.4051,7.3159,7.0144,6.856,6.8106,6.7427,6.7002,6.6844,6.7045,6.7597,6.8318,6.921,6.9507,6.9677,7.0711,7.1051,7.0881,7.0102,0.0,0.0,0.0,0.0,7.1673,7.1731,7.2581,7.3753,7.5197,7.5876,7.6282,7.6748,7.7278,7.7043,0.0,7.4263,7.456,7.59,0.0,0.0,0.0,0.0,7.8636,7.8636,7.8402,7.8438,7.911,7.7192,7.5899,7.5991,7.3934,7.2178,7.1255,6.8866,6.7051,6.6117,6.5256,6.4416,6.3529,0.0,0.0,0.0,0.0,0.0,0.0,0.0,0.0,0.0,0.0,0.0,0.0,0.0,0.0,0.0,0.0,0.0,0.0,0.0,0.0,0.0,0.0,0.0,0.0,0.0,0.0,0.0,4.8107,5.0358,5.367,5.3245,5.3117,0.0,0.0,0.0,0.0,0.0,0.0,0.0,0.0,0.0,6.3138,6.3648,6.4327,6.5389,6.6801,6.7779,6.8331,6.9465,7.0314,7.0824,7.1306,7.1518,7.1518,7.2071,7.0781,6.8374,6.7002,6.5209,6.3384,0.0,0.0,0.0,0.0,6.3563,6.4157,6.5039,6.5336,0.0,6.6589,0.0,0.0,0.0,0.0,0.0,0.0,0.0,0.0,0.0,0.0,7.2522,7.4263,7.4712,7.4924,7.5348,7.4603,7.3346,0.0,7.1928,7.2793,7.2989,0.0,0.0,0.0,0.0,7.7298,7.6065,7.734,7.8402,7.853,7.7784,7.7285,7.7349,7.4869,7.3384,7.3338,7.0163,6.8114,6.7645,6.6391,6.5121,0.0,0.0,0.0,0.0,0.0,0.0,0.0,0.0,0.0,0.0,0.0,0.0,0.0,0.0,0.0,0.0,0.0,0.0,0.0,0.0,0.0,0.0,0.0,0.0,0.0,0.0,0.0,0.0,0.0,4.7895,5.0656,0.0,0.0,0.0,0.0,0.0,0.0,0.0,0.0,0.0,0.0,0.0,0.0,0.0,6.0627,6.0881,6.2807,6.3827,6.3997,6.6365,6.7512,6.7554,6.8459,6.9011,6.9224,6.8841,0.0,6.2841,6.3997,0.0,0.0,0.0,0.0,0.0,0.0,0.0,0.0,0.0,0.0,0.0,0.0,0.0,0.0,0.0,0.0,0.0,0.0,0.0,0.0,0.0,0.0,7.1121,7.3269,7.3668,7.3626,0.0,7.1376,6.8544,6.6651,6.887,0.0,0.0,0.0,0.0,0.0,0.0,0.0,7.2878,7.564,7.7553,7.7062,7.768,7.8147,7.8147,7.5645,7.4771,7.6343,7.206,6.9707,7.0277,6.8143,0.0,0.0,0.0,0.0,0.0,0.0,0.0,0.0,0.0,0.0,0.0,0.0,0.0,0.0,0.0,0.0,0.0,0.0,0.0,0.0,0.0,0.0,0.0,0.0,0.0,0.0,0.0,0.0,0.0,0.0,0.0,0.0,0.0,0.0,0.0,0.0,0.0,0.0,0.0,0.0,0.0,0.0,0.0,0.0,0.0,0.0,0.0,0.0,0.0,0.0,6.2408,6.2621,6.2621,6.2833,6.3775,6.5187,6.2849,6.1737,6.1475,5.877,0.0,0.0,0.0,0.0,0.0,0.0,0.0,0.0,0.0,0.0,0.0,0.0,0.0,0.0,0.0,0.0,0.0,0.0,0.0,0.0,0.0,0.0,0.0,0.0,6.8034,6.9904,0.0,0.0,0.0,0.0,0.0,0.0,0.0,0.0,0.0,0.0,0.0,0.0,7.163,7.3456,7.5324,7.6788,7.7085,7.717,7.717,7.6689,7.5569,7.3601,7.1818,6.9568,0.0,0.0,0.0,0.0,0.0,0.0,0.0,0.0,0.0,0.0,0.0,0.0,0.0,0.0,0.0,0.0,0.0,0.0,0.0,0.0,0.0,0.0,0.0,0.0,0.0,0.0,0.0,0.0,0.0,0.0,0.0,0.0,0.0,0.0,0.0,0.0,0.0,0.0,0.0,0.0,0.0,0.0,0.0,0.0,0.0,0.0,0.0,0.0,0.0,0.0,0.0,0.0,0.0,0.0,0.0,0.0,0.0,0.0,0.0,5.6132,0.0,0.0,0.0,0.0,0.0,0.0,0.0,0.0,0.0,0.0,0.0,0.0,0.0,0.0,0.0,0.0,0.0,0.0,0.0,0.0,0.0,0.0,0.0,0.0,0.0,0.0,0.0,0.0,0.0,0.0,0.0,0.0,0.0,0.0,0.0,0.0,0.0,0.0,0.0,0.0,6.9125,7.1588,7.4051,7.5961,7.6174,7.6174,7.6174,7.53,7.3983,7.2156,7.1111,0.0,0.0,0.0,0.0,0.0,0.0,0.0,0.0,0.0,0.0,0.0,0.0,0.0,0.0,0.0,0.0,0.0,0.0,0.0,0.0,0.0,0.0,0.0,0.0,0.0,0.0,0.0,0.0,0.0,0.0,0.0,0.0,0.0,0.0,0.0,0.0,0.0,0.0,0.0,0.0,0.0,0.0,0.0,0.0,0.0,0.0,0.0,0.0,0.0,0.0,0.0,0.0,0.0,0.0,0.0,0.0,0.0,0.0,0.0,5.5196,0.0,0.0,0.0,0.0,0.0,0.0,0.0,0.0,0.0,0.0,0.0,0.0,0.0,0.0,0.0,0.0,0.0,0.0,0.0,0.0,0.0,0.0,0.0,0.0,0.0,0.0,0.0,0.0,0.0,0.0,0.0,0.0,0.0,0.0,0.0,0.0,0.0,0.0,0.0,0.0,0.0,6.6493,6.9592,7.2565,7.4585,7.4839,7.4839,7.4839,7.3499,7.2156,7.0781,7.0017,0.0,0.0,0.0,0.0,0.0,0.0,0.0,0.0,0.0,0.0,0.0,0.0,0.0,0.0,0.0,0.0,0.0,0.0,0.0,0.0,0.0,0.0,0.0,0.0,0.0,0.0,0.0,0.0,0.0,0.0,0.0,0.0,0.0,0.0,0.0,0.0,0.0,0.0,0.0,0.0,0.0,0.0,0.0,0.0,0.0,0.0,0.0,0.0,0.0,0.0,0.0,0.0,0.0,0.0,0.0,0.0,0.0,0.0,0.0,0.0,0.0,0.0,0.0,0.0,0.0,0.0,0.0,0.0,0.0,0.0,0.0,0.0,0.0,0.0,0.0,0.0,0.0,0.0,0.0,0.0,0.0,0.0,0.0,0.0,0.0,0.0,0.0,0.0,0.0,0.0,0.0,0.0,0.0,0.0,0.0,0.0,0.0,0.0,0.0,0.0,0.0,6.4592,6.7045,6.989,7.2666,7.2963,7.2963,7.2963,7.2836,7.1561,6.887,0.0,0.0,0.0,0.0,0.0,0.0,0.0,0.0,0.0,0.0,0.0,0.0,0.0,0.0,0.0,0.0,0.0,0.0,0.0,0.0,0.0,0.0,0.0,0.0,0.0,0.0,0.0,0.0,0.0,0.0,0.0,0.0,0.0,0.0,0.0,0.0,0.0,0.0,0.0,0.0,0.0,0.0,0.0,0.0,0.0,0.0,0.0,0.0,0.0,0.0,0.0,0.0,0.0,0.0,0.0,0.0,0.0,0.0,0.0,0.0,0.0,0.0,0.0,0.0,0.0,0.0,0.0,0.0,0.0,0.0,0.0,0.0,0.0,0.0,0.0,0.0,0.0,0.0,0.0,0.0,0.0,0.0,0.0,0.0,0.0,0.0,0.0,0.0,0.0,0.0,0.0,0.0,0.0,0.0,0.0,0.0,0.0,0.0,0.0,0.0,0.0,0.0,6.4124,6.6705,6.9507,7.2411,7.1731,7.1306,7.1858,7.0781,6.9168,6.6917,0.0,0.0,0.0,0.0,0.0,0.0,0.0,0.0,0.0,0.0,0.0,0.0,0.0,0.0,0.0,0.0,0.0,0.0,0.0,0.0,0.0,0.0,0.0,0.0,0.0,0.0,0.0,0.0,0.0,0.0,0.0,0.0,0.0,0.0,0.0,0.0,0.0,0.0,0.0,0.0,0.0,0.0,0.0,0.0,0.0,0.0,0.0,0.0,0.0,0.0,0.0,0.0,0.0,0.0,0.0,0.0,0.0,0.0,0.0,0.0,0.0,0.0,0.0,0.0,0.0,0.0,0.0,0.0,0.0,0.0,0.0,0.0,0.0,0.0,0.0,0.0,0.0,0.0,0.0,0.0,0.0,0.0,0.0,0.0,0.0,0.0,0.0,0.0,0.0,0.0,0.0,0.0,0.0,0.0,0.0,0.0,0.0,0.0,0.0,0.0,0.0,0.0,6.3189,6.6153,6.8913,7.1221,7.0838,7.0413,7.0441,6.9507,6.7851,6.5431,0.0,0.0,0.0,0.0,0.0,0.0,0.0,0.0,0.0,0.0,0.0,0.0,0.0,0.0,0.0,0.0,0.0,0.0,0.0,0.0,0.0,0.0,0.0,0.0,0.0,0.0,0.0,0.0,0.0,0.0,0.0,0.0,0.0,0.0,0.0,0.0,0.0,0.0,0.0,0.0,0.0,0.0,0.0,0.0,0.0,0.0,0.0,0.0,0.0,0.0,0.0,0.0,0.0,0.0,0.0,0.0,0.0,0.0,0.0,0.0,0.0,0.0,0.0,0.0,0.0,0.0,0.0,0.0,0.0,0.0,0.0,0.0,0.0,0.0,0.0,0.0,0.0,0.0,0.0,0.0,0.0,0.0,0.0,0.0,0.0,0.0,0.0,0.0,0.0,0.0,0.0,0.0,0.0,0.0,0.0,0.0,0.0,0.0,0.0,0.0,0.0,0.0,6.1221,6.4742,6.7415,6.8361,7.0187,7.0526,6.8616,6.9394,6.8331,0.0,0.0,0.0,0.0,0.0,0.0,0.0,0.0,0.0,0.0,0.0,0.0,0.0,0.0,0.0,0.0,0.0,0.0,0.0,0.0,0.0,0.0,0.0,0.0,0.0,0.0,0.0,0.0,0.0,0.0,0.0,0.0,0.0,0.0,0.0,0.0,0.0,0.0,0.0,0.0,0.0,0.0,0.0,0.0,0.0,0.0,0.0,0.0,0.0,0.0,0.0,0.0,0.0,0.0,0.0,0.0,0.0,0.0,0.0,0.0,0.0,0.0,0.0,0.0,0.0,0.0,0.0,0.0,0.0,0.0,0.0,0.0,0.0,0.0,0.0,0.0,0.0,0.0,0.0,0.0,0.0,0.0,0.0,0.0,0.0,0.0,0.0,0.0,0.0,0.0,0.0,0.0,0.0,0.0,0.0,0.0,0.0,0.0,0.0,0.0,0.0,0.0,0.0,6.0166,6.2714,6.5092,0.0,6.6917,6.679,6.7415,6.662,6.5059,6.2544,0.0,0.0,0.0,0.0,0.0,0.0,0.0,0.0,0.0,0.0,0.0,0.0,0.0,0.0,0.0,0.0,0.0,0.0,0.0,0.0,0.0,0.0,0.0,0.0,0.0,0.0,0.0,0.0,0.0,0.0,0.0,0.0,0.0,0.0,0.0,0.0,0.0,0.0,0.0,0.0,0.0,0.0,0.0,0.0,0.0,0.0,0.0,0.0,0.0,0.0,0.0,0.0,0.0,0.0,0.0,0.0,0.0,0.0,0.0,0.0,0.0,0.0,0.0,0.0,0.0,0.0,0.0,0.0,0.0,0.0,0.0,0.0,0.0,0.0,0.0,0.0,0.0,0.0,0.0,0.0,0.0,0.0,0.0,0.0,0.0,0.0,0.0,0.0,0.0,0.0,0.0,0.0,0.0,0.0,0.0,0.0,0.0,0.0,0.0,0.0,0.0,0.0,0.0,6.1822,6.4167,0.0,6.5643,6.5516,6.5983,6.5314,6.3563,6.0584,0.0,0.0,0.0,0.0,0.0,0.0,0.0,0.0,0.0,0.0,0.0,0.0,0.0,0.0,0.0,0.0,0.0,0.0,0.0,0.0,0.0,0.0,0.0,0.0,0.0,0.0,0.0,0.0,0.0,0.0,0.0,0.0,0.0,0.0,0.0,0.0,0.0,0.0,0.0,0.0,0.0,0.0,0.0,0.0,0.0,0.0,0.0,0.0,0.0,0.0,0.0,0.0,0.0,0.0,0.0,0.0,0.0,0.0,0.0,0.0,0.0,0.0,0.0,0.0,0.0,0.0,0.0,0.0,0.0,0.0,0.0,0.0,0.0,0.0,0.0,0.0,0.0,0.0,0.0,0.0,0.0,0.0,0.0,0.0,0.0,0.0,0.0,0.0,0.0,0.0,0.0,0.0,0.0,0.0,0.0,0.0,0.0,0.0,0.0,0.0,0.0,0.0,0.0,6.1737,6.3997,6.4209,6.5643,6.5941,6.4379,6.4932,6.3393,5.8935,5.7746,0.0,0.0,0.0,0.0,0.0,0.0,0.0,0.0,0.0,0.0,0.0,0.0,0.0,0.0,0.0,0.0,0.0,0.0,0.0,0.0,0.0,0.0,0.0,0.0,0.0,0.0,0.0,0.0,0.0,0.0,0.0,0.0,0.0,0.0,0.0,0.0,0.0,0.0,0.0,0.0,0.0,0.0,0.0,0.0,0.0,0.0,0.0,0.0,0.0,0.0,0.0,0.0,0.0,0.0,0.0,0.0,0.0,0.0,0.0,0.0,0.0,0.0,0.0,0.0,0.0,0.0,0.0,0.0,0.0,0.0,0.0,0.0,0.0,0.0,0.0,0.0,0.0,0.0,0.0,0.0,0.0,0.0,0.0,0.0,0.0,0.0,0.0,0.0,0.0,0.0,0.0,0.0,0.0,0.0,0.0,0.0,0.0,0.0,0.0,0.0,0.0,0.0,5.9487,6.0888,6.3062,6.2332,6.2119,6.3232,6.2119,6.0336,5.7835,5.6815,0.0,0.0,0.0,0.0,0.0,0.0,0.0,0.0,0.0,0.0,0.0,0.0,0.0,0.0,0.0,0.0,0.0,0.0,0.0,0.0,0.0,0.0,0.0,0.0,0.0,0.0,0.0,0.0,0.0,0.0,0.0,0.0,0.0,0.0,0.0,0.0,0.0,0.0,0.0,0.0,0.0,0.0,0.0,0.0,0.0,0.0,0.0,0.0,0.0,0.0,0.0,0.0,0.0,0.0,0.0,0.0,0.0,0.0,0.0,0.0,0.0,0.0,0.0,0.0,0.0,0.0,0.0,0.0,0.0,0.0,0.0,0.0,0.0,0.0,0.0,0.0,0.0,0.0,0.0,0.0,0.0,0.0,0.0,0.0,0.0,0.0,0.0,0.0,0.0,0.0,0.0,0.0,0.0,0.0,0.0,0.0,0.0,0.0,0.0,0.0,0.0,0.0,5.6642,5.8557,6.1362,6.0676,6.0294,6.0973,6.0039,5.8298,5.5538,5.4519,0.0,0.0,0.0,0.0,0.0,0.0,0.0,0.0,0.0,0.0,0.0,0.0,0.0,0.0,0.0,0.0,0.0,0.0,0.0,0.0,0.0,0.0,0.0,0.0,0.0,0.0,0.0,0.0,0.0,0.0,0.0,0.0,0.0,0.0,0.0,0.0,0.0,0.0,0.0,0.0,0.0,0.0,0.0,0.0,0.0,0.0,0.0,0.0,0.0,0.0,0.0,0.0,0.0,0.0,0.0,0.0,0.0,0.0,0.0,0.0,0.0,0.0,0.0,0.0,0.0,0.0,0.0,0.0,0.0,0.0,0.0,0.0,0.0,0.0,0.0,0.0,0.0,0.0,0.0,0.0,0.0,0.0,0.0,0.0,0.0,0.0,0.0,0.0,0.0,0.0,0.0,0.0,0.0,0.0,0.0,0.0,0.0,0.0,0.0,0.0,0.0,0.0,0.0,5.6904,5.919,5.9529,5.9402,5.8765,5.8548,5.6893,5.3287,0.0,0.0,0.0,0.0,0.0,0.0,0.0,0.0,0.0,0.0,0.0,0.0,0.0,0.0,0.0,0.0,0.0,0.0,0.0,0.0,0.0,0.0,0.0,0.0,0.0,0.0,0.0,0.0,0.0,0.0,0.0,0.0,0.0,0.0,0.0,0.0,0.0,0.0,0.0,0.0,0.0,0.0,0.0,0.0,0.0,0.0,0.0,0.0,0.0,0.0,0.0,0.0,0.0,0.0,0.0,0.0,0.0,0.0,0.0,0.0,0.0,0.0,0.0,0.0,0.0,0.0,0.0,0.0,0.0,0.0,0.0,0.0,0.0,0.0,0.0,0.0,0.0,0.0,0.0,0.0,0.0,0.0,0.0,0.0,0.0,0.0,0.0,0.0,0.0,0.0,0.0,0.0,0.0,0.0,0.0,0.0,0.0,0.0,0.0,0.0,0.0,0.0,0.0,0.0,0.0,5.6563,5.7283,5.8001,5.8633,5.8001,5.626,5.3288,0.0,0.0,0.0,0.0,0.0,0.0,0.0,0.0,0.0,0.0,0.0,0.0,0.0,0.0]}],[{"header":{"parameterUnit":"kt","parameterCategory":2,"dx":1,"dy":1,"la1":29.285339999999998,"la2":30.599998999999997,"lo1":-89.70041500000002,"lo2":-87.6738589999976,"nx":112,"ny":82,"refTime":"2022-10-06T12:00:00:Z","depth":0,"parameterNumber":2,"parameterNumberName":"V-component_of_WINDS"},"data":[13.8552,13.8753,0.0,13.6674,13.8015,0.0,13.6137,0.0,13.2947,0.0,0.0,0.0,0.0,0.0,0.0,0.0,0.0,0.0,0.0,12.0008,0.0,0.0,0.0,0.0,0.0,0.0,0.0,0.0,0.0,0.0,0.0,0.0,16.2533,16.2533,16.5463,16.6536,16.5597,16.6536,16.7809,16.9351,17.0759,17.2704,17.5184,17.6056,17.6866,17.7653,17.9611,18.158,18.3262,18.278,18.4466,18.6849,18.2183,18.1729,18.3281,18.1021,18.0333,18.0463,18.069,18.0754,18.0754,18.0754,18.0754,18.0754,18.0754,18.0754,18.0754,18.0754,18.0754,18.0754,18.0754,18.0754,18.0754,18.0754,18.0754,18.0609,17.996,17.9887,17.9671,17.9165,17.9021,17.9021,17.9021,17.9021,17.9454,18.0609,18.0754,18.0754,18.0754,18.0754,18.0754,18.0754,18.0754,18.0754,18.0754,18.0754,18.0754,18.0754,18.0754,18.0465,17.9887,17.9887,17.9598,17.9093,17.801,17.7432,17.7432,17.4255,17.1944,17.0283,16.8044,16.6239,0.0,0.0,13.6875,13.3924,0.0,0.0,0.0,0.0,0.0,0.0,0.0,0.0,0.0,0.0,0.0,0.0,0.0,0.0,0.0,0.0,0.0,0.0,0.0,0.0,0.0,0.0,0.0,0.0,0.0,0.0,0.0,16.193,16.3471,16.4055,16.6469,16.734,16.6334,16.7742,16.8748,16.9284,17.1765,17.3709,17.5117,17.6056,17.6525,17.6678,17.9277,18.0851,18.1544,18.1656,18.3253,18.506,18.1007,18.0597,18.2156,18.044,17.9964,18.0195,18.0496,18.0658,18.0754,18.0754,18.0754,18.0754,18.0754,18.0754,18.0754,18.0754,18.0754,18.0754,18.0754,18.0754,18.0754,18.0754,18.0754,18.0754,18.0754,18.0754,18.0754,18.0754,18.0754,18.0754,18.0754,18.0754,18.0754,18.0754,18.0754,18.0754,18.0754,18.0754,18.0754,18.0754,18.0754,18.0754,18.0754,18.0754,18.0754,18.0754,18.0754,18.0754,18.0754,18.0754,18.0754,18.0754,17.9671,17.9093,17.9093,17.541,17.3027,17.2016,17.086,16.9488,0.0,0.0,0.0,13.0772,0.0,0.0,0.0,0.0,12.4768,0.0,0.0,0.0,0.0,0.0,0.0,0.0,0.0,0.0,0.0,0.0,0.0,0.0,0.0,0.0,0.0,0.0,0.0,0.0,0.0,0.0,16.1239,16.258,16.4055,16.5597,16.7005,16.7742,16.7675,16.9217,17.0692,17.2167,17.3709,17.5184,17.6525,17.6525,17.6525,17.6662,18.0413,18.1261,18.0068,18.2197,18.327,18.345,18.0193,18.0149,18.1572,17.9722,17.9528,18.013,18.0163,18.0463,18.0754,18.0754,18.0754,18.0754,18.0754,18.0754,18.0754,18.0754,18.0754,18.0754,18.0754,18.0754,18.0754,18.0754,18.0754,18.0754,18.0754,18.0754,18.0754,18.0754,18.0754,18.0754,18.0754,18.0754,18.0754,18.0754,18.0754,18.0754,18.0754,18.0754,18.0754,18.0754,18.0754,18.0754,18.0754,18.0754,18.0754,18.0754,18.0754,18.0754,18.0754,18.0754,18.0754,18.0754,18.0754,18.0754,18.0754,17.606,17.3677,17.3677,17.3677,17.281,12.8656,0.0,0.0,0.0,0.0,0.0,0.0,0.0,0.0,0.0,0.0,0.0,0.0,0.0,0.0,0.0,0.0,12.6846,0.0,13.037,0.0,0.0,0.0,0.0,0.0,0.0,0.0,0.0,0.0,16.1641,16.26,16.4189,16.5195,16.5597,16.7005,16.7273,16.62,16.9754,17.1229,17.0558,17.4179,17.6123,17.6525,17.6525,17.6525,17.6509,17.6505,17.7123,17.7986,17.7632,17.8465,17.9687,17.8879,17.8949,17.9375,17.9085,17.9149,17.946,17.9997,18.0228,18.0431,18.069,18.0754,18.0754,18.0754,18.0754,18.0754,18.0754,18.0754,18.0754,18.0754,18.0754,18.0754,18.0754,18.0754,18.0754,18.0754,18.0754,18.0754,18.0754,18.0754,18.0754,18.0754,18.0754,18.0754,18.0754,18.0754,18.0754,18.0754,18.0754,18.0754,18.0754,18.0754,18.0754,18.0754,18.0754,18.0754,18.0754,18.0754,18.0754,18.0754,18.0754,18.0754,18.0754,18.0754,18.0754,18.0754,17.8226,17.6349,17.5266,17.5266,17.4471,12.5304,12.5036,12.5676,0.0,0.0,0.0,12.2658,0.0,11.9337,0.0,0.0,0.0,0.0,0.0,0.0,0.0,12.9297,0.0,0.0,0.0,13.9718,0.0,0.0,0.0,0.0,0.0,0.0,0.0,16.1239,16.2714,16.4189,16.5128,16.5865,16.6469,16.734,16.734,16.6536,17.029,17.1765,17.096,17.4715,17.6525,17.6525,17.6525,17.619,17.5637,17.5601,17.546,17.5375,17.5413,17.6128,17.7249,17.7354,17.7371,17.7481,17.8487,17.8873,17.9115,17.9764,18.0064,18.0228,18.0658,18.0754,18.0754,18.0754,18.0754,18.0754,18.0754,18.0754,18.0754,18.0754,18.0754,18.0754,18.0754,18.0754,18.0754,18.0754,18.0754,18.0754,18.0754,18.0754,18.0754,18.0754,18.0754,18.0754,18.0754,18.0754,18.0754,18.0754,18.0754,18.0754,18.0754,18.0754,18.0754,18.0754,18.0754,18.0754,18.0754,18.0754,18.0754,18.0754,18.0754,18.0754,18.0754,18.0754,18.0754,18.0754,17.9093,17.7793,17.6927,17.6204,17.5049,12.2255,12.1751,12.2488,0.0,12.0981,0.0,0.0,0.0,12.041,12.2121,0.0,12.4701,12.5036,0.0,0.0,0.0,0.0,0.0,13.5131,13.8082,14.173,0.0,0.0,0.0,0.0,15.6881,15.9831,16.1306,16.2781,16.4189,16.553,16.5798,16.6469,16.7742,16.7742,16.7742,16.7742,17.0759,17.2234,17.2234,17.5117,17.6525,17.6525,17.6525,17.5788,17.4682,17.607,17.5134,17.2706,17.4322,17.5059,17.5286,17.5553,17.5748,17.6096,17.7843,17.8698,17.908,17.9423,17.9864,18.0228,18.0658,18.0754,18.0754,18.0754,18.0754,18.0754,18.0754,18.0754,18.0754,18.0754,18.0754,18.0754,18.0754,18.0754,18.0754,18.0754,18.0754,18.0754,18.0754,18.0754,18.0754,18.0754,18.0754,18.0754,18.0754,18.0754,18.0754,18.0754,18.0754,18.0754,18.0754,18.0754,18.0754,18.0754,18.0754,18.0754,18.0754,18.0754,18.0754,18.0754,18.0754,18.0754,18.0754,18.0754,18.0754,18.0754,17.9237,17.8443,17.8226,17.6638,17.5049,11.7326,11.7125,11.7929,0.0,0.0,12.0008,0.0,0.0,0.0,12.7986,12.9662,13.1405,13.3818,0.0,0.0,0.0,0.0,0.0,0.0,14.3607,0.0,0.0,0.0,0.0,0.0,15.9563,16.1306,16.2734,16.4323,16.5329,16.5597,16.6737,16.7474,16.7742,16.7742,16.7742,16.7742,17.0759,17.2234,17.2234,17.5117,17.6525,17.6525,17.6525,17.6391,17.5989,17.4026,17.283,17.2237,17.1638,17.1449,17.1661,17.3166,17.4609,17.6096,17.7843,17.8698,17.908,17.9423,17.9864,18.0228,18.0658,18.0754,18.0754,18.0754,18.0754,18.0754,18.0754,18.0754,18.0754,18.0754,18.0754,18.0754,18.0754,18.0754,18.0754,18.0754,18.0754,18.0754,18.0754,18.0754,18.0754,18.0754,18.0754,18.0754,18.0754,18.0754,18.0754,18.0754,18.0754,18.0754,18.0754,18.0754,18.0754,18.0754,18.0754,18.0754,18.0754,18.0754,18.0754,18.0754,18.0754,18.0754,18.0754,18.0754,18.0754,18.0754,18.0465,17.9598,17.8226,17.6638,17.5049,11.5717,11.5851,0.0,11.6924,0.0,0.0,0.0,12.5944,12.7785,13.0667,13.2478,13.426,13.6473,13.8686,14.0631,14.2173,14.4252,14.5953,14.6758,14.8769,0.0,0.0,0.0,0.0,15.9898,16.1373,16.2513,16.3203,16.4725,16.5932,16.667,16.734,16.7742,16.7742,16.7742,16.7742,16.7742,17.0759,17.2234,17.2234,17.5117,17.6525,17.6525,17.6525,17.6123,17.5318,17.3173,17.1765,17.0992,16.9658,16.9138,16.9351,17.2098,17.3751,17.485,17.7481,17.8698,17.908,17.9423,17.9864,18.0228,18.0658,18.0754,18.0609,17.9743,18.0104,18.0754,18.0754,18.0754,18.0754,18.0754,18.0754,18.0754,18.0754,18.0754,18.0754,18.0754,18.0754,18.0754,18.0754,18.0754,18.0754,18.0754,18.0754,18.0754,18.0754,18.0754,18.0754,18.0754,18.0754,18.0754,18.0754,18.0754,18.0754,18.0754,18.0754,18.0754,18.0754,18.0754,18.0754,18.0754,18.0754,18.0754,18.0754,18.0754,18.0754,18.0754,17.9887,17.866,17.7071,17.5482,17.4327,0.0,0.0,0.0,0.0,12.0544,0.0,12.7553,12.9163,13.0638,13.3483,13.5333,13.6808,13.7948,13.9785,14.1931,14.4344,14.5015,14.6959,15.2121,15.2792,0.0,0.0,0.0,0.0,16.1843,16.3116,16.3806,16.4141,16.5329,16.6536,16.7675,16.7742,16.7742,16.7742,16.7742,16.7876,16.8212,17.0893,17.2368,17.2637,17.5251,17.6525,17.6525,17.6525,17.5855,17.4715,17.2972,17.1497,17.0223,16.848,16.7742,16.8082,17.1421,17.287,17.3585,17.6742,17.838,17.908,17.9423,17.9864,18.0228,18.0297,18.0248,18.0032,17.866,17.9165,18.0321,18.0682,18.0754,18.0754,18.0754,18.0754,18.0754,18.0754,18.0754,18.0754,18.0754,18.0754,18.0754,18.0754,18.0754,18.0754,18.0754,18.0754,18.0754,18.0754,18.0754,18.0754,18.0754,18.0754,18.0754,18.0754,18.0754,18.0754,18.0754,18.0754,18.0754,18.0754,18.0754,18.0754,18.0754,18.0754,18.0754,18.0754,18.0754,18.0609,18.0248,17.8949,17.7288,17.541,17.3821,17.3099,0.0,0.0,0.0,0.0,12.1281,0.0,12.9297,13.3052,13.6741,13.9692,14.1502,14.2575,14.271,14.6087,14.8927,14.9262,15.0512,15.2121,15.4066,15.4334,15.5763,0.0,0.0,0.0,16.486,16.5262,16.5865,16.7206,16.7407,16.7608,16.7742,16.7742,16.7742,16.7742,16.7742,16.8346,16.9687,17.1363,17.2838,17.4179,17.5788,17.6525,17.6525,17.6525,17.6458,17.6123,17.3374,17.21,17.1765,16.8949,16.7742,16.7937,17.0,17.1749,17.3418,17.5475,17.7407,17.908,17.9423,17.9864,18.0012,17.8893,17.8515,17.8515,17.8299,17.8371,17.8876,18.0321,18.0754,18.0754,18.0754,18.0754,18.0754,18.0754,18.0754,18.0754,18.0754,18.0754,18.0754,18.0754,18.0754,18.0754,18.0754,18.0754,18.0754,18.0754,18.0754,18.0754,18.0754,18.0754,18.0754,18.0754,18.0754,18.0754,18.0754,18.0754,18.0754,18.0754,18.0754,18.0754,18.0754,18.0754,18.0754,18.0754,18.0754,18.0032,17.8515,17.8371,17.671,17.3821,17.2233,17.1541,0.0,0.0,11.8868,12.1482,0.0,0.0,13.1979,13.5601,13.8485,13.9692,14.3205,14.5819,14.4881,14.7654,15.0066,15.0066,15.2077,15.42,15.5562,15.6546,15.8155,0.0,0.0,0.0,0.0,16.6402,16.7139,16.7742,16.7742,16.7742,16.7742,16.7742,16.7742,16.7742,16.7742,16.8078,16.8681,17.1027,17.2502,17.3106,17.5452,17.6525,17.6525,17.6525,17.6056,17.5117,17.3106,17.1698,17.0692,16.8614,16.7742,16.7937,16.977,17.0931,17.1767,17.2625,17.4271,17.5991,17.5282,17.6152,17.7387,17.6795,17.6769,17.6927,17.6927,17.7504,17.8371,17.9093,18.0032,18.0754,18.0754,18.0754,18.0754,18.0754,18.0754,18.0754,18.0754,18.0754,18.0754,18.0754,18.0754,18.0754,18.0754,18.0754,18.0754,18.0754,18.0754,18.0754,18.0754,18.0754,18.0754,18.0754,18.0754,18.0754,18.0754,18.0754,18.0754,18.0754,18.0754,18.0754,18.0754,18.0754,18.0754,18.0754,18.0754,17.996,17.8226,17.736,17.5771,17.3532,17.1944,17.1222,11.3236,0.0,0.0,0.0,0.0,0.0,13.379,13.6942,13.9182,14.0053,14.4009,14.705,14.638,14.8659,15.0536,15.0133,15.2546,15.5026,15.6434,15.8645,16.077,16.2245,0.0,0.0,0.0,0.0,0.0,0.0,16.7742,16.7742,16.7742,16.7742,16.7742,16.7742,16.7742,16.8145,16.9016,17.1162,17.2637,17.3441,17.5519,17.6324,17.5922,17.5922,17.5117,17.3709,17.2234,17.0692,16.9217,16.7742,16.7407,16.7821,16.8284,16.9025,16.9841,16.9557,17.1053,17.3079,17.2206,17.3392,17.5282,17.4946,17.5272,17.5916,17.5916,17.6999,17.8371,17.8804,17.9815,18.0754,18.0754,18.0754,18.0754,18.0754,18.0754,18.0754,18.0754,18.0754,18.0754,18.0754,18.0754,18.0754,18.0754,18.0754,18.0754,18.0754,18.0754,18.0754,18.0754,18.0754,18.0754,18.0754,18.0754,18.0754,18.0754,18.0754,18.0754,18.0754,18.0754,18.0754,18.0754,18.0321,18.0248,18.0754,18.0321,17.9454,17.8226,17.6277,17.4471,17.2882,17.1799,17.1222,0.0,0.0,0.0,12.0847,12.5944,13.0974,13.3991,13.6942,13.9785,14.271,14.457,14.6112,14.7587,15.0267,15.1853,15.0335,15.2546,15.5026,15.6434,16.0388,16.372,16.5329,0.0,0.0,0.0,0.0,0.0,0.0,16.7742,16.7742,16.7742,16.7742,16.7742,16.7742,16.7742,16.915,17.2033,17.2167,17.3642,17.6391,17.6458,17.5788,17.4447,17.4447,17.3642,17.2234,17.0625,16.915,16.7742,16.6267,16.6469,16.7474,16.4639,16.5457,16.8204,16.6678,16.8342,17.1369,17.1708,17.3182,17.4741,17.3483,17.4335,17.5916,17.5916,17.6999,17.8587,18.0248,18.0754,18.0754,18.0754,18.0754,18.0754,18.0754,18.0754,18.0754,18.0754,18.0754,18.0754,18.0754,18.0754,18.0754,18.0754,18.0754,18.0754,18.0754,18.0754,18.0754,18.0754,18.0754,18.0754,18.0754,18.0754,18.0754,18.0754,18.0754,18.0754,18.0754,18.0754,18.0754,18.0754,17.9165,17.9093,18.0754,17.9165,17.8299,17.8226,17.5121,17.281,17.1294,17.1252,17.1222,11.518,11.8063,12.1147,12.6078,12.9461,13.2411,13.5467,13.9893,14.3674,14.4637,14.8391,15.1072,14.9597,15.0133,15.1005,15.1474,15.4021,15.6769,15.9295,16.2647,16.5396,16.6871,16.7474,0.0,0.0,0.0,0.0,0.0,0.0,0.0,16.7742,16.7742,16.7742,16.7742,16.7742,16.8681,17.0692,17.0692,17.1698,17.3642,17.3642,17.3374,17.2972,17.2972,17.21,17.0692,17.0156,16.7895,16.4792,16.4208,16.439,16.4678,16.3672,16.3964,16.482,16.3336,16.4996,16.7736,16.6956,16.8853,17.1836,17.254,17.3457,17.476,17.6854,17.7865,17.8587,18.0248,18.0754,18.0754,18.0754,18.0754,18.0754,18.0754,18.0754,18.0754,18.0754,18.0754,18.0104,17.7938,17.931,18.0104,17.7938,17.931,18.0393,17.9237,18.0032,18.0754,18.0754,18.0754,18.0754,18.0754,18.0754,18.0754,18.0754,18.0754,18.0754,18.0754,17.9743,17.9093,17.9093,17.7576,17.6999,17.7504,17.6999,17.6204,17.5121,17.411,17.281,17.1222,17.1222,17.1222,11.7058,12.0276,12.3494,12.8895,13.2075,13.4623,13.7076,14.2199,14.6423,14.6447,14.9865,15.2479,15.1139,15.0871,15.1206,15.2255,15.5696,15.8914,16.0904,16.4189,16.6737,16.7675,16.7742,0.0,0.0,0.0,0.0,0.0,0.0,16.7742,16.7742,16.7742,16.7742,16.7742,16.7742,16.7943,16.8346,16.8346,16.915,17.0625,17.1162,17.1095,17.0625,17.0625,16.9821,16.8346,16.7809,16.5884,16.3203,16.2667,16.2801,16.3136,16.2178,16.2064,16.2332,16.0904,16.2493,16.529,16.4359,16.7,17.0997,17.2235,17.373,17.547,17.7617,17.866,17.9382,18.0465,18.0754,18.0754,18.0754,18.0754,18.0754,18.0754,18.0754,18.0465,17.9237,17.9021,17.8443,17.6349,17.7576,17.8371,17.6277,17.7649,17.866,17.7576,17.8371,17.9021,17.9021,17.9021,17.9021,17.9021,17.9021,17.9021,17.9021,17.9021,17.9021,17.9021,17.801,17.7432,17.7432,17.5916,17.5338,17.5916,17.5338,17.4327,17.2738,17.2738,17.2233,17.1222,17.1222,17.1222,11.632,12.0477,12.4902,12.9297,13.3656,13.721,13.8511,14.3607,14.7922,14.7922,14.9128,15.067,15.2121,15.2389,15.2456,15.2524,15.7284,16.1105,16.1239,16.4927,16.7675,16.7742,16.7742,16.7742,0.0,0.0,0.0,0.0,16.7675,16.7675,16.7675,16.7675,16.7675,16.7675,16.7742,16.7072,16.5597,16.5664,16.6402,16.7675,16.8949,16.8882,16.7541,16.7541,16.6737,16.5329,16.372,16.3069,16.2935,16.1641,16.1843,16.2801,16.0099,15.9831,16.0904,15.9496,16.1176,16.4121,16.4191,16.7628,17.2168,17.2672,17.508,17.7923,17.8276,17.9526,18.0754,18.0754,18.0754,18.0754,18.0754,18.0682,18.0609,18.0609,18.0609,17.9671,17.6565,17.5843,17.5771,17.5699,17.5771,17.5843,17.5699,17.5771,17.5916,17.5771,17.5843,17.5916,17.5916,17.5916,17.5916,17.5916,17.5916,17.5916,17.5916,17.5916,17.5916,17.5916,17.5843,17.5771,17.5771,17.4327,17.4182,17.5627,17.4255,17.2738,17.1222,17.1222,17.1222,17.1222,17.1222,17.1222,11.8331,12.3597,12.7755,13.1003,13.4355,13.6942,13.7345,14.2869,14.7922,14.7922,14.9999,15.192,15.2322,15.2389,15.2792,15.3864,15.715,16.0301,16.2446,16.4725,16.6536,16.7608,16.7742,16.734,0.0,0.0,0.0,0.0,16.6133,16.6133,16.6133,16.6133,16.6133,16.6133,16.7206,16.7072,16.5597,16.667,16.6871,16.6133,16.5329,16.4792,16.4457,16.4457,16.3605,16.2178,16.077,16.0099,16.0099,15.9697,15.9764,16.0032,15.9295,15.9228,15.9496,15.9161,16.1176,16.426,16.541,16.858,17.2493,17.5223,17.6878,17.8139,17.9647,18.0393,18.0754,18.0754,18.0754,18.0754,18.0754,17.9815,17.8876,17.8876,17.801,17.6927,17.606,17.4977,17.3821,17.2666,17.4327,17.5193,17.281,17.4399,17.5554,17.4327,17.5193,17.5916,17.5916,17.5916,17.5916,17.5916,17.5916,17.5916,17.5916,17.5916,17.5916,17.5916,17.4832,17.4182,17.4182,17.2666,17.2016,17.2449,17.2016,17.1655,17.1222,17.1222,17.1222,17.1222,17.1222,17.1222,11.8734,12.5139,13.0705,13.3617,13.6031,13.8015,13.8686,14.4009,14.8659,14.8056,14.9262,15.0603,15.1206,15.192,15.2658,15.3462,15.6077,15.878,16.1105,16.2714,16.4189,16.5597,16.5798,16.5463,16.4658,0.0,0.0,0.0,16.4591,16.4591,16.4591,16.5262,16.5597,16.5597,16.7005,16.7072,16.5597,16.5731,16.5061,16.3653,16.2781,16.2332,16.2332,16.2332,16.1528,16.0166,15.9362,15.9027,15.9027,15.9027,15.9027,15.9027,15.9027,15.9027,15.9027,15.9027,16.1176,16.433,16.5827,16.9205,17.326,17.6304,17.7896,17.8879,18.0337,18.0754,18.0754,18.0754,18.0754,18.0609,17.9887,17.8949,17.8082,17.736,17.6565,17.5554,17.4182,17.3171,17.2305,17.1438,17.2666,17.3316,17.1613,17.2666,17.3532,17.2666,17.3316,17.3821,17.3821,17.3821,17.3821,17.3821,17.3821,17.3821,17.3821,17.3821,17.3821,17.3821,17.3027,17.2521,17.2521,17.1727,17.1222,17.1222,17.1222,17.1222,17.1222,17.1222,17.1222,17.1222,17.1222,17.1222,11.9002,12.5639,13.2276,13.5427,13.7479,13.9088,14.0429,14.5082,14.886,14.7855,14.7788,14.8391,14.9798,15.134,15.2389,15.2389,15.4669,15.697,15.8759,16.0099,16.1507,16.3069,16.327,16.3203,16.3002,0.0,0.0,0.0,16.3002,16.3002,16.3002,16.4457,16.5329,16.5329,16.6871,16.7072,16.5597,16.4055,16.2533,16.1172,16.0971,16.0837,16.0837,16.0837,16.0166,15.9027,15.9027,15.9027,15.9027,15.9027,15.9027,15.9027,15.9027,15.9027,15.9027,15.9027,16.1001,16.3968,16.578,16.9454,17.3819,17.6329,17.8279,17.9764,18.0496,18.0577,18.0465,18.0465,18.0248,17.9743,17.8299,17.7793,17.7288,17.5916,17.5482,17.4543,17.1799,17.1222,17.1222,17.1222,17.1222,17.1222,17.1222,17.1222,17.1222,17.1222,17.1222,17.1222,17.1222,17.1222,17.1222,17.1222,17.1222,17.1222,17.1222,17.1222,17.1222,17.1222,17.1222,17.1222,17.1222,17.1222,17.1222,17.1222,17.1222,17.1222,17.1222,17.1222,17.1222,17.1222,17.1222,17.1222,12.2488,12.5773,12.7919,13.2075,13.5159,13.7277,13.7546,14.1234,14.4881,14.5844,14.705,14.8391,14.9798,15.134,15.2389,15.2389,15.3864,15.5876,15.8624,15.9228,16.0368,16.2935,16.327,16.2801,16.1641,16.258,0.0,0.0,0.0,16.1507,16.1507,16.2868,16.372,16.372,16.6334,16.7072,16.5597,16.4055,16.2533,16.1172,15.9965,15.9362,15.9362,15.9362,15.9228,15.9027,15.9027,15.9027,15.9027,15.9027,15.9027,15.9027,15.9027,15.9027,15.9027,15.9027,16.0275,16.2394,16.5133,16.8516,17.2236,17.5439,17.7882,17.9731,18.013,17.9519,17.866,17.866,17.7721,17.671,17.6421,17.5338,17.4327,17.4038,17.3027,17.1871,17.1366,17.1222,17.1222,17.1222,17.1222,17.1222,17.1222,17.1222,17.1222,17.1222,17.1222,17.1222,17.1222,17.1222,17.1222,17.1222,17.1222,17.1222,17.1222,17.1222,17.1222,17.1222,17.1222,17.1222,17.1222,17.1222,17.1222,17.1222,17.1222,17.1222,17.1222,17.1222,17.1222,17.1222,17.1222,17.1222,12.0946,12.517,12.8388,12.9833,13.2985,13.6137,13.7613,14.0832,14.3648,14.4344,14.4478,14.5417,14.8391,14.953,15.0311,15.1005,15.1742,15.2948,15.5272,15.6211,15.7485,15.9584,16.0522,16.077,16.0099,16.0703,16.077,0.0,0.0,16.0032,16.0032,16.2064,16.327,16.327,16.62,16.7407,16.6737,16.5262,16.3787,16.2198,16.0837,15.9764,15.9027,15.9027,15.9027,15.9027,15.9027,15.9027,15.9027,15.9027,15.9027,15.9027,15.9027,15.9027,15.9027,15.9027,16.0052,16.1949,16.4996,16.7648,17.0374,17.3848,17.5734,17.6777,17.7373,17.7255,17.685,17.7008,17.6493,17.5699,17.4905,17.411,17.3388,17.2521,17.1799,17.1222,17.1222,17.1222,17.1222,17.1222,17.1222,17.1222,17.1222,17.1222,17.1222,17.1222,17.1222,17.1222,17.1222,17.1222,17.1222,17.1222,17.1222,17.1222,17.1222,17.1222,17.1222,17.1222,17.1222,17.1222,17.1222,17.1222,17.1222,17.1222,17.1222,17.1222,17.1222,17.1222,17.1222,17.1222,17.1222,17.1222,12.0343,12.5304,12.9699,12.9163,13.1443,13.4595,13.7774,14.0362,14.224,14.2911,14.2106,14.2575,14.6648,14.7654,14.8257,14.9396,14.9865,15.0603,15.2188,15.3619,15.5026,15.6501,15.8088,15.9027,15.9027,15.9027,15.9027,15.9027,0.0,0.0,15.9027,16.1776,16.327,16.327,16.62,16.7742,16.7742,16.6334,16.486,0.0,16.1843,16.0435,15.9027,15.9027,15.9027,15.9027,15.9027,15.9027,15.9027,15.9027,15.9027,15.9027,15.9027,15.9027,15.9027,15.9027,15.985,16.1453,16.4377,16.6358,16.8066,17.1515,17.273,17.3103,17.3955,17.4103,17.4152,17.4577,17.465,17.4232,17.3006,17.2873,17.2738,17.151,17.1222,17.1222,17.1222,17.1222,17.1222,17.1222,17.1222,17.1222,17.1222,17.1222,17.1222,17.1222,17.1222,17.1222,17.1222,17.1222,17.1222,17.1222,17.1222,17.1222,17.1222,17.1222,17.1222,17.1222,17.1222,17.1222,17.1222,17.1222,17.1222,17.1222,17.1222,17.1222,17.1222,17.1222,17.1222,17.1222,17.1222,17.1222,12.5407,12.7822,12.8895,13.1338,13.1271,13.1778,13.607,13.7277,13.8216,14.0966,14.1435,14.2199,14.5241,14.6983,14.7922,14.8123,14.9195,15.0603,15.2188,15.3619,15.5026,15.6501,15.8088,15.9027,15.9027,15.9027,15.9027,15.9027,15.9027,0.0,15.9027,16.1776,16.327,16.327,16.62,16.7742,16.7742,16.6334,16.486,16.327,16.1843,16.0435,15.9027,15.9027,15.9027,15.9027,15.9027,15.9027,15.9027,15.9027,15.9027,15.9027,15.9027,15.9027,15.9027,15.9027,15.9052,15.9638,16.2479,16.3884,16.4823,16.7832,16.9224,16.9906,17.0755,17.027,16.9555,17.0521,17.0497,17.0052,16.9909,17.0686,17.1438,17.1294,17.1222,17.1222,17.1222,17.1222,17.1222,17.1222,17.1222,17.1222,17.1222,17.1222,17.1222,17.1222,17.1222,17.1222,17.1222,17.1222,17.1222,17.1222,17.1222,17.1222,17.1222,17.1222,17.1222,17.1222,17.1222,17.1222,17.1222,17.1222,17.1222,17.1222,17.1222,17.1222,17.1222,17.1222,17.1222,17.1222,17.1222,17.1222,12.1415,12.534,12.8157,12.8321,12.8656,12.9632,13.2248,13.3483,13.5266,13.9155,13.9222,13.9826,14.3607,14.5509,14.6849,14.7788,14.9128,15.0267,15.0871,15.3015,15.4758,15.5294,15.7552,15.9027,15.9027,15.9027,15.9027,15.9027,15.9027,15.9027,0.0,16.1776,16.327,16.327,16.62,16.7742,16.7742,16.7206,16.62,16.4658,16.3183,16.1708,16.0301,15.9429,15.9027,15.9027,15.9027,15.9027,15.9027,15.9027,15.9027,15.9027,15.9027,15.9027,15.9027,15.9027,15.8423,15.8021,16.0924,16.1549,16.1426,16.433,16.5574,16.6017,16.66,16.693,16.7194,16.7747,16.8217,16.862,16.9328,16.9856,17.0017,16.9328,16.9195,16.9361,17.0049,17.0177,17.0438,17.113,17.1222,17.1222,17.1222,17.1222,17.1222,17.1222,17.1222,17.1222,17.1222,17.1222,17.1222,17.1222,17.1222,17.1222,17.1222,17.1222,17.1222,17.1222,17.1222,17.1222,17.1222,17.1222,17.1222,17.1222,17.1222,17.1222,17.1222,17.1222,17.1222,17.1222,17.1222,17.1222,11.813,12.222,12.5743,12.6779,12.7248,12.7822,12.9297,12.9662,13.1137,13.6031,13.6567,13.7412,14.1435,14.3339,14.4973,14.6916,14.8458,14.9597,14.9999,15.2613,15.449,15.449,15.7217,15.9027,15.9027,15.9027,15.9027,15.9027,15.9027,15.9027,15.9027,16.1776,16.327,16.327,16.62,16.7541,16.7139,16.7139,16.6402,16.4927,16.3385,16.2111,16.1105,15.9697,15.9027,15.9027,15.9027,15.9027,15.9027,15.9027,15.9027,15.9027,15.9027,15.9027,15.896,15.849,15.7619,15.7037,15.963,15.9563,15.8826,16.1708,16.2502,16.2365,16.2979,16.3855,16.4792,16.5302,16.6351,16.7474,16.835,16.8521,16.8419,16.7861,16.7756,16.8036,16.8789,16.9261,16.9759,17.0595,17.1039,17.1222,17.1222,17.1222,17.1222,17.1222,17.1222,17.1222,17.1222,17.1222,17.1222,17.1222,17.1222,17.1222,17.1222,17.1222,17.1222,17.1222,17.1222,17.1222,17.1222,17.1222,17.1222,17.1222,17.1222,17.1222,17.1222,17.1222,17.1222,17.1222,17.1222,17.1222,11.7594,11.9203,12.1013,12.8321,12.7986,12.6176,12.7755,12.581,12.5371,13.1204,13.3656,13.5601,13.8511,14.0295,14.2266,14.5174,14.6916,14.8458,14.9865,15.2613,15.449,15.449,15.7217,15.9027,15.9027,15.9027,15.9027,15.9027,15.9027,15.9027,15.9027,16.1776,16.327,16.327,16.62,16.7072,16.5664,16.5664,16.486,16.327,16.1796,16.1172,16.1105,15.9697,15.9027,15.9027,15.9027,15.9027,15.9027,15.9027,15.9027,15.9027,15.9027,15.9027,15.8826,15.7238,15.6702,15.6903,15.849,15.8021,15.7171,16.0234,16.0234,15.9257,16.0142,16.105,16.1959,16.2888,16.4647,16.6226,16.6226,16.6226,16.6454,16.7545,16.7756,16.7756,16.7756,16.8688,16.9492,16.9492,17.047,17.1222,17.1222,17.1222,17.1222,17.1222,17.1222,17.1222,17.1222,17.1222,17.1222,17.1222,17.1222,17.1222,17.1222,17.1222,17.1222,17.1222,17.1222,17.1222,17.1222,17.1222,17.1222,17.1222,17.1222,17.1222,17.1222,17.1222,17.1222,17.1222,17.1222,17.1222,11.5046,11.7594,12.0477,12.584,12.4969,12.4066,12.8559,12.809,12.7218,12.9096,13.2248,13.5601,13.8444,14.0295,14.1972,14.3808,14.6289,14.8056,14.8525,15.201,15.449,15.449,15.7217,15.9027,15.9027,15.9027,15.9027,15.9027,15.9027,15.9027,15.9027,16.0837,16.1843,16.1843,16.372,16.4477,16.4055,16.4055,16.3739,16.327,16.0837,16.0234,16.1105,15.9697,15.9027,15.9027,15.9027,15.9027,15.9027,15.9027,15.9027,15.9027,15.9027,15.9027,15.8826,15.7238,15.6032,15.5227,15.5809,15.5629,15.5495,15.7439,15.849,15.9073,15.9327,16.003,16.0874,16.1181,16.2611,16.4089,16.4089,16.4089,16.433,16.5273,16.5505,16.5734,16.6528,16.6968,16.7686,16.9195,16.9824,17.0344,17.113,17.1222,17.1222,17.1222,17.1222,17.1222,17.1222,17.1222,17.1222,17.1222,17.1222,17.1222,17.1222,17.1222,17.1222,17.1222,17.1222,17.1222,17.1222,17.1222,17.1222,17.1222,17.1222,17.1222,17.1222,17.1222,17.0644,16.9488,16.9488,16.8983,11.2298,11.565,11.9404,12.3829,12.2756,12.1952,12.7315,12.7449,12.6883,12.8559,13.0638,13.312,13.5964,13.8216,14.0295,14.2307,14.5149,14.7251,14.7855,15.1273,15.3931,15.4468,15.6635,15.8356,15.896,15.9027,15.9027,15.9027,15.9027,15.9027,15.9027,16.0368,16.1172,16.1172,16.258,16.3002,16.2513,16.2466,16.2198,16.1641,15.9898,15.9496,16.0301,15.9429,15.9027,15.9027,15.9027,15.9027,15.896,15.8356,15.8155,15.8155,15.8155,15.849,15.8759,15.6635,15.5294,15.4423,15.3887,15.373,15.4066,15.6032,15.7305,15.8222,15.8826,15.9646,16.0387,16.0387,16.1485,16.2511,16.2104,16.2527,16.3262,16.3795,16.4228,16.4667,16.5382,16.5887,16.6635,16.8003,16.859,16.9228,17.0407,17.0595,17.072,17.1191,17.1222,17.1222,17.1222,17.1222,17.1222,17.1222,17.1222,17.1222,17.1222,17.1222,17.1222,17.1222,17.1222,17.1222,17.1222,17.1222,17.1222,17.1222,17.1222,17.1222,17.1222,17.0572,16.9777,16.8694,16.8116,16.7322,10.9348,11.3236,11.7594,12.2019,12.1214,12.0477,12.4768,12.4701,12.4969,12.9192,12.923,12.923,13.174,13.4662,13.768,14.0631,14.3607,14.5978,14.752,0.0,15.2792,15.4401,15.5763,15.7305,15.8826,15.9027,15.9027,15.9027,15.9027,15.9027,15.9027,16.0301,16.1038,16.1038,16.2265,16.2379,16.1038,16.1038,16.0368,15.9027,15.9027,15.9027,15.9027,15.9027,15.9027,15.9027,15.8893,15.8826,15.8759,15.7171,15.6501,15.6501,15.6501,15.7418,15.8356,15.5473,15.4356,15.4155,15.2725,15.2322,15.2859,15.5495,15.6501,15.6903,15.8423,15.9533,16.0254,16.0254,16.0874,16.1355,16.0565,16.1658,16.293,16.3013,16.3632,16.4268,16.4348,16.5227,16.6038,16.6188,16.6971,16.8036,16.9195,16.9426,16.9888,17.0977,17.1191,17.1222,17.1222,17.1222,17.1222,17.1222,17.1222,17.1222,17.1222,17.1222,17.1222,17.1222,17.1222,17.1222,17.1222,17.1222,17.1222,17.1222,17.1222,17.1149,17.1077,16.9633,16.8694,16.8333,16.7105,16.6383,10.68,10.9415,11.3035,11.746,11.9739,12.1751,12.5036,12.5505,12.5907,12.8157,13.0064,13.1204,13.0839,13.3187,13.6137,13.9088,14.1998,14.4478,14.5978,14.8726,15.1541,15.4222,15.5763,15.7305,15.8826,15.9027,15.9027,15.9027,15.9027,15.9027,15.9027,15.9295,15.9496,15.9496,15.9831,15.9831,15.9496,15.9496,15.9362,15.9027,15.9027,15.9027,15.9027,15.9027,15.9027,15.896,15.7753,15.7171,15.7104,15.5629,15.5026,15.5026,15.5026,15.5227,15.5406,15.3596,15.2926,15.2658,15.1139,15.134,15.2524,15.3194,15.4892,15.6769,15.7104,15.8225,15.9281,15.9281,15.9464,15.9782,16.0254,16.0698,16.1225,16.1916,16.2215,16.2553,16.3262,16.3603,16.429,16.5887,16.6413,16.6932,16.8002,16.889,16.9629,16.9888,17.0658,17.1222,17.1222,17.1222,17.1222,17.1222,17.1222,17.1222,17.1222,17.1222,17.1222,17.1222,17.1222,17.1222,17.1222,17.1222,17.1222,17.1222,17.1222,17.0572,16.9344,17.0211,16.8766,16.5228,16.725,16.6239,10.6702,10.9584,11.2834,11.451,11.7192,11.9806,12.1415,12.222,12.336,12.5609,12.7285,12.8723,12.9997,13.1577,13.3857,13.7412,14.11,14.3942,14.5375,14.7587,15.02,15.3194,0.0,15.6233,15.7774,15.8557,15.9027,15.9027,15.9027,15.9027,15.9027,15.9027,15.9027,15.9027,15.9027,15.9027,15.9027,15.9027,15.9027,15.9027,15.9027,15.9027,15.9027,15.9027,15.8624,15.7887,0.0,15.63,15.5562,15.42,15.3529,15.3529,15.3529,15.3529,15.3529,15.3462,15.2993,15.2188,15.0603,15.0603,15.1451,15.2188,15.3462,15.4959,15.6233,15.7238,15.8088,15.8826,15.9027,15.9165,15.96,16.003,16.0476,16.1006,16.1442,16.1873,16.2384,16.2469,16.2903,16.4489,16.4805,16.5242,16.6752,16.7967,16.8688,16.8688,17.0145,17.1069,17.0533,17.0946,17.1222,17.1222,17.1222,17.1222,17.1222,17.1222,17.1222,17.1222,17.1222,17.1222,17.1222,17.1222,17.1222,17.1222,17.0499,16.9633,16.8694,16.8189,16.6629,16.4101,16.5011,16.4144,10.7439,11.0992,11.4142,11.3169,11.4778,11.6722,11.6991,11.813,11.994,12.2725,12.3628,12.5103,12.8857,12.993,13.1577,13.5534,13.9692,14.307,14.4973,14.6581,14.8659,15.1719,15.3529,15.5093,15.6501,15.8088,15.9027,15.9027,15.9027,15.9027,15.9027,15.9027,15.9027,15.9027,15.9027,15.9027,15.9027,15.9027,15.9027,15.9027,15.8759,15.8692,15.8624,15.8423,15.7619,15.63,0.0,15.5294,15.4088,15.2658,15.2054,15.2054,15.2054,15.2054,15.2188,15.3462,15.3082,15.1853,15.0536,15.0066,15.0267,15.1608,15.2188,15.2859,15.5227,15.63,15.6903,15.8289,15.8826,15.9027,15.9027,15.96,16.0164,16.0164,16.0742,16.1355,16.1485,16.1529,16.1787,16.2721,16.2888,16.3481,16.5428,16.6605,16.7332,16.7545,16.9492,17.0626,16.9661,17.0533,17.1222,17.1222,17.1222,17.1222,17.1222,17.1222,17.1222,17.1222,17.1222,17.1222,17.1222,17.1222,17.1222,17.1222,16.9561,16.8622,16.8333,16.5733,16.4144,16.3711,16.2873,16.2223,10.6501,10.9482,11.3102,11.4075,11.4678,11.5382,11.6722,11.813,11.9672,12.1415,12.3762,12.5639,12.631,12.8522,13.0906,13.2746,13.5802,13.9289,14.3246,14.504,14.705,15.0066,15.2881,15.5093,15.6501,15.8088,15.9027,15.9027,15.9027,15.9027,15.9027,15.9027,15.9027,15.9027,15.9027,15.9027,15.9027,15.9027,15.9027,15.9027,15.7686,15.7037,15.697,15.5763,15.5026,15.4758,0.0,0.0,15.2591,15.1072,15.0402,15.0402,15.0402,15.0402,15.0469,15.067,15.0603,15.0402,15.0133,15.0066,15.0133,15.0335,15.1273,15.2456,15.2926,15.4758,15.6702,15.697,15.8021,15.9027,15.9027,15.9119,15.919,15.919,15.9281,15.9646,16.0387,16.0565,16.0874,16.1787,16.1959,16.23,16.3358,16.4538,16.5518,16.6305,16.835,16.9655,16.9492,17.0533,17.1222,17.1222,17.1222,17.1222,17.1222,17.1222,17.1222,17.1222,17.1222,17.1222,17.1222,17.1222,17.1222,17.1222,16.9561,16.8044,16.6744,16.6239,16.465,16.2151,16.4578,16.4246,10.8342,11.2163,11.632,11.6924,11.7125,11.7125,11.7058,11.7527,11.8197,11.8935,12.0075,12.1751,12.4164,12.6377,12.9058,13.2985,13.5467,13.8149,14.1771,14.4168,14.6447,14.8659,15.2211,15.4758,15.5428,15.7619,15.9027,15.9027,15.9027,15.9027,15.9027,15.9027,15.9027,15.9027,15.9027,15.9027,15.9027,15.9027,15.9027,15.9027,15.7372,15.6635,15.6635,15.516,15.4133,0.0,0.0,0.0,15.1072,15.0335,15.0066,15.0066,15.0066,15.0066,15.0066,15.0066,15.0066,15.0066,15.0066,15.0066,15.0066,15.0066,15.0536,15.1273,15.2188,15.3328,15.449,15.5294,15.6568,15.7908,15.8826,15.9027,15.9027,15.9027,15.9027,15.9165,15.9555,15.9646,15.9917,16.083,16.1006,16.1312,16.2215,16.3738,16.4775,16.4568,16.6862,16.8552,16.8552,16.9557,17.0564,17.1191,17.1222,17.1222,17.1222,17.1222,17.1222,17.1222,17.1222,17.1222,17.1222,17.1222,17.1222,17.1222,16.8766,16.6672,16.5083,16.4289,16.3162,16.179,16.3235,16.3061,11.1426,0.0,11.9136,11.9136,11.9136,11.8868,0.0,11.7259,11.6991,11.6991,11.6991,11.813,12.1885,12.4298,12.7382,13.2382,13.5266,13.768,13.996,14.2735,14.5241,14.7117,15.1273,15.4155,15.449,15.6948,15.8624,15.896,15.9027,15.9027,15.9027,15.9027,15.9027,15.9027,15.9027,15.9027,15.9027,15.9027,15.9027,15.896,15.7037,15.6166,15.6099,15.4289,15.2881,0.0,0.0,0.0,15.0066,15.0066,15.0066,15.0066,15.0066,15.0066,15.0066,15.0066,15.0066,15.0066,15.0066,15.0066,15.0066,15.0066,15.0066,15.0267,15.1474,15.2121,15.2658,15.373,15.5294,15.6903,15.8155,15.8759,15.9027,15.9027,15.9027,15.9027,15.9027,15.9027,15.919,15.9962,16.003,16.0343,16.1268,16.2876,16.3859,16.3152,16.5556,16.7402,16.7402,16.8382,16.9525,17.072,17.0813,17.0977,17.1222,17.1008,17.0813,17.0813,17.11,17.1222,17.1222,17.1222,17.1077,17.0644,16.8622,16.6383,16.4072,16.2512,16.1718,16.1718,16.1718,16.1718,0.0,11.7795,11.9136,11.9136,11.9136,11.9136,11.9002,11.7996,0.0,11.6991,11.6991,11.7527,11.9203,12.2957,12.6377,12.8291,13.3254,13.6942,13.7143,13.9759,14.2668,14.5442,14.9731,15.306,15.4401,15.5898,15.7439,15.8893,15.9027,15.9027,15.9027,15.9027,15.9027,15.9027,15.9027,15.9027,15.9027,15.9027,15.9027,15.896,15.6077,15.4736,15.4557,15.1675,15.0335,0.0,0.0,0.0,0.0,15.0066,15.0066,15.0066,15.0066,15.0066,15.0066,15.0066,15.0066,15.0066,15.0066,15.0066,15.0066,15.0066,15.0066,15.0066,15.02,15.1206,15.2456,15.2524,15.449,15.6702,15.6769,15.7954,15.9027,15.9027,15.9027,15.9027,15.9027,15.9027,15.9027,15.9119,15.9119,15.9373,16.0298,16.1312,16.2215,16.3013,16.4962,16.6338,16.6338,16.7223,16.8347,16.9492,16.959,17.0049,17.1161,17.024,16.959,16.959,17.0658,17.1222,17.1222,17.1222,17.0499,16.8911,17.0211,16.8622,16.4072,16.2512,16.1718,16.1718,16.1718,16.1718,11.9203,12.0812,12.1952,12.1952,12.1952,12.1684,12.0812,12.0142,11.9538,11.8533,11.8331,11.8801,12.0343,12.3427,12.6578,12.9029,13.3589,13.7143,13.8042,14.0027,14.2374,14.5241,14.9597,15.2993,15.4401,15.583,15.7305,15.8893,15.9027,15.9027,15.9027,15.9027,15.9027,15.9027,15.9027,15.9027,15.9027,15.9027,15.9027,15.896,15.6836,15.5361,15.4423,15.2412,15.0938,0.0,0.0,0.0,0.0,15.0066,15.0066,15.0066,15.0066,15.0066,15.0066,15.0066,15.0066,15.0066,15.0066,15.0066,15.0066,15.0066,15.0066,15.0066,15.0066,15.0469,15.1139,15.2121,15.3194,15.4267,15.5093,15.5763,15.6211,15.6211,15.6948,15.7506,15.7506,15.8356,15.9027,15.9027,15.9027,15.9165,15.9464,16.0254,16.1225,16.213,16.3399,16.4726,16.6038,16.6528,16.7187,16.8313,16.8416,16.8586,16.9024,16.8654,16.8416,16.8416,16.9492,17.0145,17.0145,16.9876,16.9344,16.8766,16.7466,16.5907,16.4072,16.2512,16.1718,16.1718,16.1718,16.1718,12.1617,12.2926,12.3628,12.3628,12.3628,12.336,12.239,12.1853,12.1182,12.0075,11.9538,11.9605,12.1182,12.3829,12.6578,12.9163,13.3656,13.721,13.8176,14.0094,14.2374,14.5241,14.8324,15.1005,15.2948,15.4825,15.6635,15.8155,15.8759,15.9027,15.9027,15.9027,15.9027,15.9027,15.9027,15.9027,15.9027,15.9027,15.9027,15.9027,15.7372,15.6166,15.516,15.3261,15.1853,0.0,0.0,0.0,0.0,15.0066,15.0066,15.0066,15.0066,15.0066,15.0066,15.0066,15.0066,15.0066,15.0066,15.0066,15.0066,15.0066,15.0066,15.0066,15.0066,15.0066,15.0267,15.1384,15.2054,15.2658,15.3596,15.42,15.449,15.449,15.5629,15.6635,15.6635,15.7908,15.9027,15.9027,15.9027,15.9027,15.9027,15.9782,16.0362,16.0544,16.1588,16.2706,16.3685,16.3999,16.4781,16.6375,16.6482,16.6197,16.5273,16.5597,16.5811,16.5811,16.6854,16.753,16.753,16.7211,16.68,16.6297,16.4645,16.3322,16.2244,16.2042,16.1758,16.1254,16.1574,16.1718,12.2823,12.3628,12.3628,12.3628,12.3628,12.3628,12.3628,12.2524,12.1518,12.1518,12.0276,11.9672,12.1249,12.3829,12.631,12.7889,13.3052,13.6875,13.6875,13.9423,14.2333,14.5241,14.5643,14.6782,14.9798,15.2747,15.5093,15.6568,15.8155,0.0,15.9027,15.9027,15.9027,15.9027,15.9027,15.9027,15.9027,15.9027,15.9027,15.9027,15.7439,15.6702,15.6568,15.373,15.2456,0.0,0.0,0.0,0.0,15.0066,15.0066,15.0066,15.0066,15.0066,15.0066,15.0066,15.0066,15.0066,15.0066,15.0066,15.0066,15.0066,15.0066,15.0066,15.0066,15.0066,15.0066,15.0066,15.1139,15.2389,15.2389,15.3462,15.449,15.4535,15.5562,15.6635,15.6635,15.7908,15.9027,15.9027,15.9027,15.9027,15.9027,15.9782,15.9802,15.8246,15.9593,16.0234,15.8801,15.9312,16.084,16.3515,16.3803,16.2689,16.0006,16.0856,16.1488,16.1488,16.2631,16.3252,16.3252,16.3252,16.2543,16.0983,16.2472,16.1692,15.8435,16.1113,16.1659,16.0187,16.1254,16.1689,12.2877,12.2983,12.2477,12.3381,12.3628,12.3628,12.3628,12.3293,12.2957,12.2957,12.2622,12.2756,12.4231,12.6108,12.7889,12.9364,13.2851,13.5735,13.6741,13.8485,14.1126,14.5107,14.5643,14.6782,14.9798,15.1876,15.4066,15.6501,15.8155,15.9027,15.9027,15.9027,15.9027,15.9027,15.9027,15.9027,15.9027,15.9027,15.9027,15.9027,15.8557,15.7753,15.6635,15.5763,15.4289,15.2389,15.192,0.0,0.0,15.0066,15.0066,15.0066,15.0066,15.0066,15.0066,15.0066,15.0066,15.0066,15.0066,15.0066,15.0066,15.0066,15.0066,15.0066,15.0066,15.0066,15.0066,15.0066,15.0402,15.0737,15.0737,15.1072,15.1675,15.2792,15.4133,15.5428,15.6434,15.7908,15.9027,15.9027,15.9027,15.9027,15.9027,15.919,15.9107,15.8158,15.8523,15.8793,15.864,15.8796,15.949,16.084,16.0119,15.9549,15.979,16.0099,16.029,16.029,16.1379,16.203,16.203,16.1744,16.1408,16.0983,16.024,15.9356,15.8435,15.9261,15.9392,15.8965,15.9288,15.9795,12.2237,12.2261,12.1958,12.3283,12.3159,12.2926,12.3494,12.3628,12.3762,12.4365,12.3602,12.362,12.6236,12.7011,12.793,12.9959,13.2784,13.5198,13.6674,13.8042,14.0657,14.5107,14.5643,14.6782,14.9798,15.0938,15.2412,15.4758,15.6948,15.8088,15.8088,15.8692,15.9027,15.9027,15.9027,15.9027,15.9027,15.9027,15.9027,15.9027,15.9027,15.8557,15.7619,15.697,15.5696,15.4066,15.2926,0.0,0.0,15.0335,15.0066,15.0066,15.0066,15.0066,15.0066,15.0066,15.0066,15.0066,15.0066,15.0066,15.0066,15.0066,15.0066,15.0066,15.0066,15.0066,15.0066,15.0066,15.0066,15.0066,15.0066,15.0536,15.134,15.2926,15.4289,15.5629,15.6501,15.7908,15.9027,15.9027,15.9027,15.9027,15.9027,15.849,15.7734,15.6772,15.6471,15.613,15.5767,15.6296,15.721,15.8236,15.7069,15.6516,15.7415,15.7825,15.8017,15.8017,15.8631,15.904,15.904,15.8823,15.8722,15.8722,15.7703,15.7175,15.7175,15.7591,15.7796,15.7796,15.8235,15.8764,12.1348,12.1486,12.1503,12.3056,12.2457,12.1853,12.3127,12.3494,12.403,12.5505,12.3585,12.3035,12.7316,12.7036,12.7089,12.979,13.2774,13.5198,13.6674,13.8176,14.0791,14.5107,14.571,14.6916,14.9798,15.0066,15.067,15.2322,15.4758,15.63,15.63,15.7887,15.8826,15.8826,15.896,15.9027,15.9027,15.9027,15.9027,15.9027,15.9027,15.9027,15.896,15.7506,15.6769,15.6501,15.3887,0.0,0.0,15.0871,15.02,15.0066,15.0066,15.0066,15.0066,15.0066,15.0066,15.0066,15.0066,15.0066,15.0066,15.0066,15.0066,15.0066,15.0066,15.0066,15.0066,15.0066,15.0066,15.0066,15.0066,15.1072,15.2524,15.3864,15.5294,15.6568,15.6836,15.8021,15.9027,15.9027,15.9027,15.9027,15.9027,15.7707,15.6166,15.4758,15.3899,15.2976,15.1615,15.2749,15.4258,15.5701,15.4691,15.3983,15.3983,15.4787,15.5274,15.5274,15.5274,15.5274,15.5274,15.5274,15.5274,15.5274,15.5274,15.5274,15.5274,15.6247,15.6716,15.6752,15.78,15.838,12.1964,12.0898,11.8957,12.1391,12.1719,12.1585,12.192,12.2859,12.403,12.5505,12.3585,12.2998,12.7398,12.7122,12.711,12.9955,13.2792,13.5198,13.6674,13.9155,14.2039,14.5216,14.6648,14.8123,14.9865,15.0066,15.067,15.2322,15.2993,15.3328,15.3328,15.5763,15.7171,15.7171,15.8356,15.9027,15.9027,15.9027,15.9027,15.9027,15.9027,15.9027,15.9027,15.8692,15.7887,15.6635,15.6032,0.0,0.0,15.2054,15.1139,15.0066,15.0066,15.0066,15.0066,15.0066,15.0066,15.0066,15.0066,15.0066,15.0066,15.0066,15.0066,15.0066,15.0066,15.0066,15.0066,15.0066,15.0066,15.0066,15.0066,15.0335,15.067,15.0938,15.3015,15.5675,15.8021,15.8759,15.9027,15.9027,15.9027,15.9027,15.9027,15.7707,15.6166,15.4758,15.3461,15.2354,15.1531,15.1748,15.2065,15.2473,15.3357,15.3983,15.3983,15.4787,15.5274,15.5274,15.5274,15.5274,15.5274,15.5274,15.5274,15.5274,15.5274,15.5274,15.5274,15.5575,15.5617,15.5687,15.713,15.8209,11.9077,11.8694,11.7962,12.0041,11.9997,11.9664,12.0396,12.1259,12.2242,12.3697,12.1778,12.1467,12.6447,12.6214,12.6388,12.9873,13.2834,13.5198,13.6674,13.882,14.1528,14.5216,14.6313,14.7654,14.9865,15.0066,15.0402,15.1206,15.1987,15.2389,15.2389,15.3864,15.5227,15.6635,15.7485,15.8289,15.9027,15.9027,15.9027,15.9027,15.9027,15.8624,15.7954,15.8692,15.8155,15.6635,15.6635,0.0,15.4289,15.2993,15.192,15.1072,15.0335,15.0066,15.0066,15.0066,15.0066,15.0066,15.0066,15.0066,15.0066,15.0066,15.0066,15.0066,15.0066,15.0066,15.0066,15.0066,15.0603,15.1005,15.0267,15.1139,15.201,15.134,15.2926,15.5004,15.6546,15.6881,15.6881,15.6881,15.6881,15.6881,15.6881,15.5608,15.4401,15.3663,15.2255,15.1113,15.0825,15.0733,15.0904,15.137,15.2654,15.351,15.3944,15.4787,15.5274,15.5274,15.5274,15.5274,15.5274,15.5274,15.5274,15.5274,15.5274,15.5274,15.5274,15.5274,15.5274,15.5381,15.6144,15.7248,11.6012,11.6442,11.7181,11.8786,11.823,11.7534,11.8559,11.9422,12.0227,12.1178,11.9387,11.9228,12.4341,12.4288,12.4851,12.9077,13.2554,13.5208,13.6677,13.8523,14.1106,14.4796,14.571,14.6898,14.9048,14.9735,14.9979,14.965,15.0853,15.1722,15.1943,15.1987,15.3194,15.583,15.5898,15.6769,15.8557,15.8624,15.8624,15.8624,15.8624,15.782,15.6367,15.7686,15.7552,15.63,15.6568,0.0,15.6099,15.3998,15.2859,15.2255,15.0938,15.0267,15.0066,15.0066,15.0066,15.0066,15.0066,15.0066,15.0066,15.0066,15.0066,15.0066,15.0066,15.0066,15.0066,15.0066,15.1005,15.1742,15.0737,15.2278,15.3864,15.2658,15.3529,15.4423,15.4267,15.4401,15.449,15.449,15.449,15.449,15.449,15.3395,15.2389,15.2389,15.1072,15.0066,15.0066,15.0066,15.037,15.1074,15.1997,15.2817,15.3471,15.4325,15.4894,15.4894,15.5009,15.5085,15.5085,15.5236,15.5274,15.5274,15.5274,15.5274,15.5274,15.5274,15.5274,15.5381,15.5867,15.6769,11.6806,11.5862,11.4802,11.7246,11.7672,11.7281,11.621,11.809,11.9641,11.8715,11.7271,11.7122,12.0366,12.0792,12.2055,12.6167,13.1279,13.5187,13.6644,14.0321,14.3116,14.3683,14.602,14.7246,14.6324,14.8563,14.9518,14.8134,14.8242,14.8917,15.0291,15.0402,15.1139,15.2926,15.2993,15.4267,15.697,15.697,15.697,15.697,15.697,15.6233,15.4825,15.5071,15.5071,15.4892,15.6099,15.5965,15.4892,15.5696,15.4624,15.2389,15.2188,15.1206,15.0066,15.0066,15.0066,15.0066,15.0066,15.0066,15.0066,15.0066,15.0066,15.0066,15.0066,15.0066,15.0066,15.0066,15.02,15.067,15.1786,15.2389,15.2658,15.2456,15.3529,15.42,15.2926,15.3663,15.449,15.449,15.449,15.449,15.449,15.3395,15.2389,15.2389,15.1072,15.0066,15.0066,15.0066,15.011,15.024,15.1032,15.1622,15.1748,15.2573,15.31,15.31,15.3708,15.4139,15.4139,15.4863,15.5274,15.5274,15.5274,15.5274,15.5274,15.5274,15.5274,15.5381,15.8017,15.9266,11.3198,11.3528,11.3789,11.4144,11.5382,11.5962,11.3744,11.4973,11.6158,11.4895,11.469,11.5637,11.8534,11.9613,12.1205,12.4557,12.9246,13.2601,13.331,13.7783,14.1053,14.1054,14.3656,14.5132,14.4512,14.6303,14.7632,14.7809,14.7032,14.7609,14.9912,14.9252,14.9475,15.1072,15.192,15.2993,15.4267,15.583,15.6635,15.6635,15.6635,15.5898,15.449,15.449,15.449,15.4669,0.0,15.6769,15.7015,15.6769,15.5898,15.4691,15.3931,15.2725,15.134,15.134,15.0804,15.0066,15.0066,15.0066,15.0066,15.0066,15.0066,15.0066,15.0066,15.0066,15.0066,15.0066,15.067,15.134,15.1139,15.2345,15.3395,15.2591,15.3529,15.42,15.2725,15.2926,15.3082,15.2211,15.201,15.201,15.201,15.1474,15.1072,15.1072,15.0469,15.0066,15.0066,15.0066,15.0284,15.0733,15.1159,15.1622,15.2121,15.2979,15.3431,15.3431,15.4247,15.471,15.471,15.5123,15.5274,15.5274,15.5274,15.5274,15.5274,15.5274,15.5274,15.5344,15.6699,15.8156,11.002,11.1267,11.2517,11.1816,11.3178,11.4094,11.1688,11.2326,11.2932,11.1273,11.1988,11.3646,11.6142,11.7624,11.9677,12.3143,12.7001,12.9914,13.0975,13.5123,13.8333,13.9113,14.1074,14.2471,14.2836,14.4202,14.5241,14.568,14.4594,14.5205,14.8231,14.7288,14.7511,14.9429,15.0609,15.1388,15.1742,15.4334,15.5562,15.5562,15.4825,15.4289,15.3998,15.3552,15.382,15.4669,15.6032,15.7305,15.8356,15.7619,15.7037,15.6568,15.5495,15.4155,15.2926,15.2524,15.1652,15.067,15.067,15.0402,15.0066,15.0066,15.0066,15.0066,15.0066,15.0066,15.0066,15.0066,15.0871,15.1652,15.0871,15.2546,15.4267,15.3194,15.4066,15.4736,15.3261,15.2658,15.2054,15.0871,15.0335,15.0066,15.0066,15.0066,15.0066,15.0066,15.0066,15.0066,15.0066,15.0066,15.0327,15.0989,15.1032,15.1412,15.2327,15.3019,15.3431,15.3629,15.4479,15.5009,15.5009,15.5199,15.5274,15.5274,15.5274,15.5274,15.5274,15.5274,15.552,15.5936,15.6283,15.7878,10.9728,10.9888,11.0347,11.1607,11.2048,11.1733,11.0284,11.1062,11.1273,10.8526,10.9029,11.0477,11.2029,11.3351,11.6039,12.1501,12.4761,12.7983,13.2086,13.3982,13.6008,13.8857,13.9339,13.9857,14.1076,14.2682,14.2459,13.9823,0.0,14.0633,14.3637,14.3702,14.4943,14.775,14.7928,14.8673,15.02,15.1742,15.2591,15.2591,14.9731,14.9842,15.2456,15.0938,15.1876,15.4669,15.6032,15.6702,15.6903,15.8289,15.8021,15.6635,15.6568,15.5696,15.4267,15.2926,15.2322,15.2322,15.2322,15.1273,15.0066,15.0066,15.0066,15.0066,15.0066,15.0066,15.0066,15.0066,15.0133,15.0469,15.192,15.3395,15.4535,15.4468,15.5495,15.6166,15.4691,15.3395,15.2389,15.2322,15.1072,15.0066,15.0066,15.0066,15.0066,15.0066,15.0066,15.0066,15.0066,15.0066,15.011,15.0153,15.0153,15.0543,15.1412,15.1538,15.1914,15.2776,15.355,15.4022,15.4022,15.4825,15.5274,15.5274,15.5274,15.5274,15.5274,15.5274,15.6075,15.7532,15.8919,16.0445,10.7368,10.8463,10.9722,10.9344,11.0644,11.1336,10.9029,10.9533,11.0036,10.8085,10.884,11.0266,11.1714,11.3058,11.5156,11.9038,12.1934,12.4572,12.7079,13.0094,13.2462,13.358,13.5266,13.659,13.6956,13.6742,13.7294,13.9004,13.82,13.8913,14.1933,14.1173,14.1621,14.3549,14.4485,14.524,14.5792,14.8222,14.9868,15.091,15.0809,15.1384,15.2322,15.0737,15.1206,15.3194,15.3686,15.4423,15.5428,15.6903,15.7171,15.6769,15.782,15.7238,15.583,15.5294,15.3998,15.2255,15.1206,15.0536,15.0066,15.0066,15.0066,15.0267,15.1206,15.1541,15.1742,15.268,15.2948,15.3015,15.3619,15.4825,15.5898,15.5898,15.7082,15.7753,15.6233,15.5495,15.4825,15.3954,15.3284,15.2613,15.1675,15.1541,15.1206,15.02,15.0066,15.0066,15.0066,15.0066,15.0066,15.0066,15.0066,15.0457,15.1328,15.1956,15.2654,15.3471,15.4363,15.4825,15.4825,15.5123,15.5274,15.5274,15.5274,15.5274,15.5274,15.5274,15.5589,15.6144,15.6699,15.8225,10.397,10.563,10.7644,10.7141,10.8463,10.951,10.7982,10.8463,10.884,10.7856,10.8463,10.9533,11.0958,11.2365,11.4149,11.7024,11.9731,12.2186,12.4091,12.7153,12.9517,13.0466,13.1848,13.3275,13.4646,13.268,13.2541,13.5355,13.5047,13.58,13.8235,13.7974,13.8566,14.0472,14.1491,14.2198,14.2715,14.5128,14.6556,14.7148,14.9169,14.985,14.9408,14.9848,15.1139,15.3127,15.3127,15.3663,15.4669,15.5562,15.5965,15.6032,15.7082,15.6881,15.5898,15.5428,15.4066,15.2255,15.1206,15.0469,15.0066,15.0066,15.0066,15.0267,15.1273,15.1652,15.1853,15.2747,15.3462,15.3864,15.3864,15.5227,15.6635,15.6635,15.7841,15.8759,15.7686,15.7037,15.6367,15.5428,15.4825,15.4222,15.3261,15.3127,15.2546,15.1072,15.0804,15.0804,15.0804,15.0402,15.0066,15.0066,14.9664,14.9718,15.0652,15.0775,15.1194,15.2001,15.2653,15.2923,15.2923,15.2923,15.3037,15.3303,15.3303,15.3454,15.3716,15.3716,15.3994,15.4549,15.4549,15.5867,9.9875,10.1412,10.3766,10.5189,10.5567,10.5882,10.7164,10.7479,10.7542,10.7605,10.7668,10.8171,10.9596,11.1021,11.2911,11.5596,11.8302,12.1053,12.384,12.5413,12.7275,13.0121,12.9292,13.0031,13.4223,13.0887,12.8481,12.8481,12.974,13.1125,13.2384,13.3818,13.5831,13.8614,13.8902,13.9734,14.1106,14.2603,14.2621,14.1274,14.4165,14.4719,14.3563,14.7852,15.1476,15.4266,15.4311,15.4311,15.4311,15.4423,15.4468,15.4468,15.449,15.449,15.4401,15.2859,15.2322,15.2322,15.2322,15.134,15.0066,15.0066,15.0066,15.0066,15.0133,15.0133,15.0133,15.02,15.1273,15.2456,15.2456,15.449,15.6635,15.6635,15.7753,15.8893,15.896,15.7707,15.6702,15.6702,15.5629,15.4669,15.4669,15.4557,15.4133,15.2658,15.2456,15.2389,15.2322,15.0938,14.9999,14.9932,14.8659,14.8172,14.9138,14.7868,14.7353,14.8271,14.835,14.835,14.835,14.8389,14.8779,14.9547,14.9547,14.9855,15.0664,15.0664,15.1427,15.2921,15.2921,15.3786,9.9057,9.9272,9.9461,10.0846,10.1223,10.1324,10.1664,10.3301,10.5025,10.6071,10.7896,10.9344,10.9722,11.1799,11.396,11.5722,11.7527,11.9353,12.1053,12.25,12.4085,12.5929,12.6572,12.7376,12.857,12.7625,12.7364,12.8418,12.8858,12.9236,12.9614,13.0936,13.2122,13.2872,13.4833,13.6154,13.653,13.9095,14.0137,13.9815,14.1597,14.2277,14.1971,14.4303,14.6278,14.8098,14.9164,14.9621,14.9778,15.2012,15.2993,15.3127,15.4088,15.449,15.4222,15.1675,15.067,15.067,15.067,15.0402,15.0066,15.0066,15.0066,15.0267,15.1407,15.1786,15.1943,15.3015,15.3619,15.3998,15.3998,15.449,15.5093,15.5093,15.5428,15.6077,15.715,15.697,15.697,15.8155,15.8021,15.7418,15.6233,15.6099,15.5562,15.4155,15.306,15.1652,14.9396,14.8793,14.8056,14.6983,14.6447,14.6627,14.7474,14.7259,14.7353,14.8271,14.8857,14.9135,14.9135,14.9667,15.0079,15.037,15.037,15.0444,15.0664,15.0664,15.0872,15.1289,15.1289,15.2745,9.6124,9.6691,9.7006,9.9057,9.9057,9.9083,10.0846,10.2445,10.3829,10.4647,10.7015,10.8777,10.8211,11.0855,11.3373,11.4191,11.652,11.8472,11.9227,12.0486,12.1871,12.3319,12.3696,12.3966,12.4578,12.4641,12.527,12.6718,12.7238,12.7552,12.7552,12.8984,12.974,12.974,13.1817,13.2999,13.2999,13.5886,13.7327,13.7327,13.8758,13.9781,14.0332,14.1302,14.2806,14.4801,14.6256,14.6835,14.699,14.878,14.953,14.9664,15.1206,15.1742,15.1474,14.9061,14.819,14.8233,14.819,14.819,14.8324,14.8927,14.9195,14.9463,15.0938,15.1407,15.1608,15.2412,15.315,15.3663,15.3663,15.4133,15.449,15.449,15.449,15.4803,15.5562,15.5763,15.6032,15.6948,15.715,15.6881,15.5898,15.5763,15.5495,15.4624,15.3864,15.2456,15.011,14.9842,14.9195,14.7654,14.7452,14.7465,14.734,14.621,14.5445,14.5402,14.5199,14.4792,14.4247,14.4639,14.5057,14.5394,14.5394,14.5543,14.5944,14.5944,14.6091,14.6418,14.7004,14.8155,9.1495,9.332,9.5145,9.7545,9.7258,9.7446,0.0,10.2319,10.2696,10.2885,10.5088,10.67,10.5693,10.8777,11.1525,11.1714,11.5072,11.7716,11.7716,11.8975,12.036,12.1664,12.0675,12.0486,12.1871,12.2042,12.2563,12.3777,12.5161,12.5916,12.5916,12.7411,12.8292,12.8292,12.9614,13.0369,13.0369,13.281,13.4133,13.4258,13.5531,13.6907,13.8325,13.8517,14.0108,14.2567,14.4025,14.4722,14.4894,14.5065,14.5108,14.5285,14.686,14.7219,14.6822,14.5619,14.5084,14.5169,14.5321,14.5364,14.5632,14.7142,14.7654,14.7922,14.9195,14.9597,14.9597,14.9597,15.067,15.192,15.192,15.2993,15.4021,15.4021,15.4021,15.4088,15.4267,15.4334,15.4289,15.449,15.449,15.449,15.449,15.449,15.4423,15.4088,15.4021,15.3529,15.2121,15.192,15.125,14.9463,14.9329,14.8726,14.7251,14.4545,14.2374,14.0899,13.9571,13.8269,13.6994,13.7124,13.7525,13.8051,13.8165,13.8473,13.9108,13.9108,13.9471,14.0187,14.1632,14.1849,0.0,0.0,0.0,0.0,0.0,0.0,0.0,9.4453,9.7222,9.8391,10.0783,10.2923,10.3829,10.6472,10.8903,11.0036,11.2765,11.4778,11.4778,11.6961,11.866,11.8912,11.8723,11.9101,12.0423,12.0549,12.0675,12.0927,12.2249,12.3067,12.3067,12.5413,12.6734,12.6734,12.8166,12.8921,12.8921,12.9425,13.0243,13.1425,13.1691,13.2578,13.3879,13.5017,13.5866,13.6451,13.7904,13.9223,14.0508,14.1697,14.2133,14.2335,14.374,14.2923,14.1019,14.1806,14.2133,14.2315,14.3498,14.385,14.4091,14.5571,14.6045,14.6112,14.638,14.6447,14.6447,14.6447,14.7587,14.8793,14.8793,14.9865,15.0938,15.0938,15.0938,15.1273,15.2524,15.2792,15.3194,15.4289,15.449,15.449,15.449,15.449,15.3686,15.1273,15.0938,15.0402,14.8927,14.8793,14.7763,14.5015,14.4747,14.4143,14.271,14.0858,13.9289,13.7814,13.7976,13.8095,13.7824,13.9112,13.9298,13.8207,13.8773,13.8604,13.7462,13.7462,13.7564,13.7769,13.9292,13.9222,0.0,0.0,0.0,0.0,0.0,0.0,0.0,0.0,0.0,0.0,0.0,10.0279,9.955,0.0,10.5906,10.6637,10.9618,11.2324,11.3667,11.5156,11.6037,11.6037,11.6709,11.7653,11.9038,11.9164,11.9416,12.0108,12.0801,12.1178,12.1178,12.3193,12.4326,12.4326,12.6294,12.7427,12.7427,12.8166,12.8858,12.9551,12.9551,12.9929,13.0558,13.125,13.1999,13.2699,13.3414,13.4569,13.6054,13.6761,13.7466,13.8052,13.7336,13.5716,13.4075,13.622,13.701,13.7298,13.8682,13.9156,13.9635,14.252,14.3473,14.3741,14.5174,14.5108,14.4655,14.5364,14.5643,14.5898,14.6544,14.7318,14.7855,14.7855,14.7855,14.8056,14.8793,14.9597,15.0378,15.1072,15.1809,15.2278,15.2278,15.1072,14.953,14.8056,14.7855,14.7587,14.6849,14.6782,14.6179,14.4679,14.4545,14.4277,14.354,14.2735,14.1394,13.9222,13.7337,13.6022,13.5213,13.601,13.6117,13.5332,13.4984,13.4413,13.3662,13.3262,13.3301,13.3677,13.5972,13.6452,0.0,0.0,0.0,0.0,0.0,0.0,0.0,0.0,0.0,0.0,0.0,0.0,0.0,0.0,0.0,10.2759,10.6322,10.991,11.2387,11.2513,11.2513,11.3079,11.459,11.61,11.7276,11.759,11.822,11.929,11.9605,11.9794,11.9794,12.1053,12.1853,12.1853,12.4011,12.5161,12.5161,12.6592,12.7411,12.7725,0.0,0.0,12.8481,12.8481,12.9122,13.0213,13.0213,13.083,13.19,13.19,13.2612,13.3364,13.02,12.847,12.8029,13.0598,13.1362,13.1342,13.2828,13.3447,13.4334,13.8408,13.9671,14.0132,14.2745,14.2733,0.0,14.3226,14.3089,14.2923,14.4027,14.4793,14.5194,14.5194,14.5364,14.5643,14.5643,14.6581,14.7452,14.7452,14.8391,14.9195,14.9195,14.7184,14.5491,14.5236,14.5406,14.5491,14.5236,14.5406,14.5509,14.5174,14.5174,14.504,14.4772,14.4772,14.354,14.0631,13.6875,13.4125,13.288,13.2698,13.2573,13.264,13.1733,13.0909,13.0032,12.9811,13.0041,13.073,13.2703,13.3349,0.0,0.0,0.0,0.0,0.0,0.0,0.0,0.0,0.0,0.0,0.0,0.0,0.0,0.0,0.0,0.0,10.349,10.67,10.8171,10.7353,10.7581,10.9973,11.2576,11.4212,11.4401,11.5533,11.6351,11.6477,11.7716,11.8409,11.8409,0.0,0.0,0.0,0.0,12.0864,12.0864,12.2249,12.3634,12.4847,12.6042,12.7238,12.8481,12.8481,12.8575,12.8717,12.8717,12.8811,12.8998,12.8998,12.9061,12.8809,12.4817,12.3906,12.5041,12.6505,12.6344,12.556,12.6951,0.0,0.0,13.2753,13.3741,13.4053,13.5593,13.5977,13.5893,13.606,13.7829,13.9685,13.9857,14.182,14.3674,14.3674,14.4655,14.5643,14.5643,14.5777,14.5911,14.5911,14.5978,14.6112,14.6112,14.5844,14.5151,14.385,14.4741,14.5151,14.385,14.4851,14.5107,14.3808,0.0,0.0,14.1905,14.1838,14.0564,13.7546,13.5668,13.4662,13.4461,13.3807,13.3403,13.3433,13.4582,13.3232,12.9182,13.1047,13.2061,13.2126,13.0495,13.0008,0.0,0.0,0.0,0.0,0.0,0.0,0.0,0.0,0.0,0.0,0.0,0.0,0.0,0.0,0.0,0.0,9.9209,10.1349,10.2734,10.3867,10.5213,10.7204,10.991,11.1506,11.1506,11.2806,11.3687,11.3687,11.4946,11.5722,11.5722,11.7779,11.8975,11.8975,11.9731,12.0171,12.0171,12.0738,12.1367,12.1934,12.2455,12.3067,12.3634,12.3634,12.3634,12.3634,12.3634,12.3634,12.3634,12.3634,12.3634,0.0,0.0,0.0,0.0,0.0,12.1745,12.2113,12.3592,12.4387,12.5374,12.8245,12.9695,13.0384,13.1083,13.1292,13.143,13.2308,13.2751,13.3557,13.6024,13.757,13.8495,13.8495,13.892,13.9131,13.8301,13.8832,13.969,14.0438,14.2016,0.0,13.9806,14.0031,14.0072,13.8708,13.9633,14.0005,13.8666,13.9633,14.0255,13.9692,13.9625,13.9356,13.8753,13.8686,0.0,0.0,0.0,13.3924,13.2181,13.262,0.0,0.0,0.0,0.0,0.0,0.0,0.0,0.0,12.8176,12.7367,0.0,0.0,0.0,0.0,0.0,0.0,0.0,0.0,0.0,0.0,0.0,0.0,0.0,0.0,0.0,0.0,9.5711,9.732,9.723,9.9587,10.169,10.2696,10.6322,10.8526,10.8148,10.9722,11.0832,11.0832,11.2051,11.2765,11.2765,11.5135,11.6646,11.7024,11.7925,11.866,11.9038,11.9416,11.9605,11.9605,11.9982,12.0171,12.0171,12.0171,12.0171,12.0171,12.0171,12.0171,12.0171,12.0171,12.0171,11.9982,11.8283,11.8409,11.9416,11.8094,11.8409,11.9674,12.0378,12.0783,12.1549,12.4009,12.5405,12.6252,12.674,12.692,12.715,12.8189,12.7909,12.8032,13.1161,13.2299,13.2693,13.3086,13.3471,13.3579,13.2926,13.3666,13.4708,13.5707,13.641,13.5993,13.3546,13.395,13.4294,13.3363,13.395,0.0,13.3255,13.461,13.5862,13.6289,13.6636,13.6875,13.6875,13.721,13.6473,13.4193,13.4058,13.2583,12.9125,13.0802,13.107,12.9699,12.8849,12.8311,0.0,0.0,0.0,0.0,0.0,0.0,0.0,0.0,0.0,0.0,0.0,0.0,0.0,0.0,0.0,0.0,0.0,0.0,0.0,0.0,0.0,0.0,0.0,0.0,9.2004,9.3795,9.5523,9.5586,10.1627,10.5276,10.3955,10.622,10.7793,10.7793,10.9155,10.9973,10.9973,11.1399,11.2743,11.3981,11.4044,11.4778,11.6163,11.7527,11.822,11.8283,11.9542,12.0171,12.0171,12.0171,12.0171,12.0171,12.0171,12.0171,12.0171,12.0171,12.0171,11.9857,11.7213,11.7024,11.8031,11.6646,11.7024,11.8031,11.6689,11.713,11.8523,11.9909,12.0357,12.0631,12.2018,12.2465,12.2465,12.2507,12.3426,12.4408,12.4495,12.5671,12.7127,12.841,12.985,13.1275,13.2449,13.284,13.284,13.2905,12.8599,12.5758,12.8237,12.8858,12.8938,12.8888,12.8901,0.0,12.8671,13.1157,13.3437,13.481,13.6048,13.6875,13.6875,13.8109,13.7037,13.2746,13.2478,13.0466,12.6108,12.8723,12.9632,12.8224,12.886,12.7769,12.4928,0.0,0.0,0.0,0.0,0.0,0.0,0.0,0.0,0.0,0.0,0.0,0.0,0.0,0.0,0.0,0.0,0.0,0.0,0.0,0.0,0.0,0.0,0.0,0.0,0.0,9.395,9.395,9.8517,10.1035,9.9613,10.1979,10.3553,10.3553,10.5756,10.7518,10.84,10.8903,10.9785,11.1169,11.1232,11.1421,11.1925,11.331,11.4506,11.5345,11.5785,11.6477,11.7464,11.7464,11.7464,11.7464,11.7464,11.7464,11.7464,11.7464,11.5828,11.3184,11.2303,11.224,11.268,11.3184,11.4191,11.5282,11.4778,11.4967,11.5304,11.4839,11.5326,11.5933,11.5535,11.6674,11.7941,11.7012,11.8405,12.0437,12.1272,12.2593,12.3811,12.4259,12.4774,12.4988,12.4486,12.4438,12.4693,12.5649,12.3509,12.2465,12.5177,12.6508,12.7125,12.7127,12.709,12.6759,12.58,12.6518,12.7635,12.91,13.0416,13.1174,13.1162,13.2415,13.2181,12.9699,12.9565,12.8425,12.584,12.7718,12.7218,12.3798,12.4921,12.3735,11.998,0.0,0.0,0.0,0.0,0.0,0.0,0.0,0.0,0.0,0.0,0.0,0.0,0.0,0.0,0.0,0.0,0.0,0.0,0.0,0.0,0.0,0.0,0.0,0.0,0.0,0.0,9.2473,9.5369,0.0,9.6691,9.732,9.8013,9.8517,10.0279,10.2105,10.393,10.4497,10.5882,10.8274,10.8337,10.8589,10.9092,10.9973,11.0855,11.1695,11.2198,11.2953,11.3876,11.438,11.4569,11.4569,11.4569,11.4569,11.4569,11.4065,11.1673,10.8337,10.8337,10.8085,10.777,10.9218,11.0288,11.1066,11.1569,11.1695,11.1632,11.1295,11.1736,11.2261,11.1421,11.1736,11.2428,11.245,11.3436,11.4968,11.7305,11.8256,11.8935,12.0421,12.0421,12.0038,12.0096,11.9794,11.929,11.8704,11.8637,11.9275,12.0952,12.2038,12.2847,12.3354,12.3426,12.3104,12.2163,12.2888,12.3893,12.4758,12.6057,12.6822,12.6808,12.8057,12.7969,12.6048,12.6736,12.6327,12.4384,12.5256,12.3953,12.0184,11.9949,11.8186,0.0,0.0,0.0,0.0,0.0,0.0,0.0,0.0,0.0,0.0,0.0,0.0,0.0,0.0,0.0,0.0,0.0,0.0,0.0,0.0,0.0,0.0,0.0,0.0,0.0,0.0,0.0,9.0555,9.1907,0.0,0.0,0.0,0.0,9.288,9.3006,9.4264,9.7069,9.8391,10.1009,10.5189,10.5315,10.6008,10.7353,10.7416,10.7479,10.7605,10.8966,10.9659,10.9785,11.1147,11.1777,11.1777,11.184,11.1777,11.1651,11.0014,10.777,10.5441,10.5378,10.4497,10.3451,10.4874,10.5378,10.563,10.6912,10.7353,10.7605,10.9029,10.9533,10.947,10.9407,10.7707,0.0,0.0,10.8526,10.8486,11.2387,11.2554,11.2785,11.6772,11.6772,11.654,11.9164,11.8786,11.6772,0.0,11.3876,11.5659,11.5785,0.0,11.6394,11.7842,11.8031,11.8031,11.8031,12.0378,12.1953,12.2081,12.3233,12.3988,12.4013,12.5217,12.473,12.204,12.4104,12.4251,12.1477,12.1243,11.9984,11.7323,11.4335,0.0,0.0,0.0,0.0,0.0,0.0,0.0,0.0,0.0,0.0,0.0,0.0,0.0,0.0,0.0,0.0,0.0,0.0,0.0,0.0,0.0,0.0,0.0,0.0,0.0,0.0,7.7177,8.0009,8.4448,8.4416,8.4195,0.0,0.0,0.0,0.0,0.0,0.0,9.4201,9.3704,9.518,9.9398,9.9524,10.0657,10.3049,10.4081,10.515,10.6259,10.6637,10.733,10.8274,10.8651,10.8777,10.884,10.991,10.9785,10.8463,10.3993,10.1764,10.0972,9.9964,9.9335,9.8984,9.9398,10.0216,10.1286,10.2608,10.3049,10.3301,10.471,10.5213,10.4962,10.393,0.0,0.0,0.0,0.0,10.6259,10.622,10.7479,10.9344,11.1484,11.2491,11.3225,11.3918,11.4569,11.4086,0.0,11.0099,11.054,11.2659,0.0,0.0,0.0,0.0,11.6583,11.6583,11.7198,11.8087,11.9098,12.0441,12.117,12.1023,12.229,12.1925,11.9028,12.0339,11.9882,11.701,11.6971,11.5614,11.2717,0.0,0.0,0.0,0.0,0.0,0.0,0.0,0.0,0.0,0.0,0.0,0.0,0.0,0.0,0.0,0.0,0.0,0.0,0.0,0.0,0.0,0.0,0.0,0.0,0.0,0.0,0.0,7.1322,7.4659,7.9569,7.8939,7.8842,0.0,0.0,0.0,0.0,0.0,0.0,0.0,0.0,0.0,9.3606,9.4362,9.5369,9.6943,9.8921,10.0368,10.1186,10.2986,10.4245,10.5,10.5591,10.5906,10.5906,10.6724,10.4937,10.1249,9.9335,9.679,9.4082,0.0,0.0,0.0,0.0,9.4236,9.5117,9.6538,9.6978,0.0,9.8606,0.0,0.0,0.0,0.0,0.0,0.0,0.0,0.0,0.0,0.0,10.7518,11.0099,11.0895,11.121,11.184,11.0603,10.8611,0.0,10.6637,10.7793,10.8211,0.0,0.0,0.0,0.0,11.4464,11.2639,11.4527,11.61,11.6289,11.7518,11.8301,11.8258,11.8948,11.8443,11.6233,11.7204,11.6651,11.3843,11.3701,11.1804,0.0,0.0,0.0,0.0,0.0,0.0,0.0,0.0,0.0,0.0,0.0,0.0,0.0,0.0,0.0,0.0,0.0,0.0,0.0,0.0,0.0,0.0,0.0,0.0,0.0,0.0,0.0,0.0,0.0,7.1007,7.519,0.0,0.0,0.0,0.0,0.0,0.0,0.0,0.0,0.0,0.0,0.0,0.0,0.0,8.9988,9.0366,9.3006,9.4516,9.4768,9.8391,10.009,10.0153,10.1375,10.2193,10.2508,10.1941,0.0,9.3166,9.4768,0.0,0.0,0.0,0.0,0.0,0.0,0.0,0.0,0.0,0.0,0.0,0.0,0.0,0.0,0.0,0.0,0.0,0.0,0.0,0.0,0.0,0.0,10.5441,10.8754,10.9218,10.9155,0.0,10.5819,10.1501,9.8931,10.2105,0.0,0.0,0.0,0.0,0.0,0.0,0.0,10.7919,11.201,11.4841,11.3981,11.503,11.5722,11.5722,11.5653,11.4863,11.3184,11.4346,11.3752,11.0712,11.0792,0.0,0.0,0.0,0.0,0.0,0.0,0.0,0.0,0.0,0.0,0.0,0.0,0.0,0.0,0.0,0.0,0.0,0.0,0.0,0.0,0.0,0.0,0.0,0.0,0.0,0.0,0.0,0.0,0.0,0.0,0.0,0.0,0.0,0.0,0.0,0.0,0.0,0.0,0.0,0.0,0.0,0.0,0.0,0.0,0.0,0.0,0.0,0.0,0.0,0.0,9.2633,9.2948,9.2948,9.3263,9.4551,9.653,9.3069,9.1529,9.1248,8.7028,0.0,0.0,0.0,0.0,0.0,0.0,0.0,0.0,0.0,0.0,0.0,0.0,0.0,0.0,0.0,0.0,0.0,0.0,0.0,0.0,0.0,0.0,0.0,0.0,10.0746,10.3514,0.0,0.0,0.0,0.0,0.0,0.0,0.0,0.0,0.0,0.0,0.0,0.0,10.6196,10.8903,11.1673,11.3709,11.4149,11.4275,11.4275,11.4233,11.2698,10.8989,11.0987,10.9992,0.0,0.0,0.0,0.0,0.0,0.0,0.0,0.0,0.0,0.0,0.0,0.0,0.0,0.0,0.0,0.0,0.0,0.0,0.0,0.0,0.0,0.0,0.0,0.0,0.0,0.0,0.0,0.0,0.0,0.0,0.0,0.0,0.0,0.0,0.0,0.0,0.0,0.0,0.0,0.0,0.0,0.0,0.0,0.0,0.0,0.0,0.0,0.0,0.0,0.0,0.0,0.0,0.0,0.0,0.0,0.0,0.0,0.0,0.0,8.322,0.0,0.0,0.0,0.0,0.0,0.0,0.0,0.0,0.0,0.0,0.0,0.0,0.0,0.0,0.0,0.0,0.0,0.0,0.0,0.0,0.0,0.0,0.0,0.0,0.0,0.0,0.0,0.0,0.0,0.0,0.0,0.0,0.0,0.0,0.0,0.0,0.0,0.0,0.0,0.0,10.2482,10.6133,10.9785,11.2617,11.2932,11.2932,11.2932,11.1506,10.9555,10.685,10.7183,0.0,0.0,0.0,0.0,0.0,0.0,0.0,0.0,0.0,0.0,0.0,0.0,0.0,0.0,0.0,0.0,0.0,0.0,0.0,0.0,0.0,0.0,0.0,0.0,0.0,0.0,0.0,0.0,0.0,0.0,0.0,0.0,0.0,0.0,0.0,0.0,0.0,0.0,0.0,0.0,0.0,0.0,0.0,0.0,0.0,0.0,0.0,0.0,0.0,0.0,0.0,0.0,0.0,0.0,0.0,0.0,0.0,0.0,0.0,8.1928,0.0,0.0,0.0,0.0,0.0,0.0,0.0,0.0,0.0,0.0,0.0,0.0,0.0,0.0,0.0,0.0,0.0,0.0,0.0,0.0,0.0,0.0,0.0,0.0,0.0,0.0,0.0,0.0,0.0,0.0,0.0,0.0,0.0,0.0,0.0,0.0,0.0,0.0,0.0,0.0,0.0,9.8579,10.3175,10.7581,11.0707,11.1084,11.1084,11.1084,10.8966,10.685,10.4937,10.3804,0.0,0.0,0.0,0.0,0.0,0.0,0.0,0.0,0.0,0.0,0.0,0.0,0.0,0.0,0.0,0.0,0.0,0.0,0.0,0.0,0.0,0.0,0.0,0.0,0.0,0.0,0.0,0.0,0.0,0.0,0.0,0.0,0.0,0.0,0.0,0.0,0.0,0.0,0.0,0.0,0.0,0.0,0.0,0.0,0.0,0.0,0.0,0.0,0.0,0.0,0.0,0.0,0.0,0.0,0.0,0.0,0.0,0.0,0.0,0.0,0.0,0.0,0.0,0.0,0.0,0.0,0.0,0.0,0.0,0.0,0.0,0.0,0.0,0.0,0.0,0.0,0.0,0.0,0.0,0.0,0.0,0.0,0.0,0.0,0.0,0.0,0.0,0.0,0.0,0.0,0.0,0.0,0.0,0.0,0.0,0.0,0.0,0.0,0.0,0.0,0.0,9.5649,9.9398,10.3615,10.7605,10.8045,10.8045,10.8045,10.7856,10.5969,10.2105,0.0,0.0,0.0,0.0,0.0,0.0,0.0,0.0,0.0,0.0,0.0,0.0,0.0,0.0,0.0,0.0,0.0,0.0,0.0,0.0,0.0,0.0,0.0,0.0,0.0,0.0,0.0,0.0,0.0,0.0,0.0,0.0,0.0,0.0,0.0,0.0,0.0,0.0,0.0,0.0,0.0,0.0,0.0,0.0,0.0,0.0,0.0,0.0,0.0,0.0,0.0,0.0,0.0,0.0,0.0,0.0,0.0,0.0,0.0,0.0,0.0,0.0,0.0,0.0,0.0,0.0,0.0,0.0,0.0,0.0,0.0,0.0,0.0,0.0,0.0,0.0,0.0,0.0,0.0,0.0,0.0,0.0,0.0,0.0,0.0,0.0,0.0,0.0,0.0,0.0,0.0,0.0,0.0,0.0,0.0,0.0,0.0,0.0,0.0,0.0,0.0,0.0,9.4956,9.8894,10.3049,10.7227,10.622,10.5591,10.6409,10.4937,10.2545,9.9209,0.0,0.0,0.0,0.0,0.0,0.0,0.0,0.0,0.0,0.0,0.0,0.0,0.0,0.0,0.0,0.0,0.0,0.0,0.0,0.0,0.0,0.0,0.0,0.0,0.0,0.0,0.0,0.0,0.0,0.0,0.0,0.0,0.0,0.0,0.0,0.0,0.0,0.0,0.0,0.0,0.0,0.0,0.0,0.0,0.0,0.0,0.0,0.0,0.0,0.0,0.0,0.0,0.0,0.0,0.0,0.0,0.0,0.0,0.0,0.0,0.0,0.0,0.0,0.0,0.0,0.0,0.0,0.0,0.0,0.0,0.0,0.0,0.0,0.0,0.0,0.0,0.0,0.0,0.0,0.0,0.0,0.0,0.0,0.0,0.0,0.0,0.0,0.0,0.0,0.0,0.0,0.0,0.0,0.0,0.0,0.0,0.0,0.0,0.0,0.0,0.0,0.0,9.3572,9.8076,10.2168,10.5465,10.4899,10.427,10.4434,10.3049,10.0594,9.7006,0.0,0.0,0.0,0.0,0.0,0.0,0.0,0.0,0.0,0.0,0.0,0.0,0.0,0.0,0.0,0.0,0.0,0.0,0.0,0.0,0.0,0.0,0.0,0.0,0.0,0.0,0.0,0.0,0.0,0.0,0.0,0.0,0.0,0.0,0.0,0.0,0.0,0.0,0.0,0.0,0.0,0.0,0.0,0.0,0.0,0.0,0.0,0.0,0.0,0.0,0.0,0.0,0.0,0.0,0.0,0.0,0.0,0.0,0.0,0.0,0.0,0.0,0.0,0.0,0.0,0.0,0.0,0.0,0.0,0.0,0.0,0.0,0.0,0.0,0.0,0.0,0.0,0.0,0.0,0.0,0.0,0.0,0.0,0.0,0.0,0.0,0.0,0.0,0.0,0.0,0.0,0.0,0.0,0.0,0.0,0.0,0.0,0.0,0.0,0.0,0.0,0.0,9.087,9.6097,10.0064,10.1349,10.4056,10.456,10.1727,10.2759,10.1186,0.0,0.0,0.0,0.0,0.0,0.0,0.0,0.0,0.0,0.0,0.0,0.0,0.0,0.0,0.0,0.0,0.0,0.0,0.0,0.0,0.0,0.0,0.0,0.0,0.0,0.0,0.0,0.0,0.0,0.0,0.0,0.0,0.0,0.0,0.0,0.0,0.0,0.0,0.0,0.0,0.0,0.0,0.0,0.0,0.0,0.0,0.0,0.0,0.0,0.0,0.0,0.0,0.0,0.0,0.0,0.0,0.0,0.0,0.0,0.0,0.0,0.0,0.0,0.0,0.0,0.0,0.0,0.0,0.0,0.0,0.0,0.0,0.0,0.0,0.0,0.0,0.0,0.0,0.0,0.0,0.0,0.0,0.0,0.0,0.0,0.0,0.0,0.0,0.0,0.0,0.0,0.0,0.0,0.0,0.0,0.0,0.0,0.0,0.0,0.0,0.0,0.0,0.0,8.92,9.2977,9.6502,0.0,9.9209,9.902,10.0064,9.8768,9.6341,9.2725,0.0,0.0,0.0,0.0,0.0,0.0,0.0,0.0,0.0,0.0,0.0,0.0,0.0,0.0,0.0,0.0,0.0,0.0,0.0,0.0,0.0,0.0,0.0,0.0,0.0,0.0,0.0,0.0,0.0,0.0,0.0,0.0,0.0,0.0,0.0,0.0,0.0,0.0,0.0,0.0,0.0,0.0,0.0,0.0,0.0,0.0,0.0,0.0,0.0,0.0,0.0,0.0,0.0,0.0,0.0,0.0,0.0,0.0,0.0,0.0,0.0,0.0,0.0,0.0,0.0,0.0,0.0,0.0,0.0,0.0,0.0,0.0,0.0,0.0,0.0,0.0,0.0,0.0,0.0,0.0,0.0,0.0,0.0,0.0,0.0,0.0,0.0,0.0,0.0,0.0,0.0,0.0,0.0,0.0,0.0,0.0,0.0,0.0,0.0,0.0,0.0,0.0,0.0,9.1655,9.5019,0.0,9.732,9.7132,9.7824,9.6718,9.4236,8.9925,0.0,0.0,0.0,0.0,0.0,0.0,0.0,0.0,0.0,0.0,0.0,0.0,0.0,0.0,0.0,0.0,0.0,0.0,0.0,0.0,0.0,0.0,0.0,0.0,0.0,0.0,0.0,0.0,0.0,0.0,0.0,0.0,0.0,0.0,0.0,0.0,0.0,0.0,0.0,0.0,0.0,0.0,0.0,0.0,0.0,0.0,0.0,0.0,0.0,0.0,0.0,0.0,0.0,0.0,0.0,0.0,0.0,0.0,0.0,0.0,0.0,0.0,0.0,0.0,0.0,0.0,0.0,0.0,0.0,0.0,0.0,0.0,0.0,0.0,0.0,0.0,0.0,0.0,0.0,0.0,0.0,0.0,0.0,0.0,0.0,0.0,0.0,0.0,0.0,0.0,0.0,0.0,0.0,0.0,0.0,0.0,0.0,0.0,0.0,0.0,0.0,0.0,0.0,9.1529,9.4768,9.5082,9.732,9.7761,9.5334,9.6152,9.3984,8.7374,8.5612,0.0,0.0,0.0,0.0,0.0,0.0,0.0,0.0,0.0,0.0,0.0,0.0,0.0,0.0,0.0,0.0,0.0,0.0,0.0,0.0,0.0,0.0,0.0,0.0,0.0,0.0,0.0,0.0,0.0,0.0,0.0,0.0,0.0,0.0,0.0,0.0,0.0,0.0,0.0,0.0,0.0,0.0,0.0,0.0,0.0,0.0,0.0,0.0,0.0,0.0,0.0,0.0,0.0,0.0,0.0,0.0,0.0,0.0,0.0,0.0,0.0,0.0,0.0,0.0,0.0,0.0,0.0,0.0,0.0,0.0,0.0,0.0,0.0,0.0,0.0,0.0,0.0,0.0,0.0,0.0,0.0,0.0,0.0,0.0,0.0,0.0,0.0,0.0,0.0,0.0,0.0,0.0,0.0,0.0,0.0,0.0,0.0,0.0,0.0,0.0,0.0,0.0,8.8193,9.027,9.3383,9.241,9.2096,9.3635,9.2096,8.9452,8.5643,8.4133,0.0,0.0,0.0,0.0,0.0,0.0,0.0,0.0,0.0,0.0,0.0,0.0,0.0,0.0,0.0,0.0,0.0,0.0,0.0,0.0,0.0,0.0,0.0,0.0,0.0,0.0,0.0,0.0,0.0,0.0,0.0,0.0,0.0,0.0,0.0,0.0,0.0,0.0,0.0,0.0,0.0,0.0,0.0,0.0,0.0,0.0,0.0,0.0,0.0,0.0,0.0,0.0,0.0,0.0,0.0,0.0,0.0,0.0,0.0,0.0,0.0,0.0,0.0,0.0,0.0,0.0,0.0,0.0,0.0,0.0,0.0,0.0,0.0,0.0,0.0,0.0,0.0,0.0,0.0,0.0,0.0,0.0,0.0,0.0,0.0,0.0,0.0,0.0,0.0,0.0,0.0,0.0,0.0,0.0,0.0,0.0,0.0,0.0,0.0,0.0,0.0,0.0,8.3975,8.6713,9.0866,8.9955,8.9389,9.0396,8.9011,8.643,8.2338,8.0828,0.0,0.0,0.0,0.0,0.0,0.0,0.0,0.0,0.0,0.0,0.0,0.0,0.0,0.0,0.0,0.0,0.0,0.0,0.0,0.0,0.0,0.0,0.0,0.0,0.0,0.0,0.0,0.0,0.0,0.0,0.0,0.0,0.0,0.0,0.0,0.0,0.0,0.0,0.0,0.0,0.0,0.0,0.0,0.0,0.0,0.0,0.0,0.0,0.0,0.0,0.0,0.0,0.0,0.0,0.0,0.0,0.0,0.0,0.0,0.0,0.0,0.0,0.0,0.0,0.0,0.0,0.0,0.0,0.0,0.0,0.0,0.0,0.0,0.0,0.0,0.0,0.0,0.0,0.0,0.0,0.0,0.0,0.0,0.0,0.0,0.0,0.0,0.0,0.0,0.0,0.0,0.0,0.0,0.0,0.0,0.0,0.0,0.0,0.0,0.0,0.0,0.0,0.0,8.4165,8.7752,8.8256,8.8067,8.7123,8.6903,8.4447,7.9094,0.0,0.0,0.0,0.0,0.0,0.0,0.0,0.0,0.0,0.0,0.0,0.0,0.0,0.0,0.0,0.0,0.0,0.0,0.0,0.0,0.0,0.0,0.0,0.0,0.0,0.0,0.0,0.0,0.0,0.0,0.0,0.0,0.0,0.0,0.0,0.0,0.0,0.0,0.0,0.0,0.0,0.0,0.0,0.0,0.0,0.0,0.0,0.0,0.0,0.0,0.0,0.0,0.0,0.0,0.0,0.0,0.0,0.0,0.0,0.0,0.0,0.0,0.0,0.0,0.0,0.0,0.0,0.0,0.0,0.0,0.0,0.0,0.0,0.0,0.0,0.0,0.0,0.0,0.0,0.0,0.0,0.0,0.0,0.0,0.0,0.0,0.0,0.0,0.0,0.0,0.0,0.0,0.0,0.0,0.0,0.0,0.0,0.0,0.0,0.0,0.0,0.0,0.0,0.0,0.0,8.3662,8.4825,8.599,8.7029,8.599,8.3409,7.9002,0.0,0.0,0.0,0.0,0.0,0.0,0.0,0.0,0.0,0.0,0.0,0.0,0.0,0.0]}]]]